[[{"header":{"parameterUnit":"m.s-1","parameterCategory":1,"la1":30.6,"la2":29.2853,"lo1":-89.7004,"lo2":-87.6739,"dy":0.0162,"dx":0.0183,"nx":112,"ny":82,"refTime":"2025-09-08T12:00:00:Z","depth":0,"parameterNumber":2,"parameterNumberName":"U-component_of_WINDS"},"data":[0.0,0.0,0.0,0.0,0.0,0.0,0.0,0.0,0.0,0.0,0.0,0.0,0.0,0.0,0.0,0.0,0.0,0.0,0.0,0.0,0.0,0.0,0.0,0.0,0.0,0.0,0.0,0.0,0.0,0.0,0.0,0.0,0.0,0.0,0.0,0.0,0.0,0.0,0.0,0.0,0.0,0.0,0.0,0.0,0.0,0.0,0.0,0.0,0.0,0.0,0.0,0.0,0.0,0.0,0.0,0.0,0.0,0.0,0.0,0.0,0.0,0.0,0.0,0.0,0.0,0.0,0.0,0.0,0.0,0.0,0.0,0.0,0.0,0.0,0.0,0.0,0.0,0.0,0.0,0.0,0.0,0.0,0.0,0.0,0.0,0.0,0.0,0.0,0.0,0.0,0.0,1.9962,2.0804,2.1382,2.1382,2.1794,2.1203,1.9259,0.0,0.0,0.0,0.0,0.0,0.0,0.0,0.0,0.0,0.0,0.0,0.0,0.0,0.0,0.0,0.0,0.0,0.0,0.0,0.0,0.0,0.0,0.0,0.0,0.0,0.0,0.0,0.0,0.0,0.0,0.0,0.0,0.0,0.0,0.0,0.0,0.0,0.0,0.0,0.0,0.0,0.0,0.0,0.0,0.0,0.0,0.0,0.0,0.0,0.0,0.0,0.0,0.0,0.0,0.0,0.0,0.0,0.0,0.0,0.0,0.0,0.0,0.0,0.0,0.0,0.0,0.0,0.0,0.0,0.0,0.0,0.0,0.0,0.0,0.0,0.0,0.0,0.0,0.0,0.0,0.0,0.0,0.0,0.0,0.0,0.0,0.0,0.0,0.0,0.0,0.0,0.0,0.0,0.0,0.0,0.0,0.0,0.0,0.0,0.0,0.0,0.0,0.0,0.0,1.9572,2.0465,2.0717,2.0817,2.0817,2.0893,2.0577,1.9736,0.0,0.0,0.0,0.0,0.0,0.0,0.0,0.0,0.0,0.0,0.0,0.0,0.0,0.0,0.0,0.0,0.0,0.0,0.0,0.0,0.0,0.0,0.0,0.0,0.0,0.0,0.0,0.0,0.0,0.0,0.0,0.0,0.0,0.0,0.0,0.0,0.0,0.0,0.0,0.0,0.0,0.0,0.0,0.0,0.0,0.0,0.0,0.0,0.0,0.0,0.0,0.0,0.0,0.0,0.0,0.0,0.0,0.0,0.0,0.0,0.0,0.0,0.0,0.0,0.0,0.0,0.0,0.0,0.0,0.0,0.0,0.0,0.0,0.0,0.0,0.0,0.0,0.0,0.0,0.0,0.0,0.0,0.0,0.0,0.0,0.0,0.0,0.0,0.0,0.0,0.0,0.0,0.0,0.0,0.0,0.0,0.0,0.0,0.0,0.0,0.0,0.0,0.0,1.9823,1.9761,2.0616,2.0415,2.0201,2.0201,2.0515,2.0189,1.9007,1.9196,0.0,0.0,0.0,0.0,0.0,0.0,0.0,0.0,0.0,0.0,0.0,0.0,0.0,0.0,0.0,0.0,0.0,0.0,0.0,0.0,0.0,0.0,0.0,0.0,0.0,0.0,0.0,0.0,0.0,0.0,0.0,0.0,0.0,0.0,0.0,0.0,0.0,0.0,0.0,0.0,0.0,0.0,0.0,0.0,0.0,0.0,0.0,0.0,0.0,0.0,0.0,0.0,0.0,0.0,0.0,0.0,0.0,0.0,0.0,0.0,0.0,0.0,0.0,0.0,0.0,0.0,0.0,0.0,0.0,0.0,0.0,0.0,0.0,0.0,0.0,0.0,0.0,0.0,0.0,0.0,0.0,0.0,0.0,0.0,0.0,0.0,0.0,0.0,0.0,0.0,0.0,0.0,0.0,0.0,0.0,0.0,0.0,0.0,0.0,0.0,0.0,0.0,2.0564,2.0326,2.0666,2.015,1.9811,1.9811,2.0226,1.9824,1.8304,1.8581,0.0,0.0,0.0,0.0,0.0,0.0,0.0,0.0,0.0,0.0,0.0,0.0,0.0,0.0,0.0,0.0,0.0,0.0,0.0,0.0,0.0,0.0,0.0,0.0,0.0,0.0,0.0,0.0,0.0,0.0,0.0,0.0,0.0,0.0,0.0,0.0,0.0,0.0,0.0,0.0,0.0,0.0,0.0,0.0,0.0,0.0,0.0,0.0,0.0,0.0,0.0,0.0,0.0,0.0,0.0,0.0,0.0,0.0,0.0,0.0,0.0,0.0,0.0,0.0,0.0,0.0,0.0,0.0,0.0,0.0,0.0,0.0,0.0,0.0,0.0,0.0,0.0,0.0,0.0,0.0,0.0,0.0,0.0,0.0,0.0,0.0,0.0,0.0,0.0,0.0,0.0,0.0,0.0,0.0,0.0,0.0,0.0,0.0,0.0,0.0,0.0,0.0,2.0765,2.1206,2.0755,2.015,1.9811,1.9811,1.9836,1.9384,1.8279,1.8229,0.0,0.0,0.0,0.0,0.0,0.0,0.0,0.0,0.0,0.0,0.0,0.0,0.0,0.0,0.0,0.0,0.0,0.0,0.0,0.0,0.0,0.0,0.0,0.0,0.0,0.0,0.0,0.0,0.0,0.0,0.0,0.0,0.0,0.0,0.0,0.0,0.0,0.0,0.0,0.0,0.0,0.0,0.0,0.0,0.0,0.0,0.0,0.0,0.0,0.0,0.0,0.0,0.0,0.0,0.0,0.0,0.0,0.0,0.0,0.0,0.0,0.0,0.0,0.0,0.0,0.0,0.0,0.0,0.0,0.0,0.0,0.0,0.0,0.0,0.0,0.0,0.0,0.0,0.0,0.0,0.0,0.0,0.0,0.0,0.0,0.0,0.0,0.0,0.0,0.0,0.0,0.0,0.0,0.0,0.0,0.0,0.0,0.0,0.0,0.0,0.0,0.0,2.0502,2.0792,0.0,1.9949,1.9811,1.9811,1.9811,1.9334,1.8279,0.0,0.0,0.0,0.0,0.0,0.0,0.0,0.0,0.0,0.0,0.0,0.0,0.0,0.0,0.0,0.0,0.0,0.0,0.0,0.0,0.0,0.0,0.0,0.0,0.0,0.0,0.0,0.0,0.0,0.0,0.0,0.0,0.0,0.0,0.0,0.0,0.0,0.0,0.0,0.0,0.0,0.0,0.0,0.0,0.0,0.0,0.0,0.0,0.0,0.0,0.0,0.0,0.0,0.0,0.0,0.0,0.0,0.0,0.0,0.0,0.0,0.0,0.0,0.0,0.0,0.0,0.0,0.0,0.0,0.0,0.0,0.0,0.0,0.0,0.0,0.0,0.0,0.0,0.0,0.0,0.0,0.0,0.0,0.0,0.0,0.0,0.0,0.0,0.0,0.0,0.0,0.0,0.0,0.0,0.0,0.0,0.0,0.0,0.0,0.0,0.0,0.0,2.0012,2.0576,2.0688,0.0,1.9911,1.9811,1.9811,1.9622,1.9146,1.8254,0.0,0.0,0.0,0.0,0.0,0.0,0.0,0.0,0.0,0.0,0.0,0.0,0.0,0.0,0.0,0.0,0.0,0.0,0.0,0.0,0.0,0.0,0.0,0.0,0.0,0.0,0.0,0.0,0.0,0.0,0.0,0.0,0.0,0.0,0.0,0.0,0.0,0.0,0.0,0.0,0.0,0.0,0.0,0.0,0.0,0.0,0.0,0.0,0.0,0.0,0.0,0.0,0.0,0.0,0.0,0.0,0.0,0.0,0.0,0.0,0.0,0.0,0.0,0.0,0.0,0.0,0.0,0.0,0.0,0.0,0.0,0.0,0.0,0.0,0.0,0.0,0.0,0.0,0.0,0.0,0.0,0.0,0.0,0.0,0.0,0.0,0.0,0.0,0.0,0.0,0.0,0.0,0.0,0.0,0.0,0.0,0.0,0.0,0.0,0.0,0.0,0.0,2.0603,2.1056,2.1154,2.0728,2.0175,1.9811,1.9811,1.9321,1.8782,0.0,0.0,0.0,0.0,0.0,0.0,0.0,0.0,0.0,0.0,0.0,0.0,0.0,0.0,0.0,0.0,0.0,0.0,0.0,0.0,0.0,0.0,0.0,0.0,0.0,0.0,0.0,0.0,0.0,0.0,0.0,0.0,0.0,0.0,0.0,0.0,0.0,0.0,0.0,0.0,0.0,0.0,0.0,0.0,0.0,0.0,0.0,0.0,0.0,0.0,0.0,0.0,0.0,0.0,0.0,0.0,0.0,0.0,0.0,0.0,0.0,0.0,0.0,0.0,0.0,0.0,0.0,0.0,0.0,0.0,0.0,0.0,0.0,0.0,0.0,0.0,0.0,0.0,0.0,0.0,0.0,0.0,0.0,0.0,0.0,0.0,0.0,0.0,0.0,0.0,0.0,0.0,0.0,0.0,0.0,0.0,0.0,0.0,0.0,0.0,0.0,0.0,0.0,2.0415,2.1297,2.1521,2.0603,2.0461,2.0251,1.9836,1.966,1.9171,1.8254,0.0,0.0,0.0,0.0,0.0,0.0,0.0,0.0,0.0,0.0,0.0,0.0,0.0,0.0,0.0,0.0,0.0,0.0,0.0,0.0,0.0,0.0,0.0,0.0,0.0,0.0,0.0,0.0,0.0,0.0,0.0,0.0,0.0,0.0,0.0,0.0,0.0,0.0,0.0,0.0,0.0,0.0,0.0,0.0,0.0,0.0,0.0,0.0,0.0,0.0,0.0,0.0,0.0,0.0,0.0,0.0,0.0,0.0,0.0,0.0,0.0,0.0,0.0,0.0,0.0,0.0,0.0,0.0,0.0,0.0,0.0,0.0,0.0,0.0,0.0,0.0,0.0,0.0,0.0,0.0,0.0,0.0,0.0,0.0,0.0,0.0,0.0,0.0,0.0,0.0,0.0,0.0,0.0,0.0,0.0,0.0,0.0,0.0,0.0,0.0,0.0,0.0,2.0585,2.1601,2.1976,2.118,2.0834,2.0541,2.0175,1.9949,1.9422,1.8568,0.0,0.0,0.0,0.0,0.0,0.0,0.0,0.0,0.0,0.0,0.0,0.0,0.0,0.0,0.0,0.0,0.0,0.0,0.0,0.0,0.0,0.0,0.0,0.0,0.0,0.0,0.0,0.0,0.0,0.0,0.0,0.0,0.0,0.0,0.0,0.0,0.0,0.0,0.0,0.0,0.0,0.0,0.0,0.0,0.0,0.0,0.0,0.0,0.0,0.0,0.0,0.0,0.0,0.0,0.0,0.0,0.0,0.0,0.0,0.0,0.0,0.0,0.0,0.0,0.0,0.0,0.0,0.0,0.0,0.0,0.0,0.0,0.0,0.0,0.0,0.0,0.0,0.0,0.0,0.0,0.0,0.0,0.0,0.0,0.0,0.0,0.0,0.0,0.0,0.0,0.0,0.0,0.0,0.0,0.0,0.0,0.0,0.0,0.0,0.0,0.0,0.0,2.1021,2.1991,2.2493,2.2105,2.1292,2.0777,2.0726,2.0199,1.9635,1.9083,0.0,0.0,0.0,0.0,0.0,0.0,0.0,0.0,0.0,0.0,0.0,0.0,0.0,0.0,0.0,0.0,0.0,0.0,0.0,0.0,0.0,0.0,0.0,0.0,0.0,0.0,0.0,0.0,0.0,0.0,0.0,0.0,0.0,0.0,0.0,0.0,0.0,0.0,0.0,0.0,0.0,0.0,0.0,0.0,0.0,0.0,0.0,0.0,0.0,0.0,0.0,0.0,0.0,0.0,0.0,0.0,0.0,0.0,0.0,0.0,2.2478,0.0,0.0,0.0,0.0,0.0,0.0,0.0,0.0,0.0,0.0,0.0,0.0,0.0,0.0,0.0,0.0,0.0,0.0,0.0,0.0,0.0,0.0,0.0,0.0,0.0,0.0,0.0,0.0,0.0,0.0,0.0,0.0,0.0,0.0,0.0,0.0,0.0,0.0,0.0,0.0,0.0,2.1399,2.2402,2.271,2.1789,2.1618,2.1385,2.0966,2.0532,2.0053,1.9506,0.0,0.0,0.0,0.0,0.0,0.0,0.0,0.0,0.0,0.0,0.0,0.0,0.0,0.0,0.0,0.0,0.0,0.0,0.0,0.0,0.0,0.0,0.0,0.0,0.0,0.0,0.0,0.0,0.0,0.0,0.0,0.0,0.0,0.0,0.0,0.0,0.0,0.0,0.0,0.0,0.0,0.0,0.0,0.0,0.0,0.0,0.0,0.0,0.0,0.0,0.0,0.0,0.0,0.0,0.0,0.0,0.0,0.0,0.0,0.0,0.0,2.3609,0.0,0.0,0.0,0.0,0.0,0.0,0.0,0.0,0.0,0.0,0.0,0.0,0.0,0.0,0.0,0.0,0.0,0.0,0.0,0.0,0.0,0.0,0.0,0.0,0.0,0.0,0.0,0.0,0.0,0.0,0.0,0.0,0.0,0.0,0.0,0.0,0.0,0.0,0.0,0.0,2.1871,2.2868,2.328,2.2453,2.203,2.1687,2.1407,2.0962,2.0461,1.9932,1.9334,0.0,0.0,0.0,0.0,0.0,0.0,0.0,0.0,0.0,0.0,0.0,0.0,0.0,0.0,0.0,0.0,0.0,0.0,0.0,0.0,0.0,0.0,0.0,0.0,0.0,0.0,0.0,0.0,0.0,0.0,0.0,0.0,0.0,0.0,0.0,0.0,0.0,0.0,0.0,0.0,0.0,0.0,0.0,0.0,0.0,0.0,0.0,0.0,0.0,0.0,0.0,0.0,0.0,2.4749,2.477,2.4358,2.5185,2.5577,2.5532,2.5043,2.5091,2.5471,0.0,0.0,0.0,0.0,0.0,0.0,0.0,0.0,0.0,0.0,0.0,0.0,0.0,0.0,0.0,0.0,0.0,0.0,0.0,0.0,0.0,0.0,0.0,0.0,0.0,2.2669,2.2172,0.0,0.0,0.0,0.0,0.0,0.0,0.0,0.0,0.0,0.0,0.0,0.0,2.255,2.3434,2.3838,2.3232,2.2466,2.1956,2.1883,2.1282,2.0714,2.0277,2.0072,1.9775,0.0,0.0,0.0,0.0,0.0,0.0,0.0,0.0,0.0,0.0,0.0,0.0,0.0,0.0,0.0,0.0,0.0,0.0,0.0,0.0,0.0,0.0,0.0,0.0,0.0,0.0,0.0,0.0,0.0,0.0,0.0,0.0,2.235,2.3223,0.0,0.0,0.0,0.0,0.0,0.0,0.0,0.0,0.0,0.0,0.0,0.0,0.0,2.4834,2.4506,2.5711,2.63,2.6235,2.6693,2.6889,2.6824,2.6977,2.702,2.702,2.6933,0.0,2.528,2.5546,0.0,0.0,0.0,0.0,0.0,0.0,0.0,0.0,0.0,0.0,0.0,0.0,0.0,0.0,0.0,0.0,0.0,0.0,0.0,0.0,0.0,0.0,2.2296,2.2028,2.1947,2.1865,0.0,2.2119,2.2386,2.1799,2.1681,0.0,0.0,0.0,0.0,0.0,0.0,0.0,2.3601,2.4066,2.4066,2.3136,2.2911,2.2645,2.2187,2.117,2.0546,2.0461,1.9582,1.8985,1.88,1.8167,0.0,0.0,0.0,0.0,0.0,0.0,0.0,0.0,0.0,0.0,0.0,0.0,0.0,0.0,0.0,0.0,0.0,0.0,0.0,0.0,0.0,0.0,0.0,0.0,0.0,0.0,0.0,0.0,0.0,2.2277,2.315,2.3332,2.3086,2.2953,0.0,0.0,0.0,0.0,0.0,0.0,0.0,0.0,0.0,2.4478,2.5332,2.5805,2.5913,2.6628,2.6998,2.6998,2.7195,2.7435,2.7697,2.7697,2.7872,2.8135,2.8135,2.761,2.6758,2.6431,2.5907,2.534,0.0,0.0,0.0,0.0,2.496,2.4602,2.5378,2.5075,0.0,0.0,0.0,0.0,0.0,0.0,0.0,0.0,0.0,0.0,0.0,0.0,0.0,2.2331,2.2045,2.1892,2.2416,2.2874,2.2927,0.0,2.2579,2.3,2.2576,0.0,0.0,0.0,0.0,0.0,2.4218,2.4369,2.4321,2.3905,2.3609,2.3344,2.3127,2.2353,2.1589,2.088,2.0387,1.9751,1.8909,1.8787,1.8362,0.0,0.0,0.0,0.0,0.0,0.0,0.0,0.0,0.0,0.0,0.0,0.0,0.0,0.0,0.0,0.0,0.0,0.0,0.0,0.0,0.0,0.0,0.0,0.0,0.0,0.0,0.0,0.0,2.3272,2.3816,2.3356,2.3511,2.3569,0.0,0.0,0.0,0.0,0.0,0.0,2.4481,2.4803,2.5189,2.5572,2.6216,2.6799,2.7233,2.7542,2.7676,2.7676,2.7676,2.7872,2.8199,2.8199,2.8418,2.8792,2.8792,2.8572,2.8133,2.7304,2.6889,2.6737,2.6387,2.6256,2.6299,2.6649,2.6066,2.5312,2.6779,2.6344,2.5122,2.5358,0.0,2.4252,2.3211,0.0,0.0,0.0,0.0,2.2335,2.2532,2.2443,2.2369,2.2622,2.2236,2.2017,2.2615,2.3084,2.3137,0.0,2.3163,2.3871,2.3415,0.0,0.0,0.0,0.0,2.5324,2.4777,2.4532,2.434,2.4238,2.3728,2.3411,2.3494,2.2767,2.1976,2.1196,2.0922,2.026,1.8977,1.9323,1.9218,1.8479,0.0,0.0,0.0,0.0,0.0,0.0,0.0,0.0,0.0,0.0,0.0,0.0,0.0,0.0,0.0,0.0,0.0,0.0,0.0,0.0,0.0,0.0,0.0,0.0,0.0,0.0,0.0,0.0,0.0,2.3828,2.4165,0.0,0.0,0.0,0.0,2.4115,2.4012,2.4409,2.5482,2.5545,2.5974,2.6863,2.736,2.7732,2.7935,2.8462,2.8727,2.8727,2.8727,2.8749,2.8771,2.8771,2.8771,2.8792,2.8792,2.8792,2.8727,2.8155,2.7675,2.726,2.7239,2.7239,2.7217,2.726,2.6796,2.6239,2.7017,2.6795,2.6129,2.613,2.5307,2.4452,2.5135,2.4765,0.0,0.0,2.4623,2.389,2.3906,2.3369,2.2777,2.2415,2.23,2.2167,2.1845,2.2624,2.3282,0.0,2.3185,2.3577,2.366,0.0,2.447,2.4712,2.5486,2.5877,2.533,2.4589,2.3938,2.3495,2.2733,2.2373,2.2634,2.1285,2.0649,2.115,2.0487,1.9649,1.8744,1.9162,1.8931,1.7869,1.7654,0.0,0.0,0.0,0.0,0.0,0.0,0.0,0.0,0.0,0.0,0.0,0.0,0.0,0.0,0.0,0.0,0.0,0.0,0.0,0.0,0.0,0.0,0.0,0.0,0.0,0.0,0.0,0.0,2.4399,2.5118,0.0,2.4576,2.4744,2.4978,2.5103,2.5419,2.5861,2.6403,2.6445,2.6723,2.737,2.7725,2.7929,2.7998,2.8519,2.863,2.8279,2.8443,2.8465,2.8279,2.8279,2.8373,2.8535,2.8535,2.8651,2.8792,2.8594,2.8419,2.8266,2.8266,2.7947,2.7489,2.7489,2.67,2.5784,2.7049,2.6769,2.5903,2.6116,2.5254,2.416,2.4433,2.3997,2.3445,2.3744,2.3559,2.3294,2.3294,2.3106,2.2876,2.2712,2.2675,2.2565,2.2163,2.2415,2.2632,2.2387,2.3183,2.3777,2.3491,2.3992,2.454,2.4767,2.5376,2.5471,2.4645,2.4271,2.4021,2.3879,2.3002,2.2699,2.3319,2.1948,2.0987,2.0751,2.0159,1.9403,1.8545,1.8919,1.877,1.8009,1.8174,1.7551,0.0,0.0,0.0,0.0,0.0,0.0,0.0,0.0,0.0,0.0,0.0,0.0,0.0,0.0,0.0,0.0,0.0,0.0,0.0,0.0,0.0,0.0,0.0,0.0,0.0,0.0,2.5805,2.5167,2.6131,2.6518,2.5613,2.6402,2.6851,2.6479,2.6925,2.7174,2.7135,2.7066,2.7212,2.7573,2.7762,2.7904,2.7998,2.835,2.8436,2.8232,2.8419,2.8505,2.8466,2.8583,2.8702,2.889,2.8964,2.894,2.8847,2.8847,2.854,2.8163,2.8598,2.8326,2.76,2.76,2.6628,2.5465,2.646,2.6279,2.5595,2.5811,2.5078,2.4113,2.4373,2.3923,2.3387,2.3632,2.3537,2.334,2.334,2.334,2.3303,2.3133,2.3096,2.295,2.2424,2.2295,2.2231,2.2024,2.2753,2.3333,2.3056,2.3749,2.4451,2.4723,2.5015,2.4985,2.4439,2.3766,2.3305,2.3231,2.2376,2.2113,2.2821,2.1688,2.0871,2.0628,2.0012,1.9371,1.8731,1.8817,1.8719,1.8312,1.8247,1.7712,1.6671,0.0,0.0,0.0,0.0,0.0,0.0,0.0,0.0,0.0,0.0,0.0,0.0,0.0,0.0,0.0,0.0,0.0,0.0,0.0,0.0,0.0,0.0,0.0,2.5423,2.5959,2.6303,2.6107,2.7233,2.7712,2.6877,2.8192,2.8814,2.8175,2.8319,2.8169,2.7657,2.7446,2.7422,2.7636,2.7636,2.7778,2.804,2.804,2.8274,2.8697,2.8697,2.8931,2.9377,2.9645,2.9765,2.979,3.0038,2.9673,2.8864,2.8864,2.8045,2.6937,2.824,2.8233,2.7505,2.7529,2.658,2.5294,2.5294,2.5294,2.5294,2.5294,2.4799,2.4325,2.505,2.4775,2.435,2.505,2.475,2.4202,2.4202,2.4202,2.4085,2.3633,2.3517,2.3297,2.2515,2.2332,2.2204,2.1819,2.1928,2.2154,2.2353,2.3302,2.4195,2.4592,2.4486,0.0,2.4766,2.3034,2.1719,2.1508,2.076,2.0508,2.1049,2.0352,2.0118,2.0721,2.002,1.9507,1.9349,1.8949,1.8747,1.8727,1.7825,1.7372,1.74,0.0,0.0,0.0,0.0,0.0,0.0,0.0,0.0,0.0,0.0,0.0,0.0,0.0,0.0,0.0,0.0,0.0,0.0,0.0,0.0,0.0,0.0,2.726,2.6824,2.752,2.8087,2.8041,2.8771,2.9144,2.8705,2.8876,2.8849,2.8502,2.8507,2.8458,2.8329,2.8259,2.8379,2.86,2.8624,2.8649,2.8722,2.8921,2.8887,2.8619,2.8838,2.8876,2.8807,2.8881,2.9052,2.92,2.93,2.8811,2.795,2.795,2.7497,2.685,2.7382,2.6816,2.5729,2.5879,2.5659,2.5294,2.5294,2.5294,2.5294,2.5294,2.4799,2.4226,2.4449,2.4375,2.4251,2.443,2.4375,2.4202,2.4202,2.4202,2.4183,2.403,2.4012,2.384,2.3303,2.2931,2.262,2.2222,2.1956,2.1887,2.2132,2.2574,2.3055,2.3596,2.3515,0.0,2.2913,2.2217,2.1584,2.1262,2.0352,2.0098,2.0817,2.0021,1.9529,1.9707,1.949,1.9479,1.9731,1.9627,1.955,1.9483,1.8662,1.8093,0.0,0.0,0.0,0.0,0.0,0.0,0.0,0.0,0.0,0.0,0.0,0.0,0.0,0.0,0.0,0.0,0.0,0.0,0.0,0.0,0.0,0.0,2.8055,2.8592,2.8549,2.8857,2.9163,2.9359,2.9889,3.0197,3.0048,3.0092,2.9938,2.9575,2.9475,2.9266,2.8952,2.8832,2.8782,2.8828,2.8828,2.8828,2.8828,2.9002,2.9061,2.9073,2.9224,2.9354,2.9517,2.9644,2.9593,0.0,2.9543,2.886,2.7688,2.7688,2.7168,0.0,0.0,0.0,0.0,0.0,2.5352,2.5314,2.5145,2.5088,2.505,2.4905,2.4554,2.4202,2.4202,2.4202,2.4202,2.4202,2.4202,2.4202,2.4202,2.4202,2.4202,2.4202,2.4202,2.4067,2.3614,2.3187,2.2785,2.2387,2.1984,0.0,2.1928,2.2109,2.2522,2.3225,2.2855,2.2495,2.2534,2.1769,2.1114,2.0761,2.0036,1.9745,2.0157,1.9648,0.0,0.0,0.0,1.9568,1.9594,1.9612,0.0,0.0,0.0,0.0,0.0,0.0,0.0,0.0,1.7689,1.7753,0.0,0.0,0.0,0.0,0.0,0.0,0.0,0.0,0.0,0.0,0.0,0.0,0.0,0.0,0.0,0.0,2.8695,2.9792,3.0174,2.9942,2.986,3.0253,3.0665,3.0924,3.0924,3.1266,3.1353,3.0917,3.0669,3.0249,2.9593,0.0,0.0,0.0,0.0,2.8848,2.8848,2.8848,2.9182,2.9812,2.9812,3.012,3.0672,3.0884,3.0573,2.9822,3.0078,2.9217,2.7645,2.7645,2.6889,2.5772,2.6382,2.6506,2.6301,2.5648,2.5388,2.5352,2.5003,0.0,0.0,2.4459,2.4312,2.4275,2.4275,2.4238,2.4202,2.4202,2.4202,2.4202,2.4202,2.4202,2.4202,2.4202,2.4202,2.4085,2.3669,2.3297,2.2931,2.257,2.2149,2.1833,2.1833,2.1961,2.2331,2.3129,2.2404,2.2067,2.2821,2.1589,2.0575,2.0331,0.0,0.0,1.9494,1.9457,1.9604,1.995,2.0024,1.985,1.9411,1.9458,1.9317,1.9008,1.9033,1.9335,1.9884,1.9932,1.9948,1.9916,1.8651,1.8548,0.0,0.0,0.0,0.0,0.0,0.0,0.0,0.0,0.0,0.0,0.0,0.0,0.0,0.0,0.0,2.8568,2.9756,3.0575,3.0389,3.0827,3.1105,3.0799,3.099,3.1141,3.1141,3.1021,3.0914,3.0829,3.0777,3.0683,3.0546,3.0474,0.0,3.0371,3.0371,3.0371,3.0371,3.0371,3.0439,3.0596,0.0,0.0,2.9743,2.9822,2.9375,2.8628,2.8681,2.7941,2.6735,2.6735,2.6345,2.5698,2.5487,2.5506,2.5596,2.544,2.5388,2.5388,2.5315,2.5278,2.526,2.5186,2.4948,2.4691,2.4691,2.4477,0.0,2.4202,2.4202,2.4202,2.4202,2.4202,2.4202,2.4202,2.4202,2.4183,2.4085,2.3993,2.392,2.3846,2.3193,2.2675,2.2675,2.2171,2.1909,2.2287,2.1991,2.1735,2.1792,2.1326,2.0976,2.0934,2.0563,2.0432,2.0723,2.0445,2.0298,2.0372,2.0683,2.079,2.0566,2.0882,2.0807,2.027,2.0516,2.0411,1.9884,2.0171,2.0289,2.0273,1.9741,1.9622,0.0,0.0,0.0,0.0,0.0,0.0,0.0,0.0,0.0,0.0,0.0,2.795,2.7678,0.0,2.9813,2.9703,3.0987,3.1936,3.1756,3.2114,3.2066,3.1345,3.1349,3.1399,3.1399,3.127,3.1193,3.1193,3.1193,3.1142,3.1008,3.1008,3.0931,3.0801,3.0801,3.0594,3.0156,3.0156,3.0026,2.9764,3.0183,3.0235,2.9953,3.037,3.0109,2.9343,2.8873,2.8128,2.7114,2.6718,2.6391,2.6145,2.5919,2.5909,2.6013,2.6013,2.6013,2.5976,2.5756,2.5682,2.5664,2.5462,2.526,2.5095,2.5095,2.4819,2.4489,2.4489,2.4367,2.4202,2.4202,2.4202,2.4202,2.4202,2.4202,2.4202,2.4202,2.4012,2.384,2.384,2.334,2.2968,2.3169,2.2858,2.2428,2.1957,2.1776,2.168,2.161,2.1302,2.1108,2.1108,2.0738,2.0573,2.0775,2.0793,2.0793,2.0793,2.1119,2.1153,2.0864,2.1137,2.1049,2.0499,2.083,2.0802,2.04,2.0575,2.0655,2.0655,2.048,2.04,0.0,0.0,0.0,0.0,0.0,0.0,0.0,0.0,2.8458,2.8493,2.8936,2.9254,2.8926,3.0149,3.104,3.0559,3.1965,3.2991,3.262,3.2862,3.2813,3.2001,3.1887,3.1887,3.1887,3.18,3.1778,3.1866,3.18,3.158,3.1193,3.1344,3.1197,3.075,3.0879,3.0625,2.9927,2.9927,2.9691,2.927,2.9822,3.0109,3.0162,3.063,3.0422,2.9633,2.8926,2.8235,2.7511,2.6872,2.6591,2.6591,2.6591,2.6591,2.6591,2.6591,2.6591,2.6536,2.6233,2.6104,2.6049,2.5737,2.5572,2.5517,2.5517,2.5242,2.4929,2.4929,2.4672,2.444,2.444,2.444,2.444,2.444,2.444,2.444,2.444,2.4134,2.3871,2.3871,2.3486,2.3266,2.3578,2.3504,2.3096,2.2314,2.2057,2.1925,2.1925,2.1508,2.1255,2.1306,2.0976,2.0793,2.0958,2.1324,2.1621,2.1695,2.1905,2.1802,2.1301,2.135,2.1146,2.0671,2.0871,2.0994,2.0994,2.1099,2.1105,2.1105,2.1105,2.1058,2.595,2.6605,2.7326,2.774,2.7914,2.8416,0.0,0.0,3.0014,3.0181,3.0776,3.12,3.0921,3.1636,3.1825,3.0608,3.1915,3.254,3.0922,3.2087,3.3054,3.2945,3.2923,3.2923,3.2923,3.2573,3.2486,3.2901,3.2551,3.1971,3.1164,3.1866,3.1698,3.049,3.1142,3.1476,3.1351,3.1373,3.1326,3.127,3.0651,2.9979,2.9223,2.8535,2.778,2.7008,2.6926,2.6818,2.6727,2.6646,2.6591,2.6591,2.6591,2.6591,2.6591,2.6591,2.6591,2.6591,2.6563,2.6518,2.6545,2.6463,2.6233,2.5921,2.5921,2.5645,2.5333,2.5333,2.5297,2.526,2.526,2.526,2.526,2.526,2.526,2.526,2.526,2.5223,2.5186,2.5186,2.4562,2.4067,2.4103,2.3468,2.3193,2.3828,2.3248,2.2767,2.2767,2.2089,2.1782,2.213,2.1819,2.1851,2.2565,2.3004,2.3394,2.3834,2.3871,2.3637,2.3026,2.2565,2.2089,2.1558,2.1418,2.1333,2.1333,2.1687,2.1873,2.1873,2.1873,2.1687,2.6977,2.785,2.8637,2.8833,2.9487,3.0229,3.0777,3.1192,3.1509,3.159,3.2075,3.2446,3.2323,3.2792,3.3052,0.0,3.324,3.3654,3.2886,3.3434,3.3923,3.3923,3.3923,3.3492,3.2388,3.2603,3.2666,3.2324,3.263,3.2633,3.2265,3.2606,3.2546,3.2007,3.2302,3.2223,3.1726,3.1168,3.0665,3.0201,2.9768,2.9387,2.9059,2.9195,2.8784,2.7994,2.8239,2.7949,2.7298,2.7298,2.7169,2.6967,2.6967,2.682,2.6591,2.6591,2.6591,2.6591,2.6591,2.6591,2.6591,2.6591,2.649,2.6361,2.6361,2.6068,2.5737,2.5737,2.5572,2.5388,2.5388,2.5388,2.5388,2.5388,2.5388,2.5388,2.5388,2.5388,2.5388,2.5388,2.5113,2.4966,2.5212,2.4764,2.4556,2.5176,2.3914,2.2913,2.2913,2.2803,2.2918,2.3369,2.3259,2.3272,2.362,2.3559,2.3596,2.3785,2.351,2.333,2.3295,2.3228,2.2952,2.2421,2.2519,2.2306,2.1751,2.2269,2.2521,2.2521,2.2521,2.2856,2.7783,2.8723,2.9578,2.984,3.0865,3.1804,3.1717,3.2263,3.2809,3.294,3.3246,3.3491,3.3491,3.3748,3.3906,3.3658,3.4128,3.4401,3.4149,3.4345,3.4507,3.4507,3.4507,3.384,3.2223,3.2819,3.3041,3.2517,3.2982,3.323,3.3144,3.309,3.2954,3.2763,3.258,3.2169,3.1567,3.0784,3.0286,3.0091,2.9755,2.9644,2.9789,2.9766,2.9475,2.9013,2.907,2.8726,2.8124,2.8014,2.7793,2.7536,2.7408,2.7132,2.6738,2.6628,2.6591,2.6591,2.6591,2.6591,2.6591,2.6591,2.6591,2.6591,2.6591,2.6398,2.6159,2.6159,2.5958,2.5737,2.5737,2.5737,2.5737,2.5737,2.5737,2.5737,2.5737,2.5645,2.5554,2.5554,2.548,2.548,2.5774,2.559,2.5499,2.5774,2.4556,2.3523,2.3285,2.3297,2.3468,2.381,2.3938,2.4048,2.4183,2.3987,2.3944,2.4182,2.3834,2.3734,2.4028,2.4079,2.3874,2.3374,2.3429,2.3259,2.2787,2.3247,2.3553,2.3737,2.3637,2.4107,2.7871,2.8723,2.9731,3.0624,3.1607,3.259,3.3508,3.3726,3.3879,3.4332,3.4441,3.4441,3.4441,3.4463,3.4183,3.3268,3.3903,3.4177,3.3261,3.3931,3.4507,3.4507,3.4507,3.4127,0.0,3.3507,3.3967,3.4391,3.4005,3.3636,3.3332,3.3127,3.2652,3.1851,3.1264,3.0958,3.093,3.0509,3.1001,3.2295,3.1437,3.1284,3.1629,2.9467,2.8678,2.8961,2.8171,2.8281,2.895,2.8535,2.837,2.8315,2.794,2.7536,2.7132,2.6719,2.6591,2.6591,2.6591,2.6591,2.6591,2.6591,2.6591,2.6591,2.6591,2.6573,2.6573,2.6573,2.6554,2.6554,2.6554,2.6554,2.6554,2.6554,2.6554,2.6554,2.6554,2.6251,2.5976,2.5976,2.5664,2.5407,2.5407,2.5407,2.5407,2.5407,2.537,2.504,2.4275,2.3413,2.2931,2.295,2.3279,2.373,2.4165,2.4544,2.5095,2.5866,2.5921,2.5921,2.5939,2.5433,2.4952,2.457,2.3973,2.4069,2.4816,2.4816,2.5194,2.5898,2.5509,2.5354,2.9159,3.0141,3.1127,3.2114,3.2857,3.3486,3.4141,3.4245,3.4288,3.4463,3.4507,3.4397,3.4098,3.4288,3.4292,3.3661,3.4072,3.4373,3.4093,3.4289,3.4507,3.4507,3.4507,0.0,0.0,0.0,0.0,3.36,3.4307,3.4684,3.4553,3.4819,3.4848,3.4587,3.4388,3.3957,3.3289,3.2542,3.2074,3.186,3.067,3.0198,3.0301,2.9561,2.9133,2.8993,2.9299,2.9232,2.9042,2.9434,2.9269,2.8792,2.895,2.8601,2.7958,2.7555,2.7224,2.6967,2.6683,2.6591,2.6591,2.6591,2.6591,2.6591,2.6591,2.6591,2.6591,2.6591,2.6591,2.6591,2.6591,2.6591,2.6591,2.6591,2.6591,2.6591,2.6591,2.6481,2.6398,2.6398,2.6306,2.6215,2.6215,2.5976,2.57,2.5443,2.5388,2.5388,2.537,2.5131,2.5051,2.5326,2.5491,2.5619,2.5792,2.5664,2.57,2.5976,2.5737,2.5719,2.6002,2.5834,2.573,2.5716,2.5524,2.5482,2.5617,2.5772,2.5969,2.6186,2.5772,2.5978,3.0122,3.1149,3.2132,3.312,3.3704,3.4141,3.4419,3.4507,3.4441,3.4266,3.4245,3.4119,3.3644,3.3545,3.3587,3.3759,3.3778,3.3954,3.4435,3.4507,3.455,3.4725,3.4747,3.484,0.0,0.0,0.0,3.3905,3.4876,3.5561,3.5736,3.572,3.5782,3.5984,3.5315,3.4652,3.4001,3.2753,3.1898,3.1422,3.0823,3.0492,3.033,2.9984,2.9654,2.9434,2.9672,2.9709,2.9654,3.0039,2.9965,2.9635,2.9776,2.9427,2.8803,2.8381,2.8069,2.7738,2.6885,2.6591,2.6591,2.6591,2.6591,2.6591,2.6591,2.6591,2.6591,2.6591,2.6591,2.6591,2.6591,2.6591,2.6591,2.6591,2.6729,2.6793,2.6793,2.6793,2.6793,2.6793,2.671,2.6591,2.6591,2.6398,2.6178,2.6068,2.6031,2.5976,2.5792,2.5774,2.5884,2.6141,2.6178,2.6178,2.6178,2.5921,2.5855,2.6002,2.5884,2.6013,2.6398,2.6591,2.671,2.6827,2.6701,2.6629,2.6648,2.6629,2.6701,2.6827,2.6403,2.6589,3.0756,3.1738,3.2726,3.3595,3.4185,3.4507,3.4507,3.4485,3.431,3.3857,3.3748,3.3595,0.0,0.0,3.2305,3.3546,3.3133,3.3076,3.4351,3.4528,3.4703,0.0,0.0,0.0,0.0,0.0,0.0,3.5343,0.0,3.6224,3.6675,3.5832,3.551,3.5961,3.4195,3.3205,3.3165,3.1318,3.0651,3.1114,3.1873,3.1996,3.1619,3.0637,3.0204,3.0167,2.9379,2.9721,3.0699,3.0369,3.0442,3.0717,3.0387,3.0033,2.9611,2.9225,2.906,2.8821,2.7251,2.671,2.6646,2.6591,2.6591,2.6591,2.6591,2.6591,2.6591,2.6591,2.6591,2.6591,2.6591,2.6591,2.6591,2.6591,2.6912,2.7206,2.7206,2.7224,2.7243,2.7243,2.693,2.6646,2.6646,2.6646,2.6802,2.7169,2.7243,2.682,2.5645,2.5517,2.5499,2.5462,2.5499,2.5517,2.5499,2.5517,2.5682,2.6076,2.6453,2.6811,2.7224,2.7591,2.7793,2.7793,2.7426,2.7426,2.7793,2.7426,2.7426,2.7775,2.7408,2.7243,3.2267,3.3224,3.4005,3.4245,3.4397,3.4507,3.4507,3.425,3.3835,3.3382,3.3273,3.301,3.2154,0.0,0.0,3.3289,3.3665,0.0,3.4915,3.5009,0.0,3.5743,0.0,3.5852,3.5983,3.6333,0.0,0.0,3.6631,3.6566,3.6697,3.6793,3.6881,3.6989,3.5535,3.4511,3.4072,3.1829,3.0891,3.1312,3.0922,3.0847,3.1002,3.0457,3.0204,3.0185,2.9984,2.9892,2.9959,3.0424,3.0534,3.0406,3.0882,3.0859,3.0455,3.0039,2.969,2.9354,2.8608,2.7995,2.7389,2.6774,2.6591,2.6591,2.6591,2.6591,2.6591,2.6591,2.6591,2.6591,2.6591,2.6591,2.6591,2.6591,2.6912,2.7206,2.7206,2.7444,2.7646,2.7646,2.7555,2.75,2.75,2.75,2.7518,2.7628,2.7646,2.7426,2.682,2.7004,2.6949,2.6361,2.6839,2.7059,2.6765,2.7022,2.7224,2.7316,2.7444,2.7536,2.7646,2.7738,2.7793,2.7793,2.7701,2.7701,2.7793,2.7701,2.7701,2.7793,2.7683,2.7812,3.3207,3.3945,3.4507,3.4507,3.4507,3.4376,3.3988,3.3661,3.3294,3.2569,3.2437,3.2263,3.1691,3.217,3.2712,0.0,0.0,0.0,3.4989,3.4869,3.5129,0.0,3.6883,0.0,3.7657,3.8215,3.8634,0.0,3.7934,3.7309,3.7309,3.7317,3.7437,3.7702,3.6262,3.5185,3.4472,3.313,3.2166,3.154,3.1258,3.0916,3.0534,3.0662,3.0626,3.0461,0.0,3.0455,3.0418,3.0712,3.0754,3.0754,3.1212,3.1281,3.1061,3.0791,3.0571,3.0308,2.9709,2.9214,2.8711,2.7691,2.738,2.738,2.738,2.7279,2.7132,2.7132,2.7004,2.6811,2.6655,2.6591,2.6591,2.6591,2.6912,2.7261,2.7426,2.7646,2.7793,2.7793,2.7793,2.7793,2.7793,2.7793,2.7848,2.805,2.8069,2.7995,2.7775,2.7775,2.7628,2.7169,2.7536,2.7701,2.7481,2.7665,2.7793,2.7793,2.7977,2.8069,2.8069,2.8234,2.8417,2.8583,2.8417,2.8417,2.8583,2.8417,2.8326,2.8326,2.8326,2.8454,3.377,3.4207,3.4507,3.4507,3.4441,3.4185,3.3294,3.3054,3.2726,3.1691,3.156,3.1582,3.1516,3.1386,3.1662,3.2904,0.0,3.2369,3.494,3.479,3.5203,3.7369,3.8282,3.9085,3.9941,4.0555,4.0938,4.1007,3.9492,3.8486,3.8358,3.7739,3.7571,3.7901,3.6607,3.5423,3.4396,3.4334,3.3427,3.1757,3.2044,3.1596,3.0534,3.1231,3.1359,3.1029,0.0,0.0,3.1465,3.1061,3.1098,3.141,3.141,3.141,3.141,3.141,3.141,3.1318,3.0589,3.0314,3.0075,2.8865,2.848,2.848,2.848,2.8252,2.7958,2.7958,2.7701,2.7371,2.7022,2.6903,2.6912,2.683,2.7151,2.7518,2.7738,2.7793,2.7812,2.7867,2.7885,2.7903,2.794,2.7958,2.8087,2.8425,2.848,2.848,2.848,2.8179,2.7922,2.7812,2.7885,2.794,2.7885,2.7922,2.7958,2.7958,2.8307,2.8498,2.8553,2.8883,2.9243,2.9592,2.9262,2.9225,2.9519,2.9225,2.9097,2.9097,2.9097,2.9115,3.4245,3.4441,3.4507,3.4507,3.4229,3.377,3.3229,3.2792,3.2245,3.1214,3.132,3.1473,3.1083,3.1658,3.2393,3.2984,3.322,3.3917,3.562,3.653,3.7466,0.0,3.981,4.0525,4.0709,0.0,0.0,0.0,0.0,4.0595,3.964,3.8897,3.8044,3.6989,3.6623,3.5437,3.3309,3.2874,3.2445,3.1949,3.1685,3.1792,3.2184,3.2313,3.2349,3.2258,3.1946,0.0,3.1873,3.1451,3.1355,3.141,3.141,3.141,3.141,3.141,3.141,3.1391,3.1263,3.0956,3.0479,2.9299,2.8913,2.8913,2.8913,2.8858,2.8803,2.8803,2.8748,2.8674,2.8619,2.8572,2.848,2.8168,2.8417,2.8528,2.7922,2.7793,2.7903,2.8223,2.8278,2.8388,2.8718,2.8803,2.8821,2.8895,2.8913,2.8913,2.8913,2.884,2.8546,2.7867,2.8399,2.8674,2.8315,2.8619,2.8803,2.8803,2.8876,2.906,2.939,2.9464,2.9537,2.9592,2.9537,2.9372,2.9115,2.9372,2.9501,2.9501,2.9501,2.9654,3.4441,3.4507,3.4507,3.4507,3.4362,3.3962,3.2967,3.2775,3.2532,3.1502,3.1728,3.2087,3.2087,3.2715,3.3413,3.3911,3.3954,3.4637,3.6677,3.7231,3.8051,3.9779,4.1046,4.1893,0.0,0.0,0.0,0.0,0.0,4.1992,4.0864,4.0468,3.9685,3.8458,3.7991,3.7212,3.6017,3.4644,3.3782,3.3382,3.3011,3.273,3.2606,3.2826,3.2918,3.2918,3.2936,0.0,3.2606,3.2415,3.2347,3.2347,3.2347,3.2315,3.231,3.2516,3.2296,3.1998,3.246,3.2017,3.127,3.0878,3.0106,2.9384,2.9756,2.9742,2.9642,3.0027,2.9994,2.9789,2.9565,2.9538,2.9423,2.906,2.9142,2.9207,2.8821,2.8913,2.906,2.9042,2.9177,2.9324,2.9317,2.9501,2.9617,2.9617,2.9464,2.939,2.958,2.9445,2.9097,2.8491,2.8968,2.9243,2.9042,2.9379,2.9617,2.9617,2.9617,2.9709,2.9892,2.9892,3.0033,3.0235,3.0204,3.0143,2.9959,3.0143,3.0125,2.9892,2.9892,3.0002,3.4875,3.4875,3.4875,3.4875,3.4739,3.4305,3.3019,3.2987,3.2944,3.2051,3.2305,3.281,3.329,3.3703,3.4211,3.486,3.4641,3.5191,3.7478,3.7843,3.8669,0.0,4.2185,0.0,4.3467,0.0,0.0,0.0,0.0,0.0,4.1804,4.175,4.1351,4.0516,3.9818,3.9198,3.861,3.6781,3.5461,3.4613,3.4296,3.379,3.3099,3.3397,3.3563,3.3597,3.3904,0.0,0.0,3.3472,3.3438,3.3419,3.3344,3.3265,3.325,3.3572,3.3288,3.2781,3.3458,3.3003,3.2137,3.2459,3.1358,3.0038,3.0617,3.0548,3.044,3.1016,3.0895,3.0543,3.0233,3.0154,3.011,2.9841,2.9682,2.9592,2.9592,2.9794,2.9874,2.9647,2.9868,2.9984,2.9776,2.9984,3.0204,3.0204,2.991,2.9819,3.0167,2.991,2.9629,2.9299,2.9556,2.9739,2.9739,3.002,3.0204,3.0204,3.0204,3.0241,3.0314,3.0241,3.0387,3.0791,3.0699,3.0699,3.0791,3.0791,3.0717,3.0589,3.0497,3.0461,3.6141,3.6141,3.6141,3.6141,3.5462,3.4618,3.3996,3.3492,3.3036,3.2535,3.2786,3.3313,3.3843,3.3981,3.4303,3.5271,3.5397,3.5921,3.7563,3.9087,4.0434,4.1573,0.0,0.0,4.4223,0.0,0.0,0.0,0.0,0.0,4.2319,4.2224,4.2192,4.2097,4.1616,4.0306,3.8089,3.7433,3.6176,3.4336,3.4303,3.441,3.4705,3.4743,3.4762,3.4762,3.4796,0.0,0.0,3.4357,3.4221,3.4183,3.3804,3.3634,3.3648,3.3686,3.3648,3.3591,3.3667,3.3382,3.2984,3.3022,3.2106,3.0981,3.1049,3.103,3.1011,3.108,3.0907,3.0685,3.0648,3.0692,3.072,3.0688,3.0125,2.9592,2.9592,2.9354,2.9225,2.9537,2.9629,2.9776,3.0094,3.0167,3.0204,3.0204,3.0167,3.0167,3.0204,3.0167,3.013,3.0094,3.0112,3.0149,3.0149,3.0185,3.0204,3.0204,3.0204,3.0369,3.0717,3.0387,3.0387,3.0791,3.0442,3.0424,3.0791,3.0791,3.1157,3.1836,3.1451,3.13,3.6213,3.6305,3.6305,3.6305,3.5786,3.5139,3.4604,3.4316,3.4092,3.3904,3.4046,3.4423,3.5299,3.5179,3.5297,3.6362,3.6528,3.6953,3.8225,3.9513,4.0731,4.178,4.3041,0.0,0.0,0.0,0.0,0.0,0.0,0.0,4.4498,4.3844,4.3137,4.2325,4.1009,3.9602,3.807,3.6532,3.5526,3.4997,3.4793,3.4751,3.4921,3.4921,3.4921,3.4921,3.5162,0.0,0.0,3.4971,3.4997,3.5031,3.4858,3.4749,3.4757,3.5008,3.4757,3.439,3.4911,3.4487,3.3733,3.3985,3.3335,3.25,3.2561,3.2594,3.2657,3.2847,3.302,3.2982,3.2452,3.22,3.2061,3.2061,3.1501,3.0995,3.0995,3.0709,3.0437,3.0345,3.0529,3.0675,3.0571,3.0754,3.0901,3.0901,3.0717,3.0644,3.0882,3.0699,3.0754,3.1231,3.0846,3.0644,3.0882,3.1139,3.1286,3.1286,3.1286,3.1249,3.1139,3.1024,3.1006,3.1171,3.0992,3.0992,3.1171,3.1171,3.1336,3.1616,3.1469,3.1396,3.6657,3.6796,3.6796,3.6796,3.6432,3.5941,3.5397,3.5151,3.5039,3.5039,3.5039,3.5352,3.6435,3.6338,3.6386,3.7276,3.7421,3.7805,3.8912,3.9826,4.0787,4.1875,0.0,0.0,0.0,0.0,0.0,0.0,0.0,0.0,0.0,4.5181,4.4262,4.3158,4.1307,3.9788,3.8717,3.677,3.5737,3.5641,3.5367,3.523,3.523,3.523,3.523,3.523,0.0,0.0,0.0,3.5538,3.5641,3.5641,3.5641,3.5602,3.5605,3.5918,3.5625,3.5176,3.5801,3.541,3.4687,3.5,3.4687,3.4173,3.4257,3.394,3.3598,3.3823,3.4037,3.4057,3.3463,3.3136,3.2982,3.3116,3.2706,3.2257,3.2257,3.1952,3.1662,3.1495,3.1603,3.1667,3.1552,3.1658,3.1744,3.1744,3.1506,3.1414,3.174,3.1506,3.1543,3.2129,3.1671,3.1433,3.1708,3.2001,3.2184,3.2184,3.2184,3.2001,3.1579,3.1593,3.1538,3.141,3.141,3.1465,3.1593,3.1593,3.1689,3.1928,3.1946,3.1946,3.7829,3.7974,3.7974,3.7974,3.7589,3.7036,3.6531,3.5953,3.5592,3.5592,3.5592,3.593,3.6988,3.718,3.7348,3.7904,3.8,3.8385,3.9441,4.0066,4.0787,0.0,0.0,0.0,0.0,0.0,0.0,0.0,0.0,0.0,0.0,4.5878,4.5638,4.5077,4.3245,4.1601,4.0192,3.875,3.7361,3.5982,3.5982,3.5982,3.5982,3.5982,3.5982,0.0,0.0,0.0,0.0,3.5982,3.5982,3.5982,3.5982,3.5982,3.5982,3.5982,3.5982,3.5982,3.6016,3.5982,3.5962,3.5996,3.5962,3.5962,3.5962,3.4752,3.3386,3.3406,3.3216,3.3014,3.3114,3.3112,3.3206,3.3591,3.3363,3.3079,3.3079,3.2725,3.2535,3.2984,3.2767,3.2637,3.3113,3.2855,3.2588,3.2588,3.257,3.257,3.2588,3.257,3.257,3.2588,3.2588,3.257,3.2588,3.2588,3.2588,3.2588,3.2588,3.2404,3.2019,3.2001,3.1799,3.1428,3.141,3.1612,3.2001,3.2001,3.2423,3.3177,3.3177,3.3177,3.6867,3.7156,3.7348,3.6988,3.6771,3.6603,3.6435,3.6266,3.6266,3.6627,3.6411,3.6483,3.7541,3.7445,3.7613,3.8888,3.9104,3.9345,4.0042,0.0,0.0,4.2452,4.4281,0.0,0.0,0.0,0.0,0.0,0.0,0.0,0.0,4.5691,4.4259,4.2745,4.1857,4.0266,3.7827,3.705,3.6437,3.5982,3.5982,3.6172,3.6465,3.6465,0.0,0.0,0.0,0.0,0.0,3.5982,3.5982,3.5982,3.5982,3.5982,3.5982,3.5982,3.5982,3.5982,3.5982,3.5982,3.5982,3.5982,3.5982,3.5982,3.5982,3.5591,3.5162,3.5162,3.47,3.4251,3.4599,3.445,3.4237,3.434,3.4118,3.3858,3.3858,3.3565,3.3279,3.3181,3.3086,3.2958,3.2803,3.2688,3.2588,3.2588,3.2588,3.2588,3.2588,3.2588,3.2698,3.2991,3.3028,3.3028,3.3028,3.3028,3.3028,3.3028,3.3028,3.2845,3.2423,3.2404,3.2349,3.2221,3.2203,3.2423,3.2811,3.2811,3.3067,3.3633,3.3633,3.3633,3.6362,3.6651,3.6867,3.6723,3.6699,3.6699,3.6699,3.6699,3.6795,3.7132,3.694,3.6964,3.7856,3.7735,3.7902,3.9104,3.932,3.9633,4.0571,0.0,0.0,4.3241,0.0,0.0,0.0,0.0,0.0,0.0,0.0,0.0,0.0,4.4923,4.3114,4.1336,4.0715,3.955,3.7742,3.674,3.6269,3.6269,3.6094,3.6152,3.6426,3.6636,0.0,0.0,0.0,0.0,0.0,3.6333,3.6309,3.6021,3.6367,3.6406,3.6269,3.6269,3.6269,3.625,3.604,3.5982,3.5982,3.5982,3.5982,3.5982,3.5982,3.5982,3.5982,3.5982,3.5625,3.5254,3.5547,3.541,3.5195,3.5195,3.4912,3.4663,3.4663,3.433,3.4074,3.4046,3.3899,3.3788,3.3704,3.3554,3.3419,3.3302,3.3302,3.3216,3.3046,3.3046,3.3156,3.3379,3.3415,3.3415,3.3415,3.3415,3.3415,3.3415,3.3415,3.3266,3.2845,3.2973,3.2991,3.2845,3.2973,3.3175,3.3415,3.3415,3.347,3.3596,3.3743,3.3817,0.0,3.6314,3.6459,3.6916,3.7084,3.7132,3.7132,3.7204,0.0,3.7252,3.7252,3.7421,3.7976,3.8048,3.819,3.8836,3.8933,3.9465,0.0,4.1779,0.0,0.0,0.0,0.0,0.0,0.0,0.0,0.0,0.0,0.0,0.0,4.369,4.2228,4.0835,3.9853,3.935,3.9274,3.7569,3.6714,3.6753,3.6269,3.6094,3.6138,3.6582,0.0,0.0,0.0,0.0,0.0,3.6973,3.6836,3.6157,3.6992,3.7051,3.6753,3.6753,3.6734,3.6656,3.6211,3.6035,3.5982,3.5982,3.5982,3.5982,3.5982,3.5982,3.5982,3.5982,3.5982,3.5982,3.5982,3.5982,3.5982,3.5982,3.5723,3.543,3.543,3.5098,3.4922,3.5318,3.5094,3.4974,3.5378,3.5162,3.4784,3.4474,3.4439,3.4301,3.3886,3.3851,3.3851,3.3817,3.3817,3.3817,3.3817,3.3817,3.3817,3.3817,3.3817,3.3651,3.3251,3.358,3.3599,3.3232,3.3633,3.3817,3.3817,3.3817,3.3633,3.3232,3.3651,3.3817,3.5135,0.0,3.5712,3.5424,3.5977,3.6603,0.0,3.7204,3.7808,3.7808,3.7808,3.7974,3.8527,3.8262,3.8602,4.0331,4.0282,4.0427,4.1658,0.0,0.0,0.0,0.0,0.0,0.0,0.0,0.0,0.0,0.0,0.0,0.0,4.2123,4.1155,4.08,3.9493,3.8644,3.8272,3.7206,3.6871,3.7148,3.6753,3.6855,3.7445,3.7578,0.0,0.0,0.0,0.0,3.7012,3.7226,3.7187,3.7012,3.7226,3.7226,3.7148,3.7148,3.6953,3.6695,3.6577,3.6289,3.5982,3.5982,3.5982,3.5982,3.5982,3.5982,3.5982,3.5982,3.5982,3.5982,3.5982,3.5982,3.5982,3.5982,3.5937,3.5879,3.5879,3.5781,3.5641,3.552,3.5403,3.5252,3.5074,3.4956,3.4887,3.4784,3.4784,3.4646,3.4301,3.4267,3.4128,3.3851,3.3817,3.3817,3.3817,3.3817,3.3817,3.3817,3.3817,3.378,3.3635,3.3762,3.378,3.367,3.3762,3.3817,3.3817,3.3817,3.3762,3.3635,3.378,3.3817,3.4799,3.5376,3.5978,3.5904,3.6531,3.7204,3.7469,3.7757,3.8,3.8,3.8,3.8142,3.8719,3.8575,3.8984,4.0884,4.0956,0.0,0.0,0.0,0.0,0.0,0.0,0.0,0.0,0.0,0.0,0.0,0.0,0.0,0.0,4.1594,4.0499,3.9802,3.9658,3.9161,3.8223,3.7578,3.7363,3.7578,3.7168,3.7187,3.7637,3.7796,3.7777,0.0,0.0,0.0,3.7324,3.7715,3.7656,3.7344,3.7734,3.7754,3.7578,3.7578,3.7441,3.7226,3.7031,3.6797,3.6582,3.6387,3.6309,3.6289,3.6074,3.6152,3.6269,3.604,3.5982,3.5982,3.5982,3.5982,3.5982,3.5982,3.5982,3.5982,3.5982,3.5982,3.5947,3.5743,3.5709,3.5641,3.5436,3.5401,3.5367,3.5196,3.5162,3.499,3.4474,3.4405,3.4232,3.3851,3.3817,3.3817,3.3817,3.3817,3.3817,3.3817,3.3817,3.3817,3.3817,3.3817,3.3817,3.3817,3.3817,3.3725,3.3541,3.3725,3.3725,3.3541,3.3725,3.3817,3.4991,3.5833,3.6699,3.6892,3.7469,3.8094,3.8479,3.8262,3.8024,3.8121,3.8118,3.831,3.8936,3.8984,3.9465,4.1052,0.0,0.0,4.4869,4.5614,0.0,0.0,0.0,0.0,0.0,0.0,0.0,0.0,0.0,4.1785,0.0,4.1806,4.0463,3.8991,4.0141,4.0105,3.8611,3.8144,3.7933,3.7991,3.7598,3.7422,3.75,3.7851,3.7832,0.0,0.0,0.0,3.7539,3.8317,3.8144,3.7559,3.8317,3.8359,3.8027,3.8027,3.7913,3.7738,3.7344,3.7246,3.7246,3.691,3.6792,3.6734,3.6328,3.6465,3.6734,3.6309,3.6177,3.6157,3.6133,3.6113,3.6094,3.6001,3.5982,3.5982,3.5982,3.5982,3.5982,3.5982,3.5982,3.5982,3.5982,3.5982,3.5879,3.5606,3.5572,3.5333,3.4646,3.4577,3.4405,3.4024,3.399,3.399,3.399,3.399,3.399,3.399,3.3851,3.3817,3.3817,3.3817,3.3817,3.3817,3.3817,3.3651,3.3287,3.3617,3.3599,3.3287,3.3617,3.3853,3.593,3.694,3.7445,3.617,3.6916,3.7904,3.7517,3.7709,3.8118,3.8599,3.8695,3.8984,3.997,3.9777,3.9994,0.0,0.0,4.377,0.0,0.0,0.0,0.0,0.0,0.0,0.0,0.0,0.0,0.0,0.0,0.0,0.0,4.2788,4.1982,4.0535,4.0657,4.0105,3.8611,3.8144,3.8105,3.8513,3.8027,3.8027,3.8379,3.8437,3.8474,0.0,0.0,3.8532,3.8435,3.8552,3.8532,3.8435,3.8552,3.8571,3.8476,3.8476,3.8008,3.7324,3.6949,3.7047,3.7285,3.7226,3.7207,3.7187,3.7129,3.7148,3.7187,3.7109,3.7109,3.7012,3.6695,3.6597,3.6484,3.6079,3.5982,3.5982,3.5982,3.5982,3.5982,3.5982,3.5982,3.5982,3.5982,3.5982,3.5982,3.5913,3.5913,3.5777,3.5367,3.5333,3.5162,3.4784,3.4749,3.4749,3.4749,3.4749,3.4749,3.4749,3.4163,3.3817,3.3817,3.3817,3.3817,3.3817,3.3817,3.378,3.3725,3.378,3.378,3.3725,3.378,3.3982,3.5328,3.6531,3.7372,3.6651,3.7878,3.9224,3.8984,3.8888,3.8936,3.92,3.9248,3.9489,4.0258,4.0186,4.0643,4.2495,0.0,0.0,0.0,0.0,0.0,0.0,0.0,0.0,0.0,0.0,0.0,0.0,0.0,0.0,4.4195,0.0,4.2333,4.0835,4.08,4.0105,3.8611,3.8379,3.8379,3.8611,3.8379,3.8379,3.8611,3.8611,3.8611,3.8611,0.0,3.8611,3.8611,3.8611,3.8611,3.8611,3.8611,3.8611,3.8611,3.8611,3.8356,3.8005,3.7809,3.7868,3.7949,3.7715,3.7637,3.7598,3.7363,3.7461,3.7637,3.7637,3.748,3.7246,3.7051,3.7012,3.6953,3.6758,3.6719,3.6641,3.6426,3.6367,3.6309,3.604,3.5982,3.5982,3.5982,3.5982,3.5982,3.5982,3.5982,3.5879,3.5538,3.5523,3.5333,3.4956,3.4921,3.4818,3.4646,3.4646,3.4646,3.4646,3.4474,3.4232,3.3817,3.4024,3.4024,3.3817,3.3817,3.3817,3.3817,3.4024,3.4128,3.4128,3.4559,3.4869,3.4991,3.617,3.7252,3.7517,3.8815,4.009,4.0331,3.9994,3.9681,3.9922,3.997,4.009,4.0499,4.0912,0.0,4.3241,4.4941,0.0,0.0,0.0,0.0,0.0,0.0,0.0,0.0,0.0,0.0,0.0,0.0,0.0,4.521,4.3828,4.2333,4.0835,4.08,4.0105,3.8611,3.8611,3.8611,3.8611,3.8611,3.8611,3.8611,3.8611,3.8611,3.8611,3.8611,3.8611,3.8611,3.8611,3.8611,3.8611,3.8611,3.8611,3.8591,3.8457,3.8532,3.8591,3.8457,3.8496,3.8552,3.8184,3.8086,3.8008,3.7695,3.7812,3.8086,3.8086,3.7851,3.7578,3.7461,3.7441,3.7422,3.7324,3.7305,3.7207,3.6929,3.6851,3.6734,3.625,3.6172,3.6133,3.6001,3.5982,3.5982,3.5982,3.5982,3.5913,3.5641,3.5606,3.5504,3.5196,3.5162,3.5059,3.4784,3.4784,3.4749,3.4646,3.4646,3.4405,3.3817,3.4094,3.4128,3.3817,3.3817,3.3817,3.3817,3.4198,3.4461,3.4554,3.5255,3.5695,3.6002,3.6723,3.7445,3.8455,3.8788,3.92,4.0162,3.9994,3.9874,4.086,4.1076,4.1105,4.1153,4.2356,4.3391,4.3481,4.5285,0.0,0.0,0.0,0.0,0.0,0.0,0.0,0.0,0.0,0.0,0.0,0.0,0.0,4.521,4.3828,4.2333,4.0835,4.08,4.0105,3.8611,3.8611,3.8611,3.8611,3.8611,3.8611,3.8611,3.8611,3.8611,3.8611,3.8611,3.8611,3.8611,3.8611,3.8611,3.8611,3.8611,3.8611,3.8571,3.8125,3.8223,3.8552,3.8105,3.8242,3.8611,3.8571,3.8571,3.8552,3.8532,3.8532,3.8571,3.8571,3.8532,3.8435,3.7988,3.7835,3.7738,3.7383,3.7305,3.7285,3.7266,3.7246,3.7129,3.6734,3.6656,3.6484,3.6094,3.5982,3.5982,3.5982,3.5982,3.5982,3.5947,3.5947,3.5947,3.5913,3.5913,3.5913,3.5879,3.5879,3.5743,3.5436,3.4439,3.3851,3.3817,3.3817,3.3817,3.3817,3.3817,3.3817,3.3817,3.4198,3.461,3.4965,3.5387,3.5979,3.5208,3.629,3.7372,3.8118,3.8815,3.9585,4.0643,4.098,4.1321,4.2043,4.1923,4.1706,4.1706,0.0,4.3295,4.3883,4.5229,0.0,0.0,0.0,0.0,0.0,0.0,0.0,0.0,0.0,0.0,0.0,0.0,0.0,0.0,4.2438,4.1403,4.08,3.991,3.9172,3.8611,3.8611,3.8611,3.8611,3.8611,3.8611,3.8611,3.8611,3.8611,3.8611,3.8611,3.8611,3.8611,3.8611,3.8611,3.8611,3.8611,3.8611,3.8591,3.8398,3.8437,3.8591,3.8379,3.8437,3.8611,3.8611,3.8611,3.8611,3.8611,3.8611,3.8611,3.8611,3.8611,3.8571,3.8379,3.832,3.8281,3.8125,3.8086,3.8008,3.7754,3.7676,3.7559,3.7148,3.7051,3.7012,3.6836,3.6601,3.6426,3.6426,3.6191,3.5982,3.5982,3.5982,3.5982,3.5982,3.5811,3.5675,3.5675,3.547,3.5264,3.5127,3.4956,3.4646,3.4198,3.437,3.4405,3.4163,3.437,3.4474,3.4474,3.4887,3.5287,3.5721,3.6339,3.6939,3.5109,3.6057,3.7091,3.8038,3.8704,3.9471,4.0542,4.1558,4.2452,4.312,4.2741,4.2308,4.2452,4.2789,0.0,0.0,0.0,0.0,0.0,0.0,0.0,0.0,0.0,0.0,0.0,0.0,0.0,0.0,0.0,0.0,0.0,4.0906,4.0105,4.0105,3.9136,3.8611,3.8611,3.8611,3.8611,3.8611,3.8611,3.8611,3.8611,3.8611,3.8689,3.8769,3.8669,3.8767,3.8984,3.8828,3.8769,3.8787,3.8669,3.8611,3.8611,3.8611,3.8611,3.8611,3.8611,3.8611,3.8611,3.8611,3.8611,3.8611,3.8611,3.8611,3.8611,3.8611,3.8611,3.8611,3.8611,3.8611,3.8611,3.8611,3.8611,3.8496,3.8203,3.8125,3.8008,3.7578,3.75,3.7461,3.7324,3.7051,3.6851,3.6734,3.6523,3.6367,3.625,3.6348,3.6367,3.623,3.5855,3.566,3.566,3.5401,3.5264,3.5264,3.5401,3.5196,3.4577,3.4784,3.4784,3.4543,3.495,3.5111,3.5111,3.5624,3.6085,3.6544,3.7187,3.7715,3.6055,3.6268,3.6533,3.8346,3.8531,3.8582,3.9678,4.1428,4.3072,4.41,4.3505,4.2958,4.3433,4.3475,0.0,0.0,0.0,0.0,0.0,0.0,0.0,0.0,0.0,0.0,0.0,0.0,0.0,0.0,0.0,0.0,0.0,3.9369,3.8611,3.8611,3.8611,3.8611,3.8611,3.8611,3.8611,3.8611,3.8611,3.8611,3.8611,3.8611,3.8809,3.918,3.8769,3.9119,3.9863,3.9394,3.9199,3.916,3.8787,3.8611,3.8611,3.8611,3.8611,3.8611,3.863,3.863,3.863,3.863,3.863,3.863,3.8611,3.8611,3.8611,3.8611,3.8611,3.8611,3.8611,3.8611,3.8611,3.8611,3.8611,3.8611,3.8611,3.8611,3.8437,3.8008,3.7894,3.7757,3.7383,3.7305,3.7168,3.6773,3.7031,3.7148,3.6773,3.7031,3.7148,3.6753,3.6289,3.6001,3.6001,3.6035,3.6035,3.6035,3.5675,3.5299,3.4921,3.4921,3.4921,3.4921,3.5373,3.5616,3.5635,3.6332,3.6932,3.7427,3.775,3.8164,3.5853,3.6633,3.7426,3.7476,3.847,3.9723,4.0831,4.1808,4.2919,4.4537,4.434,4.3883,4.4051,4.2694,0.0,0.0,0.0,0.0,0.0,0.0,0.0,0.0,0.0,0.0,0.0,0.0,0.0,0.0,0.0,0.0,0.0,3.8865,3.8611,3.8611,3.8611,3.8611,3.8611,3.8611,3.8611,3.8611,3.8611,3.8611,3.8611,3.8611,3.8809,3.9199,3.9062,3.9355,3.9863,3.9394,3.9199,3.916,3.8787,3.8611,3.865,3.8906,3.9004,3.9062,3.9394,3.9512,3.9512,3.9512,3.9512,3.9434,3.9121,3.9004,3.8965,3.8689,3.8611,3.8611,3.8611,3.8611,3.8611,3.8611,3.8611,3.8611,3.8611,3.8611,3.8571,3.8418,3.8379,3.834,3.8223,3.7949,3.7695,3.7578,3.7402,3.7246,3.7129,3.7226,3.7246,3.7129,3.6992,3.6914,3.6914,3.6641,3.6484,3.6484,3.6089,3.5675,3.5333,3.5586,3.5739,3.5739,3.644,3.6793,3.6793,3.7015,3.7342,3.775,3.7858,3.8164,3.5614,3.6118,3.6759,3.7174,3.8223,3.9687,4.1954,4.3279,4.4071,4.4235,4.4018,4.3679,4.3293,4.1542,0.0,0.0,0.0,0.0,0.0,0.0,0.0,0.0,0.0,0.0,0.0,0.0,0.0,0.0,0.0,0.0,0.0,3.8611,3.8611,3.8611,3.8611,3.8611,3.8611,3.8611,3.8611,3.8611,3.8611,3.8611,3.8611,3.8787,3.9062,3.9492,3.9844,4.0039,4.0117,3.9668,3.957,3.9668,3.9062,3.8945,3.9141,3.9375,3.9473,3.9512,3.9805,3.9902,3.9902,3.9902,3.9766,3.957,3.9297,3.9082,3.8906,3.8689,3.8611,3.8611,3.8611,3.8611,3.8611,3.8611,3.8611,3.8611,3.8611,3.8611,3.8611,3.8611,3.8611,3.8611,3.8611,3.8359,3.8125,3.7913,3.7715,3.7617,3.7793,3.7656,3.7539,3.7539,3.7402,3.7305,3.7305,3.707,3.6949,3.6949,3.668,3.642,3.6212,3.6309,3.6425,3.6545,3.7218,3.7539,3.7539,3.7715,3.793,3.8184,3.8184,3.832,3.5489,3.5261,3.5235,3.7151,3.791,3.9079,4.2429,4.4925,4.5917,4.3671,4.313,4.2726,4.1781,4.0377,0.0,0.0,0.0,0.0,0.0,0.0,0.0,0.0,0.0,0.0,0.0,0.0,0.0,0.0,0.0,0.0,0.0,3.8611,3.8611,3.8611,3.8611,3.8611,3.8611,3.8611,3.8611,3.8611,3.8611,3.8611,3.863,3.8965,3.9414,3.9941,4.0762,4.0918,4.0547,4.0117,4.0176,4.043,3.959,3.9531,3.9902,3.9941,3.9961,3.9961,4.0,4.0019,4.0019,4.0019,3.9726,3.9375,3.9336,3.9023,3.8728,3.8689,3.865,3.8611,3.8611,3.8611,3.8611,3.8611,3.8611,3.863,3.8669,3.865,3.863,3.8669,3.865,3.8611,3.8611,3.8611,3.8474,3.8047,3.7952,3.8125,3.8552,3.8223,3.7952,3.7952,3.7637,3.7422,3.7422,3.7383,3.7344,3.7344,3.7324,3.7324,3.7344,3.6992,3.6973,3.7344,3.7773,3.7952,3.7952,3.8379,3.8611,3.8611,3.8611,3.8611,3.5957,3.6016,3.5965,3.5817,3.8123,4.0126,3.8959,4.2267,4.5468,4.4926,4.3567,4.2278,4.1689,4.0396,0.0,0.0,0.0,0.0,0.0,0.0,0.0,0.0,0.0,0.0,0.0,0.0,0.0,0.0,0.0,0.0,3.8611,3.8611,3.8611,3.8611,3.8611,3.8611,3.8611,3.8611,3.8611,0.0,3.8611,3.8611,3.8611,3.8708,3.9141,3.9922,4.0449,4.0801,4.0996,4.0566,4.0411,4.043,3.9961,3.9805,3.9941,4.0273,4.0391,4.043,4.0781,4.0937,4.0937,4.0937,4.084,4.0684,4.0332,3.9941,3.9531,3.916,3.8828,3.8611,3.8611,3.8611,3.8611,3.8611,3.8611,3.8708,3.9004,3.8809,3.8708,3.9004,3.8809,3.8611,3.8611,3.8611,3.8591,3.8457,3.8437,3.8513,3.8591,3.8496,3.8437,3.8437,3.8359,3.8337,3.8337,3.7988,3.7793,3.7793,3.748,3.7441,3.7773,3.7695,3.7695,3.7793,3.8223,3.8437,3.8437,3.8571,3.8611,3.8611,3.8611,3.8611,3.5119,3.57,3.6508,3.6794,3.8073,3.9301,3.9344,4.0787,4.2255,4.2748,4.2025,4.093,3.9744,0.0,0.0,0.0,0.0,0.0,0.0,0.0,0.0,0.0,0.0,0.0,0.0,0.0,0.0,0.0,0.0,3.8611,3.8611,3.8611,3.8611,3.8611,3.8611,3.8611,3.8611,3.8611,3.8708,3.8887,3.8887,3.8984,3.9199,3.8984,3.9355,4.0215,4.043,4.0781,4.1172,4.0703,4.0644,4.0781,4.0371,4.0312,4.0527,4.0762,4.084,4.0859,4.1132,4.1211,4.1211,4.1211,4.1035,4.082,4.0547,4.0234,3.9844,3.9609,3.9219,3.8926,3.9141,3.9043,3.8926,3.916,3.9043,3.8926,3.916,3.9199,3.9277,3.9492,3.918,3.8887,3.8887,3.8747,3.8611,3.8611,3.8611,3.8611,3.8611,3.8611,3.8611,3.8611,3.8611,3.8611,3.8611,3.8359,3.8242,3.8242,3.8027,3.8008,3.8223,3.8242,3.8242,3.8242,3.8493,3.8611,3.8611,3.8611,3.8611,3.8611,3.8611,3.8611,3.4274,3.5074,3.648,3.7811,3.778,3.8026,4.0265,3.9774,3.9042,3.961,3.9745,3.9257,3.7512,0.0,0.0,0.0,0.0,0.0,0.0,0.0,0.0,0.0,0.0,0.0,0.0,0.0,0.0,0.0,0.0,3.8571,3.8476,3.8457,3.8457,3.8457,3.8457,3.8532,3.8611,3.8611,3.8789,3.9199,3.9199,3.9394,3.9766,3.9375,3.9687,4.0489,4.0489,4.0781,4.1191,4.0781,4.084,4.1172,4.0781,4.0859,4.1211,4.1211,4.1211,4.1211,4.1211,4.1211,4.1211,4.1211,4.0937,4.0644,4.0644,4.0332,4.0,4.0,3.9668,3.9414,3.9805,3.9609,3.9414,3.9805,3.9668,3.9434,3.9434,3.9668,3.9902,3.9902,3.9453,3.9101,3.9101,3.8809,3.8611,3.8611,3.8611,3.8611,3.8611,3.8611,3.8611,3.8611,3.8611,3.8611,3.8611,3.8611,3.8611,3.8611,3.8611,3.8611,3.8611,3.8611,3.8611,3.8611,3.8611,3.8611,3.8611,3.8611,3.8611,3.8611,3.8611,3.8611,3.5143,3.4884,3.4882,3.5631,3.6977,3.7962,3.7468,3.8696,3.9555,0.0,3.7976,3.7925,0.0,0.0,0.0,0.0,0.0,0.0,0.0,0.0,0.0,0.0,0.0,0.0,0.0,0.0,0.0,0.0,3.8611,3.8418,3.8027,3.7972,3.7972,3.7972,3.7972,3.8184,3.8611,3.8611,3.8789,3.9199,3.9199,3.9238,3.9297,3.9238,3.9687,4.0489,4.0489,4.0781,4.1211,4.1152,4.1152,4.1211,4.1152,4.1152,4.1211,4.1211,4.1211,4.1211,4.1211,4.1211,4.1211,4.1211,4.1172,4.1132,4.1132,4.0781,4.043,4.043,4.0137,3.9824,3.9883,3.9844,3.9824,3.9883,4.0137,4.0351,4.0351,4.0117,3.9902,3.9902,3.9219,3.8689,3.8689,3.865,3.8611,3.8611,3.8611,3.8611,3.8611,3.8611,3.8611,3.8611,3.8611,3.8611,3.8611,3.8611,3.8611,3.8611,3.8611,3.8611,3.8611,3.8611,3.8611,3.8611,3.8611,3.8611,3.8611,3.8611,3.8611,3.8611,3.8611,3.8611,3.6056,3.5533,3.4995,3.5581,3.6354,3.6849,3.6387,3.7475,3.8207,3.6857,3.6703,3.6816,0.0,0.0,0.0,0.0,0.0,0.0,0.0,0.0,0.0,0.0,0.0,0.0,0.0,0.0,0.0,0.0,3.8611,3.8496,3.8301,3.8047,3.8027,3.8281,3.8047,3.8125,3.8611,3.8611,3.8926,3.959,3.959,3.9844,4.0293,4.0059,4.0156,4.0489,4.0489,4.0781,4.1211,4.1211,4.1211,4.1211,4.1211,4.1211,4.1211,4.1211,4.1211,4.1211,4.1211,4.1211,4.1211,4.1211,4.1211,4.1211,4.1211,4.1074,4.0879,4.0879,4.0586,4.0312,4.0547,4.043,4.0312,4.0547,4.0762,4.0879,4.0879,4.0547,4.0098,3.9609,3.9394,3.916,3.8689,3.8806,3.8926,3.8926,3.873,3.8689,3.8887,3.873,3.8611,3.8611,3.8611,3.8611,3.8611,3.8611,3.8611,3.8611,3.8611,3.8611,3.8611,3.8611,3.8611,3.8611,3.8611,3.8611,3.8611,3.8611,3.8611,3.8611,3.8611,3.8611,3.6445,3.6097,3.5495,3.5728,3.6006,3.6107,3.5907,3.6445,3.6758,0.0,3.5859,3.5918,0.0,0.0,0.0,0.0,0.0,0.0,0.0,0.0,0.0,0.0,0.0,0.0,0.0,0.0,0.0,0.0,3.832,3.8278,3.8278,3.7832,3.7754,3.8122,3.7871,3.7969,3.8398,3.8633,3.9004,3.957,3.9668,4.0059,4.0664,4.0449,4.0372,4.0489,4.0644,4.0879,4.1211,4.1211,4.1211,4.1211,4.1211,4.1211,4.1211,4.1093,4.1113,4.1191,4.1055,4.1113,4.1211,4.1211,4.1211,4.1211,4.1211,4.1211,4.1211,4.1211,4.0937,4.0762,4.1094,4.0937,4.0781,4.1132,4.1211,4.1211,4.1211,4.0742,4.0176,3.9512,3.9473,3.9355,3.8728,3.8828,3.9082,3.918,3.8848,3.8767,3.9141,3.8828,3.8611,3.8611,3.8611,3.8611,3.8611,3.8611,3.8611,3.8611,3.8611,3.8611,3.8611,3.8611,3.8611,3.8611,3.8611,3.8611,3.8611,3.8611,3.8611,3.8611,3.8611,3.8611,3.5887,3.61,3.5932,3.5388,3.5943,3.6444,3.5612,3.5762,3.5957,3.5527,3.543,3.5293,0.0,0.0,0.0,0.0,0.0,0.0,0.0,0.0,0.0,0.0,0.0,0.0,0.0,0.0,0.0,0.0,3.7598,3.7363,3.7363,3.6973,3.6773,3.6812,3.7129,3.7539,3.7913,3.8769,3.8984,3.8689,3.9043,3.9258,3.9316,3.9746,4.0156,4.0508,4.0957,4.1191,4.1211,4.1211,4.1211,4.1211,4.1211,4.1211,4.1172,4.0703,4.082,4.1152,4.0703,4.082,4.1211,4.1211,4.1211,4.1211,4.1211,4.1211,4.1211,4.1211,4.1191,4.1191,4.1211,4.1191,4.1191,4.1211,4.1211,4.1211,4.1211,4.0508,3.9922,3.9863,3.9199,3.8669,3.8611,3.863,3.8787,3.9141,3.8848,3.8767,3.9141,3.8828,3.8611,3.8611,3.8611,3.8611,3.8611,3.8611,3.8611,3.8611,3.8611,3.8611,3.8611,3.8611,3.8611,3.8611,3.8611,3.8611,3.8611,3.8611,3.8611,3.8611,3.8611,3.8611,3.3192,3.3939,3.4747,3.3557,3.4309,3.5158,3.4312,3.4453,3.4648,3.4219,3.4355,3.4414,0.0,0.0,0.0,0.0,0.0,0.0,0.0,0.0,0.0,0.0,0.0,0.0,0.0,0.0,0.0,0.0,0.0,3.7988,3.7715,3.7305,3.707,3.707,3.7226,3.7637,3.834,3.8652,3.9004,3.9414,3.9004,3.9238,4.0039,3.9629,3.9687,4.0156,4.0566,4.0918,4.1211,4.1211,4.1211,4.1211,4.1211,4.1211,4.1152,4.0684,4.0801,4.1152,4.0684,4.0801,4.1211,4.1211,4.1211,4.1211,4.1211,4.1211,4.1211,4.1211,4.1211,4.1211,4.1211,4.1211,4.1211,4.1211,4.1211,4.1211,4.1211,4.0703,4.0215,3.9941,3.9863,3.9746,3.9473,3.9648,3.9883,4.0019,3.9687,3.9473,3.9629,3.9258,3.8867,3.865,3.8611,3.8611,3.8611,3.8611,3.8611,3.8611,3.8828,3.8984,3.8984,3.9258,3.9414,3.9414,3.9121,3.8984,3.8984,3.8984,3.8984,3.8984,3.8984,3.8828,3.1891,3.3166,3.4515,3.3243,3.4104,3.503,3.4209,3.3918,3.3809,3.3672,3.375,3.3769,0.0,0.0,0.0,0.0,0.0,0.0,0.0,0.0,0.0,0.0,0.0,0.0,0.0,0.0,0.0,0.0,0.0,0.0,3.7894,3.7519,3.7363,3.75,3.75,3.7851,3.8611,3.8611,3.8904,3.9453,3.8904,3.9023,3.9844,3.9394,3.9453,3.9922,4.0332,4.0684,4.0976,4.1152,4.1211,4.1211,4.1211,4.1211,4.1152,4.0684,4.0801,4.1152,4.0684,4.0801,4.1211,4.1211,4.1211,4.1211,4.1211,4.1211,4.1211,4.1211,4.1211,4.1211,4.1211,4.1211,4.1211,4.1211,4.1211,4.1211,4.1211,4.084,4.0411,4.0156,4.0215,4.0234,3.9941,4.0137,4.0351,4.0469,4.0156,3.9941,4.0098,3.9707,3.9258,3.8828,3.8926,3.8945,3.8789,3.8962,3.906,3.906,3.9277,3.9434,3.9434,3.9726,3.9902,3.9902,3.959,3.9492,3.9648,3.9336,3.9277,3.9434,3.9434,3.9199,0.0,0.0,0.0,3.4488,3.5359,3.6207,3.5303,0.0,3.3496,3.3977,3.3691,3.3386,0.0,0.0,0.0,0.0,0.0,0.0,0.0,0.0,0.0,0.0,0.0,0.0,0.0,0.0,0.0,0.0,3.7324,3.75,3.7874,3.7519,3.748,3.7874,3.7894,3.8144,3.863,3.863,3.863,3.865,3.865,3.865,3.8669,3.9023,3.9453,3.9902,4.0332,4.0469,4.0508,4.0996,4.1211,4.1211,4.1211,4.1211,4.1152,4.0684,4.0801,4.1152,4.0684,4.0801,4.1211,4.1211,4.1211,4.1211,4.1211,4.1211,4.1211,4.1211,4.1211,4.1211,4.1211,4.1211,4.1211,4.1211,4.1211,4.1211,4.1211,4.084,4.0508,4.0508,4.0215,3.9941,3.9941,3.9941,4.0078,4.0469,4.0195,4.0078,4.043,4.0176,3.9746,3.9277,3.9629,3.9707,3.9258,3.9629,3.9902,3.9902,3.9902,3.9922,3.9922,3.9922,3.9941,3.9941,3.9922,4.0117,4.0508,3.9668,3.9473,3.9922,3.9902,3.9648,2.9597,0.0,0.0,0.0,0.0,0.0,0.0,0.0,3.2246,3.2988,3.3047,3.3164,0.0,0.0,0.0,0.0,0.0,0.0,0.0,0.0,0.0,0.0,0.0,0.0,0.0,0.0,0.0,0.0,3.8047,3.8144,3.7894,3.7519,3.748,3.7874,3.7894,3.8281,3.9023,3.9023,3.9199,3.9531,3.9531,3.9531,3.9531,3.9297,3.9277,3.9414,3.9863,4.0078,4.0117,4.0879,4.1211,4.1211,4.1211,4.1211,4.1152,4.0684,4.0801,4.1152,4.0684,4.0801,4.1211,4.1211,4.1211,4.1211,4.1211,4.1211,4.1211,4.1211,4.1211,4.1211,4.1211,4.1211,4.1211,4.1211,4.1211,4.1211,4.1211,4.1113,4.0996,4.0996,4.0937,4.0859,4.0859,4.0859,4.0898,4.0976,4.0898,4.0742,4.0547,4.0372,4.0176,3.9746,3.9824,3.9844,3.9726,3.9824,3.9902,3.9902,4.0176,4.0313,4.0313,4.0644,4.0859,4.0859,4.0508,4.0566,4.0996,4.043,4.0234,4.0332,4.0039,3.9824,0.0,0.0,0.0,0.0,0.0,0.0,3.267,3.2137,3.2031,0.0,3.3066,3.3203,0.0,0.0,0.0,0.0,0.0,0.0,0.0,0.0,0.0,0.0,0.0,0.0,0.0,3.7051,3.7539,3.8144,3.8262,3.8281,3.8203,3.7969,3.7949,3.8184,3.8359,3.8691,3.9199,3.9199,3.9434,3.9902,3.9707,3.9707,3.9883,3.9609,3.959,3.9766,4.0039,4.0254,4.0469,4.1015,4.1211,4.1211,4.1211,4.1211,4.1191,4.0879,4.084,4.0898,4.082,4.084,4.0937,4.1152,4.1211,4.1211,4.1211,4.1211,4.1211,4.1211,4.1211,4.1211,4.1211,4.1211,4.1211,4.1211,4.1211,4.1211,4.1211,4.1211,4.1211,4.1211,4.1211,4.1211,4.1211,4.1211,4.1211,4.1211,4.1211,4.1113,4.082,4.0801,4.0625,4.0195,4.0312,4.0351,4.0176,4.0332,4.043,4.043,4.0664,4.0801,4.0801,4.1035,4.1211,4.1211,4.0918,4.084,4.0898,4.0644,4.0489,4.0469,4.0098,3.9785,0.0,0.0,0.0,0.0,0.0,0.0,3.3352,3.2735,3.2296,0.0,3.3242,3.3211,3.3308,0.0,0.0,0.0,0.0,0.0,0.0,0.0,0.0,0.0,0.0,0.0,3.6773,3.7129,3.7676,3.8437,3.8184,3.8164,3.8591,3.865,3.8689,3.8689,3.9062,3.9297,3.9336,3.9297,3.9492,3.9883,3.9531,3.9551,3.9902,3.9941,4.0176,4.0489,4.0489,4.0723,4.1074,4.1172,4.1211,4.1211,4.1211,4.1211,4.1211,4.1211,4.0937,4.0644,4.1074,4.0918,4.0664,4.1055,4.1211,4.1211,4.1211,4.1211,4.1211,4.1211,4.1211,4.1211,4.1211,4.1211,4.1211,4.1211,4.1211,4.1211,4.1211,4.1211,4.1211,4.1211,4.1211,4.1211,4.1211,4.1211,4.1211,4.1211,4.1211,4.1211,4.1211,4.1211,4.1035,4.0644,4.0937,4.1016,4.0625,4.0957,4.1211,4.1211,4.1211,4.1211,4.1211,4.1211,4.1211,4.1211,4.1172,4.0918,4.0489,4.0469,4.0411,4.0411,4.0078,3.9668,0.0,0.0,0.0,0.0,0.0,0.0,3.1182,3.1034,3.1416,0.0,3.2129,3.2109,3.2793,3.2988,0.0,0.0,0.0,0.0,0.0,0.0,0.0,0.0,0.0,0.0,3.7109,3.7559,3.7835,3.8027,3.8301,3.8476,3.8611,3.8887,3.9082,3.9082,3.9531,3.9922,4.0216,3.9922,3.9805,3.9902,4.0156,4.0137,3.9902,4.0254,4.0449,4.0489,4.0489,4.0371,4.0195,4.0937,4.1211,4.1211,4.1211,4.1211,4.1211,4.1211,4.1152,4.1055,4.1191,4.1152,4.1055,4.1191,4.1211,4.1211,4.1211,4.1211,4.1211,4.1211,4.1211,4.1211,4.1211,4.1211,4.1211,4.1211,4.1211,4.1211,4.1211,4.1211,4.1211,4.1211,4.1211,4.1211,4.1211,4.1211,4.1211,4.1211,4.1211,4.1211,4.1211,4.1211,4.1172,4.1055,4.1152,4.1172,4.1055,4.1172,4.1211,4.1211,4.1211,4.1211,4.1211,4.1211,4.1211,4.1211,4.084,4.0605,4.0489,4.0176,4.0019,4.0019,3.9941,3.9844,0.0,0.0,0.0,3.1699,0.0,0.0,0.0,0.0,3.0801,3.166,3.168,3.1719,3.2363,0.0,0.0,0.0,0.0,0.0,0.0,0.0,0.0,0.0,0.0,0.0,3.6641,3.7051,3.7383,3.7598,3.8203,3.8611,3.8611,3.8965,3.9199,3.9199,3.9863,4.0312,4.0489,4.0312,4.0312,4.0527,4.0527,4.0527,4.0527,4.0527,4.0644,4.084,4.0625,4.041,4.0254,4.0898,4.1035,4.084,4.084,4.084,4.082,4.0625,4.0527,4.0566,4.0781,4.084,4.0879,4.1094,4.1211,4.1211,4.1211,4.1211,4.1211,4.1211,4.1211,4.1211,4.1211,4.1211,4.1211,4.1211,4.1211,4.1211,4.1211,4.1211,4.1211,4.1211,4.1211,4.1211,4.1211,4.1211,4.1211,4.1211,4.1211,4.1211,4.1211,4.1211,4.1211,4.1211,4.1211,4.1211,4.1211,4.1211,4.1211,4.1211,4.1211,4.1211,4.1211,4.1211,4.1211,4.1211,4.0742,4.0372,4.0215,3.9766,3.9551,3.9551,3.9551,3.9434,0.0,0.0,0.0,0.0,0.0,3.0371,0.0,0.0,0.0,0.0,0.0,0.0,0.0,0.0,0.0,0.0,0.0,0.0,0.0,0.0,0.0,0.0,0.0,0.0,3.6172,3.6387,3.6855,3.7617,3.8044,3.8396,3.8708,3.9101,3.9375,3.9453,4.0234,4.0644,4.0644,4.0566,4.0703,4.1035,4.0684,4.0703,4.1074,4.0781,4.0801,4.1035,4.0684,4.0391,4.0312,4.0742,4.0664,4.0293,4.0411,4.0489,4.043,4.0059,3.9902,3.9941,4.0273,4.0449,4.0547,4.0937,4.1152,4.1211,4.1211,4.1211,4.1211,4.1211,4.1211,4.1211,4.1211,4.1211,4.1211,4.1211,4.1211,4.1211,4.1211,4.1211,4.1211,4.1211,4.1211,4.1211,4.1211,4.1211,4.1211,4.1211,4.1211,4.1211,4.1211,4.1211,4.1211,4.1211,4.1211,4.1211,4.1211,4.1211,4.1211,4.1211,4.1211,4.1211,4.1211,4.1211,4.1211,4.1211,4.0742,4.0351,4.0019,3.9473,3.916,3.9082,3.9082,3.8906,0.0,0.0,0.0,0.0,3.1132,0.0,0.0,0.0,0.0,0.0,0.0,0.0,0.0,0.0,0.0,0.0,0.0,0.0,0.0,0.0,0.0,0.0,0.0,0.0,0.0,3.6289,3.6894,3.8848,3.7676,3.7539,3.9043,3.957,3.998,4.0313,4.084,4.1094,4.1094,4.0723,4.0547,4.0586,4.0547,4.0547,4.0605,4.0957,4.0918,4.0586,4.0508,4.0078,3.9394,3.9844,3.9766,3.9434,4.0215,4.0489,4.043,4.0059,3.9902,3.9902,3.9961,4.0215,4.0489,4.0547,4.0859,4.1211,4.1211,4.1211,4.1211,4.1211,4.1211,4.1211,4.1211,4.1211,4.1211,4.1211,4.1211,4.1211,4.1211,4.1211,4.1211,4.1211,4.1211,4.1211,4.1211,4.1211,4.1211,4.1211,4.1211,4.1211,4.1211,4.1211,4.1211,4.1211,4.1211,4.1211,4.1211,4.1211,4.1211,4.1211,4.1211,4.1211,4.1211,4.1211,4.1211,4.1211,4.0742,4.0469,4.0449,3.9609,3.9004,3.8689,3.8689,3.865,0.0,0.0,0.0,0.0,0.0,0.0,0.0,0.0,2.8961,0.0,0.0,0.0,0.0,0.0,0.0,0.0,0.0,0.0,0.0,0.0,0.0,0.0,0.0,0.0,0.0,0.0,0.0,0.0,3.6836,3.7031,3.875,3.9512,4.0098,4.0469,4.0957,4.1211,4.1211,4.0996,4.0898,4.0898,4.0898,4.0898,4.0898,4.0566,4.0605,4.0859,4.0098,3.9687,3.9609,3.9824,3.9629,3.9238,3.9609,3.9766,3.9707,3.9277,3.9277,3.9531,3.9805,4.0176,4.0528,4.082,4.1035,4.1211,4.1211,4.1211,4.1211,4.1211,4.1211,4.1211,4.1211,4.1211,4.1211,4.1211,4.1211,4.1211,4.1211,4.1211,4.1211,4.1211,4.1211,4.1211,4.1211,4.1211,4.1211,4.1211,4.1211,4.1211,4.1211,4.1211,4.1211,4.1211,4.1211,4.1211,4.1211,4.1211,4.1211,4.1211,4.1211,4.1211,4.1211,4.1211,4.1211,4.1211,4.0996,4.0781,4.0489,4.0156,3.9746,3.9336,3.8845,3.8747,3.0786,0.0,0.0,0.0,0.0,0.0,0.0,0.0,0.0,0.0,0.0,0.0,0.0,0.0,0.0,0.0,0.0,0.0,0.0,0.0,0.0,0.0,0.0,0.0,0.0,0.0,0.0,0.0,0.0,3.6445,3.8669,3.9355,4.0019,4.0684,4.1016,4.1211,4.1211,4.1211,4.1211,4.1211,4.1211,4.1211,4.1191,4.0527,4.0527,4.0937,3.9863,3.9512,3.9707,3.959,3.9336,3.9043,3.916,3.9141,3.8984,3.8728,3.8848,3.9258,3.959,4.0059,4.0586,4.1035,4.1211,4.1211,4.1211,4.1211,4.1211,4.1211,4.1211,4.1211,4.1211,4.1211,4.1211,4.1211,4.1211,4.1211,4.1211,4.1211,4.1211,4.1211,4.1211,4.1172,4.1016,4.0996,4.1035,4.1191,4.1074,4.1035,4.1191,4.1211,4.1211,4.1211,4.1211,4.1211,4.1211,4.1211,4.1211,4.1211,4.1211,4.1211,4.1211,4.1211,4.1211,4.1211,4.1211,4.1016,4.0703,4.0547,4.043,4.0234,3.9336,3.9101,0.0,0.0,0.0,3.1337,0.0,0.0,0.0,0.0,2.9451,0.0,0.0,0.0,0.0,0.0,0.0,0.0,0.0,0.0,0.0,0.0,0.0,0.0,0.0,0.0,0.0,0.0,0.0,0.0,3.5131,0.0,3.9004,3.9199,3.9824,4.1152,4.1211,4.1211,4.1211,4.1211,4.1211,4.1211,4.1211,4.1211,4.1211,4.1191,4.0918,4.0527,4.0078,3.9629,3.9199,3.8789,3.865,3.8669,3.9043,3.8945,3.863,3.8611,3.8848,3.9199,3.9219,3.9785,4.0586,4.1035,4.1211,4.1211,4.1211,4.1211,4.1211,4.1211,4.1211,4.1211,4.1211,4.1211,4.1211,4.1211,4.1211,4.1211,4.1211,4.1211,4.1211,4.1211,4.1211,4.1074,4.0625,4.0508,4.0684,4.1152,4.082,4.0703,4.1152,4.1211,4.1211,4.1211,4.1211,4.1211,4.1211,4.1211,4.1211,4.1211,4.1211,4.1211,4.1211,4.1211,4.1211,4.1211,4.1211,4.1211,4.1191,4.0723,4.0723,4.1152,4.0254,3.9863,0.0,0.0,3.2318,3.1274,0.0,0.0,0.0,0.0,0.0,0.0,0.0,0.0,0.0,0.0,0.0,0.0,0.0,0.0,0.0,0.0,0.0,0.0,0.0,0.0,0.0,0.0,0.0,0.0,3.5273,0.0,0.0,3.918,4.0,4.0723,4.1035,4.1211,4.1211,4.1211,4.1211,4.1211,4.1211,4.1211,4.1211,4.0879,4.0664,4.045,3.9746,3.9355,3.916,3.8787,3.8611,3.863,3.8767,3.8728,3.8689,3.9238,3.9336,3.9277,3.9883,4.0469,4.0976,4.1172,4.1211,4.1211,4.1211,4.1211,4.1211,4.1211,4.1211,4.1211,4.1211,4.1211,4.1211,4.1211,4.1211,4.1211,4.1211,4.1211,4.1211,4.1211,4.0937,4.0703,4.0547,4.0039,3.9902,4.0625,4.0625,4.0684,4.1152,4.1211,4.1211,4.1211,4.1211,4.1211,4.1211,4.1211,4.1211,4.1211,4.1211,4.1211,4.1211,4.1211,4.1211,4.1211,4.1211,4.1211,4.1211,4.1035,4.1035,4.1211,4.0917,4.0586,3.2276,3.248,0.0,3.187,3.1387,0.0,3.054,0.0,0.0,0.0,0.0,0.0,0.0,0.0,0.0,0.0,0.0,0.0,0.0,3.3164,0.0,0.0,0.0,0.0,0.0,0.0,3.373,3.5039,3.5137,0.0,0.0,0.0,3.9922,4.0469,4.0957,4.1211,4.1211,4.1211,4.1211,4.1211,4.1211,4.1211,4.1211,4.0879,4.0762,4.0703,3.9824,3.9453,3.9394,3.8809,3.8611,3.865,3.8962,3.8945,3.8867,3.9434,3.9668,3.9785,4.0508,4.0937,4.1211,4.1211,4.1113,4.0976,4.1172,4.1074,4.0976,4.1133,4.1211,4.1211,4.1211,4.1211,4.1211,4.1211,4.1211,4.1211,4.1211,4.1093,4.0937,4.0937,4.0586,4.0254,4.0078,3.957,3.9453,4.0195,4.0293,4.0449,4.0879,4.1113,4.1211,4.1211,4.1211,4.1211,4.1211,4.1211,4.1211,4.1211,4.1211,4.1211,4.1211,4.1211,4.1211,4.1211,4.1211,4.1211,4.1211,4.1211,4.1211,4.1211,4.1211,4.1035]},{"header":{"parameterUnit":"m.s-1","parameterCategory":1,"la1":30.6,"la2":29.2853,"lo1":-89.7004,"lo2":-87.6739,"dy":0.0162,"dx":0.0183,"nx":112,"ny":82,"refTime":"2025-09-08T12:00:00:Z","depth":0,"parameterNumber":3,"parameterNumberName":"V-component_of_WINDS"},"data":[0.0,0.0,0.0,0.0,0.0,0.0,0.0,0.0,0.0,0.0,0.0,0.0,0.0,0.0,0.0,0.0,0.0,0.0,0.0,0.0,0.0,0.0,0.0,0.0,0.0,0.0,0.0,0.0,0.0,0.0,0.0,0.0,0.0,0.0,0.0,0.0,0.0,0.0,0.0,0.0,0.0,0.0,0.0,0.0,0.0,0.0,0.0,0.0,0.0,0.0,0.0,0.0,0.0,0.0,0.0,0.0,0.0,0.0,0.0,0.0,0.0,0.0,0.0,0.0,0.0,0.0,0.0,0.0,0.0,0.0,0.0,0.0,0.0,0.0,0.0,0.0,0.0,0.0,0.0,0.0,0.0,0.0,0.0,0.0,0.0,0.0,0.0,0.0,0.0,0.0,0.0,2.3789,2.4765,2.5453,2.5453,2.5974,2.5297,2.3002,0.0,0.0,0.0,0.0,0.0,0.0,0.0,0.0,0.0,0.0,0.0,0.0,0.0,0.0,0.0,0.0,0.0,0.0,0.0,0.0,0.0,0.0,0.0,0.0,0.0,0.0,0.0,0.0,0.0,0.0,0.0,0.0,0.0,0.0,0.0,0.0,0.0,0.0,0.0,0.0,0.0,0.0,0.0,0.0,0.0,0.0,0.0,0.0,0.0,0.0,0.0,0.0,0.0,0.0,0.0,0.0,0.0,0.0,0.0,0.0,0.0,0.0,0.0,0.0,0.0,0.0,0.0,0.0,0.0,0.0,0.0,0.0,0.0,0.0,0.0,0.0,0.0,0.0,0.0,0.0,0.0,0.0,0.0,0.0,0.0,0.0,0.0,0.0,0.0,0.0,0.0,0.0,0.0,0.0,0.0,0.0,0.0,0.0,0.0,0.0,0.0,0.0,0.0,0.0,2.3351,2.4335,2.4634,2.4754,2.4754,2.4844,2.4496,2.352,0.0,0.0,0.0,0.0,0.0,0.0,0.0,0.0,0.0,0.0,0.0,0.0,0.0,0.0,0.0,0.0,0.0,0.0,0.0,0.0,0.0,0.0,0.0,0.0,0.0,0.0,0.0,0.0,0.0,0.0,0.0,0.0,0.0,0.0,0.0,0.0,0.0,0.0,0.0,0.0,0.0,0.0,0.0,0.0,0.0,0.0,0.0,0.0,0.0,0.0,0.0,0.0,0.0,0.0,0.0,0.0,0.0,0.0,0.0,0.0,0.0,0.0,0.0,0.0,0.0,0.0,0.0,0.0,0.0,0.0,0.0,0.0,0.0,0.0,0.0,0.0,0.0,0.0,0.0,0.0,0.0,0.0,0.0,0.0,0.0,0.0,0.0,0.0,0.0,0.0,0.0,0.0,0.0,0.0,0.0,0.0,0.0,0.0,0.0,0.0,0.0,0.0,0.0,2.365,2.355,2.4515,2.4276,2.4048,2.4048,2.4395,2.4007,2.2652,2.2902,0.0,0.0,0.0,0.0,0.0,0.0,0.0,0.0,0.0,0.0,0.0,0.0,0.0,0.0,0.0,0.0,0.0,0.0,0.0,0.0,0.0,0.0,0.0,0.0,0.0,0.0,0.0,0.0,0.0,0.0,0.0,0.0,0.0,0.0,0.0,0.0,0.0,0.0,0.0,0.0,0.0,0.0,0.0,0.0,0.0,0.0,0.0,0.0,0.0,0.0,0.0,0.0,0.0,0.0,0.0,0.0,0.0,0.0,0.0,0.0,0.0,0.0,0.0,0.0,0.0,0.0,0.0,0.0,0.0,0.0,0.0,0.0,0.0,0.0,0.0,0.0,0.0,0.0,0.0,0.0,0.0,0.0,0.0,0.0,0.0,0.0,0.0,0.0,0.0,0.0,0.0,0.0,0.0,0.0,0.0,0.0,0.0,0.0,0.0,0.0,0.0,0.0,2.4507,2.4197,2.4575,2.3988,2.361,2.361,2.4077,2.3599,2.1814,2.2194,0.0,0.0,0.0,0.0,0.0,0.0,0.0,0.0,0.0,0.0,0.0,0.0,0.0,0.0,0.0,0.0,0.0,0.0,0.0,0.0,0.0,0.0,0.0,0.0,0.0,0.0,0.0,0.0,0.0,0.0,0.0,0.0,0.0,0.0,0.0,0.0,0.0,0.0,0.0,0.0,0.0,0.0,0.0,0.0,0.0,0.0,0.0,0.0,0.0,0.0,0.0,0.0,0.0,0.0,0.0,0.0,0.0,0.0,0.0,0.0,0.0,0.0,0.0,0.0,0.0,0.0,0.0,0.0,0.0,0.0,0.0,0.0,0.0,0.0,0.0,0.0,0.0,0.0,0.0,0.0,0.0,0.0,0.0,0.0,0.0,0.0,0.0,0.0,0.0,0.0,0.0,0.0,0.0,0.0,0.0,0.0,0.0,0.0,0.0,0.0,0.0,0.0,2.4747,2.5244,2.4653,2.3988,2.361,2.361,2.364,2.3101,2.1784,2.1724,0.0,0.0,0.0,0.0,0.0,0.0,0.0,0.0,0.0,0.0,0.0,0.0,0.0,0.0,0.0,0.0,0.0,0.0,0.0,0.0,0.0,0.0,0.0,0.0,0.0,0.0,0.0,0.0,0.0,0.0,0.0,0.0,0.0,0.0,0.0,0.0,0.0,0.0,0.0,0.0,0.0,0.0,0.0,0.0,0.0,0.0,0.0,0.0,0.0,0.0,0.0,0.0,0.0,0.0,0.0,0.0,0.0,0.0,0.0,0.0,0.0,0.0,0.0,0.0,0.0,0.0,0.0,0.0,0.0,0.0,0.0,0.0,0.0,0.0,0.0,0.0,0.0,0.0,0.0,0.0,0.0,0.0,0.0,0.0,0.0,0.0,0.0,0.0,0.0,0.0,0.0,0.0,0.0,0.0,0.0,0.0,0.0,0.0,0.0,0.0,0.0,0.0,2.4406,2.4724,0.0,2.3748,2.361,2.361,2.361,2.3041,2.1784,0.0,0.0,0.0,0.0,0.0,0.0,0.0,0.0,0.0,0.0,0.0,0.0,0.0,0.0,0.0,0.0,0.0,0.0,0.0,0.0,0.0,0.0,0.0,0.0,0.0,0.0,0.0,0.0,0.0,0.0,0.0,0.0,0.0,0.0,0.0,0.0,0.0,0.0,0.0,0.0,0.0,0.0,0.0,0.0,0.0,0.0,0.0,0.0,0.0,0.0,0.0,0.0,0.0,0.0,0.0,0.0,0.0,0.0,0.0,0.0,0.0,0.0,0.0,0.0,0.0,0.0,0.0,0.0,0.0,0.0,0.0,0.0,0.0,0.0,0.0,0.0,0.0,0.0,0.0,0.0,0.0,0.0,0.0,0.0,0.0,0.0,0.0,0.0,0.0,0.0,0.0,0.0,0.0,0.0,0.0,0.0,0.0,0.0,0.0,0.0,0.0,0.0,2.3849,2.4549,2.471,0.0,2.3729,2.361,2.361,2.3411,2.2842,2.1754,0.0,0.0,0.0,0.0,0.0,0.0,0.0,0.0,0.0,0.0,0.0,0.0,0.0,0.0,0.0,0.0,0.0,0.0,0.0,0.0,0.0,0.0,0.0,0.0,0.0,0.0,0.0,0.0,0.0,0.0,0.0,0.0,0.0,0.0,0.0,0.0,0.0,0.0,0.0,0.0,0.0,0.0,0.0,0.0,0.0,0.0,0.0,0.0,0.0,0.0,0.0,0.0,0.0,0.0,0.0,0.0,0.0,0.0,0.0,0.0,0.0,0.0,0.0,0.0,0.0,0.0,0.0,0.0,0.0,0.0,0.0,0.0,0.0,0.0,0.0,0.0,0.0,0.0,0.0,0.0,0.0,0.0,0.0,0.0,0.0,0.0,0.0,0.0,0.0,0.0,0.0,0.0,0.0,0.0,0.0,0.0,0.0,0.0,0.0,0.0,0.0,0.0,2.4526,2.5318,2.5491,2.4676,2.4018,2.361,2.361,2.3052,2.2433,0.0,0.0,0.0,0.0,0.0,0.0,0.0,0.0,0.0,0.0,0.0,0.0,0.0,0.0,0.0,0.0,0.0,0.0,0.0,0.0,0.0,0.0,0.0,0.0,0.0,0.0,0.0,0.0,0.0,0.0,0.0,0.0,0.0,0.0,0.0,0.0,0.0,0.0,0.0,0.0,0.0,0.0,0.0,0.0,0.0,0.0,0.0,0.0,0.0,0.0,0.0,0.0,0.0,0.0,0.0,0.0,0.0,0.0,0.0,0.0,0.0,0.0,0.0,0.0,0.0,0.0,0.0,0.0,0.0,0.0,0.0,0.0,0.0,0.0,0.0,0.0,0.0,0.0,0.0,0.0,0.0,0.0,0.0,0.0,0.0,0.0,0.0,0.0,0.0,0.0,0.0,0.0,0.0,0.0,0.0,0.0,0.0,0.0,0.0,0.0,0.0,0.0,0.0,2.4683,2.5778,2.6049,2.4882,2.4492,2.4107,2.364,2.343,2.2872,2.1754,0.0,0.0,0.0,0.0,0.0,0.0,0.0,0.0,0.0,0.0,0.0,0.0,0.0,0.0,0.0,0.0,0.0,0.0,0.0,0.0,0.0,0.0,0.0,0.0,0.0,0.0,0.0,0.0,0.0,0.0,0.0,0.0,0.0,0.0,0.0,0.0,0.0,0.0,0.0,0.0,0.0,0.0,0.0,0.0,0.0,0.0,0.0,0.0,0.0,0.0,0.0,0.0,0.0,0.0,0.0,0.0,0.0,0.0,0.0,0.0,0.0,0.0,0.0,0.0,0.0,0.0,0.0,0.0,0.0,0.0,0.0,0.0,0.0,0.0,0.0,0.0,0.0,0.0,0.0,0.0,0.0,0.0,0.0,0.0,0.0,0.0,0.0,0.0,0.0,0.0,0.0,0.0,0.0,0.0,0.0,0.0,0.0,0.0,0.0,0.0,0.0,0.0,2.5251,2.6438,2.6838,2.5722,2.4995,2.4425,2.4018,2.3748,2.3171,2.2154,0.0,0.0,0.0,0.0,0.0,0.0,0.0,0.0,0.0,0.0,0.0,0.0,0.0,0.0,0.0,0.0,0.0,0.0,0.0,0.0,0.0,0.0,0.0,0.0,0.0,0.0,0.0,0.0,0.0,0.0,0.0,0.0,0.0,0.0,0.0,0.0,0.0,0.0,0.0,0.0,0.0,0.0,0.0,0.0,0.0,0.0,0.0,0.0,0.0,0.0,0.0,0.0,0.0,0.0,0.0,0.0,0.0,0.0,0.0,0.0,0.0,0.0,0.0,0.0,0.0,0.0,0.0,0.0,0.0,0.0,0.0,0.0,0.0,0.0,0.0,0.0,0.0,0.0,0.0,0.0,0.0,0.0,0.0,0.0,0.0,0.0,0.0,0.0,0.0,0.0,0.0,0.0,0.0,0.0,0.0,0.0,0.0,0.0,0.0,0.0,0.0,0.0,2.6104,2.7278,2.7777,2.6935,2.563,2.4788,2.4728,2.4099,2.3452,2.2843,0.0,0.0,0.0,0.0,0.0,0.0,0.0,0.0,0.0,0.0,0.0,0.0,0.0,0.0,0.0,0.0,0.0,0.0,0.0,0.0,0.0,0.0,0.0,0.0,0.0,0.0,0.0,0.0,0.0,0.0,0.0,0.0,0.0,0.0,0.0,0.0,0.0,0.0,0.0,0.0,0.0,0.0,0.0,0.0,0.0,0.0,0.0,0.0,0.0,0.0,0.0,0.0,0.0,0.0,0.0,0.0,0.0,0.0,0.0,0.0,3.0939,0.0,0.0,0.0,0.0,0.0,0.0,0.0,0.0,0.0,0.0,0.0,0.0,0.0,0.0,0.0,0.0,0.0,0.0,0.0,0.0,0.0,0.0,0.0,0.0,0.0,0.0,0.0,0.0,0.0,0.0,0.0,0.0,0.0,0.0,0.0,0.0,0.0,0.0,0.0,0.0,0.0,2.6902,2.81,2.8455,2.724,2.6726,2.6261,2.5747,2.4991,2.4272,2.361,0.0,0.0,0.0,0.0,0.0,0.0,0.0,0.0,0.0,0.0,0.0,0.0,0.0,0.0,0.0,0.0,0.0,0.0,0.0,0.0,0.0,0.0,0.0,0.0,0.0,0.0,0.0,0.0,0.0,0.0,0.0,0.0,0.0,0.0,0.0,0.0,0.0,0.0,0.0,0.0,0.0,0.0,0.0,0.0,0.0,0.0,0.0,0.0,0.0,0.0,0.0,0.0,0.0,0.0,0.0,0.0,0.0,0.0,0.0,0.0,0.0,3.306,0.0,0.0,0.0,0.0,0.0,0.0,0.0,0.0,0.0,0.0,0.0,0.0,0.0,0.0,0.0,0.0,0.0,0.0,0.0,0.0,0.0,0.0,0.0,0.0,0.0,0.0,0.0,0.0,0.0,0.0,0.0,0.0,0.0,0.0,0.0,0.0,0.0,0.0,0.0,0.0,2.7774,2.8878,2.9299,2.8259,2.7448,2.6871,2.6495,2.58,2.5099,2.4422,2.4252,0.0,0.0,0.0,0.0,0.0,0.0,0.0,0.0,0.0,0.0,0.0,0.0,0.0,0.0,0.0,0.0,0.0,0.0,0.0,0.0,0.0,0.0,0.0,0.0,0.0,0.0,0.0,0.0,0.0,0.0,0.0,0.0,0.0,0.0,0.0,0.0,0.0,0.0,0.0,0.0,0.0,0.0,0.0,0.0,0.0,0.0,0.0,0.0,0.0,0.0,0.0,0.0,0.0,3.6691,3.6724,3.6154,3.7339,3.7876,3.7765,3.6396,3.5792,3.5667,0.0,0.0,0.0,0.0,0.0,0.0,0.0,0.0,0.0,0.0,0.0,0.0,0.0,0.0,0.0,0.0,0.0,0.0,0.0,0.0,0.0,0.0,0.0,0.0,0.0,3.5626,3.5569,0.0,0.0,0.0,0.0,0.0,0.0,0.0,0.0,0.0,0.0,0.0,0.0,2.883,2.9725,3.0103,2.9337,2.8149,2.7357,2.7265,2.6695,2.6099,2.5549,2.5461,2.5198,0.0,0.0,0.0,0.0,0.0,0.0,0.0,0.0,0.0,0.0,0.0,0.0,0.0,0.0,0.0,0.0,0.0,0.0,0.0,0.0,0.0,0.0,0.0,0.0,0.0,0.0,0.0,0.0,0.0,0.0,0.0,0.0,3.3174,3.4469,0.0,0.0,0.0,0.0,0.0,0.0,0.0,0.0,0.0,0.0,0.0,0.0,0.0,3.6775,3.6289,3.8163,3.9037,3.894,3.962,3.9912,3.9815,3.9994,4.0059,4.0059,3.9836,0.0,3.7086,3.7519,0.0,0.0,0.0,0.0,0.0,0.0,0.0,0.0,0.0,0.0,0.0,0.0,0.0,0.0,0.0,0.0,0.0,0.0,0.0,0.0,0.0,0.0,3.9358,3.8836,3.8792,3.8794,0.0,3.5142,3.2345,3.2509,3.1217,0.0,0.0,0.0,0.0,0.0,0.0,0.0,3.014,3.0768,3.0768,2.9513,2.9193,2.8855,2.8271,2.7872,2.7608,2.7525,2.7296,2.7145,2.7131,2.6713,0.0,0.0,0.0,0.0,0.0,0.0,0.0,0.0,0.0,0.0,0.0,0.0,0.0,0.0,0.0,0.0,0.0,0.0,0.0,0.0,0.0,0.0,0.0,0.0,0.0,0.0,0.0,0.0,0.0,3.3222,3.4565,3.5335,3.4796,3.4556,0.0,0.0,0.0,0.0,0.0,0.0,0.0,0.0,0.0,3.7247,3.8181,3.8711,3.8827,3.9664,4.0074,4.0074,4.0366,4.0722,4.1111,4.1111,4.1322,4.1663,4.1663,4.0934,3.9671,3.9232,3.8454,3.7612,0.0,0.0,0.0,0.0,3.7443,3.7258,3.7492,3.7131,0.0,0.0,0.0,0.0,0.0,0.0,0.0,0.0,0.0,0.0,0.0,0.0,0.0,3.9876,4.0079,4.0163,3.9873,3.8116,3.6249,0.0,3.4194,3.3155,3.1686,0.0,0.0,0.0,0.0,0.0,3.0997,3.1226,3.1164,3.0597,3.0184,2.9845,2.9569,2.9032,2.8681,2.8575,2.845,2.8372,2.8332,2.8553,2.8411,0.0,0.0,0.0,0.0,0.0,0.0,0.0,0.0,0.0,0.0,0.0,0.0,0.0,0.0,0.0,0.0,0.0,0.0,0.0,0.0,0.0,0.0,0.0,0.0,0.0,0.0,0.0,0.0,3.4953,3.5812,3.588,3.5732,3.5694,0.0,0.0,0.0,0.0,0.0,0.0,3.7385,3.7921,3.8603,3.9378,3.9938,4.0489,4.0998,4.1026,4.1031,4.1031,4.1031,4.1322,4.1856,4.1856,4.2132,4.2586,4.2586,4.2311,4.1759,4.0528,3.9912,3.9685,3.9167,3.8926,3.8991,3.9556,3.9709,3.9732,4.0315,4.0134,3.9482,3.8585,0.0,3.7301,3.6346,0.0,0.0,0.0,0.0,3.8299,3.9673,4.0127,4.0302,4.0653,4.0954,4.1028,4.0433,4.0032,3.9278,0.0,3.7023,3.615,3.4149,0.0,0.0,0.0,0.0,3.2413,3.1749,3.1791,3.1792,3.1623,3.1275,3.0927,3.0618,3.0385,3.0144,2.9888,2.9984,3.0107,3.015,3.0625,3.0644,3.0045,0.0,0.0,0.0,0.0,0.0,0.0,0.0,0.0,0.0,0.0,0.0,0.0,0.0,0.0,0.0,0.0,0.0,0.0,0.0,0.0,0.0,0.0,0.0,0.0,0.0,0.0,0.0,0.0,0.0,3.6692,3.6424,0.0,0.0,0.0,0.0,3.7762,3.8012,3.8639,3.9855,3.9953,4.0188,4.0681,4.1336,4.1651,4.1562,4.2197,4.2489,4.2489,4.2489,4.2522,4.2554,4.2554,4.2554,4.2586,4.2586,4.2586,4.2489,4.1791,4.1078,4.0463,4.043,4.0383,4.0398,4.0463,4.0725,4.1039,4.0626,4.0772,4.1064,4.1016,4.0796,4.0495,3.9982,4.0166,0.0,0.0,4.103,4.2226,4.2307,4.265,4.2837,4.21,4.194,4.1745,4.1031,4.0294,3.9872,0.0,3.9068,3.8146,3.7956,0.0,3.5605,3.4288,3.3668,3.3121,3.2458,3.2779,3.2872,3.2227,3.2579,3.2401,3.126,3.2006,3.2374,3.1955,3.243,3.2945,3.3513,3.3231,3.2913,3.2613,3.2685,0.0,0.0,0.0,0.0,0.0,0.0,0.0,0.0,0.0,0.0,0.0,0.0,0.0,0.0,0.0,0.0,0.0,0.0,0.0,0.0,0.0,0.0,0.0,0.0,0.0,0.0,0.0,0.0,3.7392,3.7995,0.0,3.8208,3.8286,3.8646,3.9309,3.9756,4.0447,4.1445,4.1511,4.1796,4.2449,4.2591,4.2598,4.2552,4.2582,4.2696,4.2929,4.282,4.2853,4.2929,4.2929,4.2867,4.2806,4.2806,4.2728,4.2586,4.2343,4.2084,4.1857,4.1857,4.2024,4.2279,4.2279,4.2781,4.3339,4.2561,4.2323,4.2218,4.1442,4.1516,4.1847,4.1687,4.1985,4.2296,4.2129,4.2501,4.2958,4.2958,4.3059,4.3138,4.2827,4.2758,4.2551,4.1792,4.1391,4.1094,4.0649,3.9703,3.8848,3.8428,3.8209,3.7253,3.4682,3.453,3.4265,3.3079,3.3064,3.3101,3.2866,3.3391,3.3456,3.2692,3.2925,3.3223,3.3371,3.3139,3.3271,3.3846,3.422,3.4168,3.3648,3.4135,3.3316,0.0,0.0,0.0,0.0,0.0,0.0,0.0,0.0,0.0,0.0,0.0,0.0,0.0,0.0,0.0,0.0,0.0,0.0,0.0,0.0,0.0,0.0,0.0,0.0,0.0,0.0,3.8757,3.8477,3.9526,4.0113,3.9677,4.0656,4.1249,4.1118,4.176,4.2297,4.2646,4.269,4.2921,4.3386,4.3265,4.3174,4.3113,4.2882,4.3013,4.3473,4.3398,4.3528,4.3834,4.3804,4.3726,4.3649,4.3553,4.3569,4.3583,4.3583,4.3739,4.389,4.2952,4.2898,4.3323,4.3323,4.3881,4.4611,4.3982,4.3681,4.3452,4.264,4.2894,4.3444,4.3299,4.3549,4.3928,4.3752,4.3804,4.3953,4.3953,4.3953,4.3884,4.3621,4.3552,4.3276,4.2228,4.1987,4.1755,4.0936,4.0266,3.9661,3.919,3.9185,3.8381,3.5763,3.5559,3.515,3.3715,3.3667,3.3751,3.3802,3.4374,3.4544,3.4033,3.4166,3.4352,3.4544,3.4272,3.4325,3.4679,3.5297,3.5438,3.499,3.5288,3.4903,3.3852,0.0,0.0,0.0,0.0,0.0,0.0,0.0,0.0,0.0,0.0,0.0,0.0,0.0,0.0,0.0,0.0,0.0,0.0,0.0,0.0,0.0,0.0,0.0,3.8823,3.9406,3.9834,3.9962,4.0998,4.1524,4.1092,4.2846,4.3792,4.3231,4.3975,4.4164,4.3517,4.3605,4.362,4.3484,4.3484,4.3394,4.3178,4.3178,4.3539,4.4242,4.4242,4.4603,4.5291,4.5163,4.5131,4.5114,4.4902,4.5098,4.5527,4.5527,4.5991,4.6422,4.3747,4.2959,4.3383,4.3368,4.391,4.4708,4.4708,4.4708,4.4708,4.4708,4.5029,4.5331,4.4845,4.5042,4.5318,4.4845,4.5056,4.5397,4.5397,4.5397,4.5238,4.4505,4.4345,4.3931,4.2401,4.2056,4.1814,4.109,4.081,4.0643,4.0534,3.9906,3.9003,3.7733,3.682,0.0,3.4442,3.4596,3.4885,3.497,3.5509,3.5656,3.5248,3.57,3.5832,3.5442,3.5932,3.6257,3.6342,3.6596,3.6744,3.6754,3.6245,3.6421,3.7314,0.0,0.0,0.0,0.0,0.0,0.0,0.0,0.0,0.0,0.0,0.0,0.0,0.0,0.0,0.0,0.0,0.0,0.0,0.0,0.0,0.0,0.0,4.0557,4.0097,4.1041,4.1837,4.1868,4.3212,4.4136,4.4097,4.4731,4.512,4.5063,4.5291,4.5322,4.5172,4.517,4.5141,4.5001,4.4985,4.497,4.4923,4.4749,4.491,4.5359,4.5266,4.5381,4.5656,4.5609,4.5547,4.5452,4.5388,4.5607,4.6003,4.6003,4.6275,4.6563,4.5068,4.4907,4.536,4.4598,4.4499,4.4708,4.4708,4.4708,4.4708,4.4708,4.5029,4.5384,4.5264,4.5304,4.5371,4.523,4.5304,4.5397,4.5397,4.5397,4.5363,4.5134,4.51,4.4837,4.3884,4.3241,4.2654,4.1849,4.1238,4.0787,4.0655,4.0412,3.9733,3.8363,3.8046,0.0,3.5794,3.5771,3.5701,3.5211,3.57,3.5888,3.5385,3.5887,3.6156,3.606,3.6178,3.6538,3.7157,3.7255,3.7605,3.8341,3.7792,3.7721,0.0,0.0,0.0,0.0,0.0,0.0,0.0,0.0,0.0,0.0,0.0,0.0,0.0,0.0,0.0,0.0,0.0,0.0,0.0,0.0,0.0,0.0,4.2187,4.2439,4.2326,4.2731,4.3185,4.3476,4.4626,4.5407,4.5506,4.5898,4.6045,4.5814,4.5879,4.5827,4.561,4.564,4.5672,4.5689,4.5689,4.5689,4.5689,4.5579,4.5726,4.6134,4.6039,4.6188,4.6501,4.642,4.6452,0.0,4.6485,4.6866,4.7477,4.7477,4.7776,0.0,0.0,0.0,0.0,0.0,4.5973,4.5904,4.5597,4.5494,4.5426,4.5104,4.5163,4.5397,4.5397,4.5397,4.5397,4.5397,4.5397,4.5397,4.5397,4.5397,4.5397,4.5397,4.5397,4.5203,4.4471,4.3724,4.2965,4.2159,4.14,0.0,4.081,4.0667,4.0217,3.9135,3.8945,3.8477,3.7272,3.6819,3.6479,3.6141,3.6146,3.6084,3.581,3.6092,0.0,0.0,0.0,3.7242,3.8197,3.8232,0.0,0.0,0.0,0.0,0.0,0.0,0.0,0.0,3.9672,3.9815,0.0,0.0,0.0,0.0,0.0,0.0,0.0,0.0,0.0,0.0,0.0,0.0,0.0,0.0,0.0,0.0,4.3871,4.4221,4.4999,4.4496,4.4269,4.4852,4.5517,4.5955,4.5955,4.6572,4.6702,4.6053,4.6172,4.6028,4.557,0.0,0.0,0.0,0.0,4.5999,4.5999,4.5999,4.6251,4.6683,4.6683,4.6996,4.7571,4.7387,4.7588,4.8016,4.7902,4.8386,4.9301,4.9301,4.9718,5.0174,4.7903,4.7029,4.7144,4.7547,4.7686,4.7617,4.6962,0.0,0.0,4.588,4.5604,4.5535,4.5535,4.5466,4.5397,4.5397,4.5397,4.5397,4.5397,4.5397,4.5397,4.5397,4.5397,4.5238,4.4574,4.3931,4.3241,4.2504,4.1711,4.117,4.117,4.0925,4.0546,3.9961,3.97,3.9352,3.8693,3.7917,3.7455,3.7543,0.0,0.0,3.6663,3.6594,3.687,3.7571,3.7709,3.8285,3.9469,3.962,4.0556,4.2506,4.2623,4.3301,4.4596,4.4703,4.4738,4.4667,4.1767,4.1599,0.0,0.0,0.0,0.0,0.0,0.0,0.0,0.0,0.0,0.0,0.0,0.0,0.0,0.0,0.0,4.4789,4.5277,4.5812,4.6963,4.663,4.6115,4.5662,4.638,4.6937,4.6937,4.7203,4.732,4.7189,4.7223,4.7191,4.7093,4.7094,0.0,4.716,4.716,4.716,4.716,4.716,4.7209,4.734,0.0,0.0,4.8065,4.8016,4.829,4.8783,4.8751,4.9135,4.9756,4.9756,5.0008,5.03,4.9222,4.8287,4.7575,4.7658,4.7686,4.7686,4.7548,4.7479,4.7445,4.7307,4.6858,4.6376,4.6376,4.5914,0.0,4.5397,4.5397,4.5397,4.5397,4.5397,4.5397,4.5397,4.5397,4.5363,4.5238,4.5065,4.4928,4.479,4.3677,4.2758,4.2758,4.1698,4.0776,4.0571,4.0554,4.0293,3.9416,3.9226,3.9193,3.9215,3.8572,3.8376,3.8974,3.8502,3.8226,3.8364,3.8951,3.9777,4.0858,4.1486,4.2483,4.3906,4.4567,4.4787,4.4596,4.5238,4.557,4.5534,4.4275,4.3943,0.0,0.0,0.0,0.0,0.0,0.0,0.0,0.0,0.0,0.0,0.0,4.1929,4.3133,0.0,4.4724,4.6289,4.7039,4.7627,4.8263,4.8119,4.754,4.6471,4.6751,4.7047,4.7047,4.7132,4.7184,4.7184,4.7184,4.7218,4.7352,4.7352,4.7403,4.7487,4.7487,4.7621,4.7853,4.7853,4.7935,4.8098,4.7836,4.7803,4.7934,4.7671,4.7836,4.8356,4.8592,4.9028,4.9551,4.9854,5.0028,5.0157,4.979,4.9311,4.8858,4.8858,4.8858,4.8789,4.8376,4.8238,4.8203,4.7824,4.7445,4.7134,4.7134,4.6617,4.5996,4.5996,4.5707,4.5397,4.5397,4.5397,4.5397,4.5397,4.5397,4.5397,4.5397,4.51,4.4837,4.4837,4.3953,4.331,4.369,4.3103,4.2181,4.0972,4.0847,4.0721,4.0271,3.9905,3.9698,3.9698,3.9054,3.8744,3.9123,3.9158,3.9158,3.9158,4.0354,4.1348,4.2019,4.3278,4.4317,4.5047,4.5841,4.6111,4.582,4.6212,4.6391,4.6391,4.5998,4.582,0.0,0.0,0.0,0.0,0.0,0.0,0.0,0.0,4.234,4.2693,4.3102,4.3782,4.5024,4.5767,4.6675,4.7968,4.864,4.9084,4.9284,4.9123,4.8591,4.7443,4.7331,4.7331,4.7331,4.7201,4.7169,4.7298,4.7201,4.7208,4.7464,4.7412,4.7415,4.752,4.7436,4.7554,4.7951,4.7951,4.8097,4.8354,4.8016,4.7836,4.7803,4.7505,4.7638,4.8179,4.8561,4.8966,4.9376,4.9816,5.0011,5.0011,5.0011,5.0011,5.0011,5.0011,5.0011,4.9907,4.9272,4.9031,4.8927,4.8341,4.8031,4.7927,4.7927,4.741,4.6824,4.6824,4.6341,4.5845,4.5845,4.5845,4.5845,4.5845,4.5845,4.5845,4.5845,4.5389,4.4954,4.4954,4.4229,4.3815,4.4402,4.4264,4.3552,4.2021,4.1538,4.1343,4.1343,4.0503,3.9974,4.0124,3.9503,3.9158,3.9468,4.0158,4.0664,4.0802,4.2191,4.3078,4.3372,4.4823,4.5739,4.5955,4.6808,4.7223,4.7223,4.739,4.7473,4.7473,4.7473,4.7366,3.8472,3.9444,4.056,4.1223,4.1482,4.2228,0.0,0.0,4.4919,4.6586,4.6663,4.6804,4.8014,4.7968,4.8311,5.0009,4.9558,4.9337,5.0275,4.9586,4.8947,4.8785,4.8753,4.8753,4.8753,4.8235,4.8105,4.872,4.8202,4.8074,4.8508,4.8144,4.7833,4.7687,4.7218,4.6996,4.7032,4.7064,4.7049,4.7132,4.7538,4.7918,4.8337,4.8746,4.9226,4.9742,4.9786,4.9845,4.9938,4.9982,5.0011,5.0011,5.0011,5.0011,5.0011,5.0011,5.0011,5.0011,4.9893,4.9873,4.9858,4.9769,4.9272,4.8686,4.8686,4.8169,4.7582,4.7582,4.7514,4.7445,4.7445,4.7445,4.7445,4.7445,4.7445,4.7445,4.7445,4.7376,4.7307,4.7307,4.6134,4.5203,4.5272,4.4195,4.3677,4.4755,4.3781,4.293,4.293,4.1654,4.1021,4.1676,4.109,4.1205,4.2551,4.3379,4.4057,4.4708,4.4954,4.5165,4.5436,4.5884,4.6245,4.6495,4.7547,4.8056,4.8056,4.871,4.9055,4.9055,4.9055,4.871,4.0042,4.129,4.2456,4.2747,4.3767,4.4869,4.5629,4.6245,4.6879,4.7671,4.8004,4.8273,4.8778,4.9076,4.9466,0.0,5.0279,5.0426,5.0883,5.0572,5.0293,5.0293,5.0293,5.0065,4.9577,4.8967,4.8831,4.9479,4.8949,4.8665,4.8863,4.8683,4.8536,4.8472,4.8229,4.8282,4.8563,4.8923,4.9194,4.9526,4.9787,5.0013,5.0204,5.0125,5.0362,5.0895,5.134,5.1409,5.1272,5.1272,5.103,5.0651,5.0651,5.0375,5.0011,5.0011,5.0011,5.0011,5.0011,5.0011,5.0011,5.0011,4.9755,4.9513,4.9513,4.8962,4.8341,4.8341,4.8031,4.7686,4.7686,4.7686,4.7686,4.7686,4.7686,4.7686,4.7686,4.7686,4.7686,4.7686,4.7169,4.6893,4.7293,4.6514,4.6182,4.7224,4.4975,4.3207,4.3207,4.3,4.316,4.3893,4.3686,4.3768,4.4423,4.4367,4.4436,4.4734,4.4923,4.5237,4.5781,4.6908,4.7651,4.7946,4.8848,4.916,4.8853,4.9006,4.9062,4.9062,4.9062,4.9295,4.1288,4.2633,4.38,4.4188,4.5759,4.7151,4.7022,4.7831,4.8641,4.8835,4.9289,4.9594,4.9594,5.0034,5.0445,5.0611,5.0955,5.1242,5.141,5.128,5.1218,5.1218,5.1218,5.1006,5.052,4.9761,4.9567,5.0192,4.9653,4.944,4.978,4.9816,4.9906,5.0032,4.9871,4.9952,5.0334,5.0543,5.0843,5.1276,5.1472,5.167,5.1857,5.1555,5.1767,5.234,5.2443,5.2632,5.2823,5.2617,5.2203,5.172,5.1479,5.0962,5.0287,5.008,5.0011,5.0011,5.0011,5.0011,5.0011,5.0011,5.0011,5.0011,5.0011,4.9582,4.9134,4.9134,4.8755,4.8341,4.8341,4.8341,4.8341,4.8341,4.8341,4.8341,4.8341,4.8169,4.7996,4.7996,4.7858,4.7858,4.841,4.8065,4.7893,4.841,4.6182,4.4298,4.385,4.3931,4.4195,4.4721,4.4962,4.5169,4.5363,4.5113,4.5092,4.554,4.5723,4.6083,4.6591,4.7967,4.8679,4.8662,4.9328,4.9667,4.9714,4.95,4.9658,5.0047,4.9835,5.0259,4.137,4.2633,4.4026,4.5403,4.686,4.8317,4.9677,5.0001,5.0228,5.0959,5.1121,5.1121,5.1121,5.1153,5.1341,5.1846,5.1526,5.1392,5.1897,5.1508,5.1218,5.1218,5.1218,5.1378,0.0,5.0805,5.0357,5.1107,5.0473,5.0579,5.1758,5.1936,5.219,5.2683,5.2033,5.1715,5.1732,5.1028,5.0776,5.0938,5.1426,5.2066,5.277,5.316,5.3723,5.4325,5.2843,5.3049,5.4375,5.3667,5.3356,5.3253,5.2479,5.172,5.0962,5.0252,5.0011,5.0011,5.0011,5.0011,5.0011,5.0011,5.0011,5.0011,5.0011,4.9976,4.9976,4.9976,4.9942,4.9942,4.9942,4.9942,4.9942,4.9942,4.9942,4.9942,4.9942,4.9306,4.8789,4.8789,4.8203,4.772,4.772,4.772,4.772,4.772,4.7651,4.7031,4.5535,4.4091,4.3241,4.3276,4.3897,4.463,4.5328,4.61,4.7134,4.8582,4.8686,4.8686,4.872,4.8987,4.8839,4.8157,4.8413,4.928,5.0741,5.0741,5.1513,5.2951,5.2228,5.1912,4.3281,4.4739,4.6147,4.7555,4.8656,4.9645,5.0617,5.083,5.0894,5.1153,5.1218,5.1056,5.0552,5.0894,5.108,5.0796,5.0992,5.1261,5.1448,5.1317,5.1218,5.1218,5.1218,0.0,0.0,0.0,0.0,5.1678,5.1587,5.1664,5.208,5.2606,5.2962,5.3133,5.2889,5.2982,5.3404,5.3497,5.3779,5.4223,5.4278,5.4408,5.4664,5.4801,5.472,5.4529,5.503,5.4977,5.4547,5.5357,5.5046,5.4149,5.4375,5.372,5.2513,5.1755,5.1134,5.0651,5.0183,5.0011,5.0011,5.0011,5.0011,5.0011,5.0011,5.0011,5.0011,5.0011,5.0011,5.0011,5.0011,5.0011,5.0011,5.0011,5.0011,5.0011,5.0011,4.9804,4.9582,4.9582,4.941,4.9238,4.9238,4.8789,4.8272,4.7789,4.7686,4.7686,4.7651,4.7203,4.7113,4.7631,4.7941,4.8183,4.8444,4.8203,4.8272,4.8789,4.8341,4.8307,4.8775,4.8909,4.936,5.0335,5.0432,5.1109,5.2306,5.1619,5.1521,5.2023,5.127,5.1122,4.4658,4.618,4.7637,4.9044,4.9969,5.0617,5.1089,5.1218,5.1121,5.0862,5.083,5.0584,4.9821,5.0264,5.0564,5.0168,5.0672,5.1118,5.1172,5.1218,5.1283,5.1542,5.1575,5.1653,0.0,0.0,0.0,5.2085,5.2381,5.2721,5.2981,5.3649,5.4124,5.4365,5.4057,5.4067,5.4479,5.451,5.4834,5.5468,5.5893,5.594,5.5717,5.5949,5.577,5.5357,5.5805,5.5874,5.577,5.6495,5.6357,5.5736,5.5927,5.5272,5.4099,5.3306,5.272,5.2099,5.0562,5.0011,5.0011,5.0011,5.0011,5.0011,5.0011,5.0011,5.0011,5.0011,5.0011,5.0011,5.0011,5.0011,5.0011,5.0011,5.0203,5.039,5.039,5.039,5.039,5.039,5.0168,5.0011,5.0011,4.9582,4.9169,4.8962,4.8893,4.8789,4.8444,4.841,4.8617,4.91,4.9169,4.9169,4.9169,4.8686,4.8499,4.8775,4.8617,4.8858,4.9582,4.9878,5.0566,5.174,5.1497,5.1842,5.2797,5.1842,5.1497,5.174,5.0991,5.0807,4.5597,4.7054,4.8461,4.9807,5.0681,5.1218,5.1218,5.1186,5.0927,5.0196,5.0034,4.9807,0.0,0.0,4.9864,5.0028,5.0536,5.0993,5.1229,5.1251,5.151,0.0,0.0,0.0,0.0,0.0,0.0,5.2398,0.0,5.3641,5.4373,5.4979,5.5605,5.6244,5.5462,5.5059,5.5128,5.4313,5.4244,5.4924,5.6335,5.6624,5.603,5.6573,5.6805,5.6736,5.5253,5.5823,5.7736,5.7116,5.7253,5.7771,5.715,5.6409,5.5616,5.4892,5.4582,5.4134,5.1252,5.0168,5.0114,5.0011,5.0011,5.0011,5.0011,5.0011,5.0011,5.0011,5.0011,5.0011,5.0011,5.0011,5.0011,5.0011,5.0548,5.1099,5.1099,5.1134,5.1168,5.1168,5.0582,5.0114,5.0114,5.0114,5.0341,5.103,5.1168,5.0375,4.8169,4.7927,4.7893,4.7824,4.7893,4.7927,4.7893,4.7927,4.8238,4.8913,4.9686,5.0424,5.1134,5.1824,5.2203,5.2203,5.1513,5.1513,5.2203,5.1513,5.1513,5.2168,5.1479,5.1168,4.7781,4.9256,5.0473,5.083,5.1056,5.1218,5.1218,5.0778,5.0163,4.9432,4.9271,4.8882,4.767,0.0,0.0,4.9354,5.0324,0.0,5.1885,5.1963,0.0,5.2929,0.0,5.3091,5.3285,5.3803,0.0,0.0,5.4308,5.4211,5.4405,5.5,5.5458,5.562,5.5311,5.5634,5.6635,5.6763,5.7191,5.7895,5.7174,5.7036,5.7397,5.698,5.6805,5.6771,5.6391,5.6219,5.6271,5.7219,5.7426,5.7185,5.8081,5.7961,5.7202,5.6495,5.5839,5.5134,5.3804,5.2582,5.1444,5.0355,5.0011,5.0011,5.0011,5.0011,5.0011,5.0011,5.0011,5.0011,5.0011,5.0011,5.0011,5.0011,5.0548,5.1099,5.1099,5.1548,5.1927,5.1927,5.1755,5.1651,5.1651,5.1651,5.1686,5.1892,5.1927,5.1513,5.0375,5.072,5.0617,4.9513,5.041,5.0824,5.0272,5.0755,5.1134,5.1306,5.1548,5.172,5.1927,5.2099,5.2203,5.2203,5.203,5.203,5.2203,5.203,5.203,5.2203,5.1996,5.2237,4.9174,5.0325,5.1218,5.1218,5.1218,5.1024,5.039,4.9904,4.9303,4.8285,4.8091,4.7831,4.7039,4.8317,4.9364,0.0,0.0,0.0,5.2118,5.2433,5.3011,0.0,5.4043,0.0,5.4791,5.5023,5.5303,0.0,5.5454,5.5312,5.5312,5.6246,5.6495,5.5895,5.5771,5.5765,5.5842,5.6104,5.6708,5.7638,5.7124,5.7088,5.7426,5.7667,5.7598,5.7288,0.0,5.7202,5.7133,5.7685,5.784,5.784,5.8702,5.8754,5.834,5.7909,5.7495,5.6927,5.5874,5.4943,5.3927,5.208,5.1494,5.1494,5.1494,5.1237,5.0962,5.0962,5.072,5.0424,5.0065,5.0011,5.0011,5.0011,5.0548,5.1203,5.1513,5.1927,5.2203,5.2203,5.2203,5.2203,5.2203,5.2203,5.2306,5.2686,5.272,5.2582,5.2168,5.2168,5.1892,5.103,5.172,5.203,5.1617,5.1961,5.2203,5.2203,5.2548,5.272,5.272,5.303,5.3375,5.3685,5.3375,5.3375,5.3685,5.3375,5.3203,5.3203,5.3203,5.3444,5.0066,5.0714,5.1218,5.1218,5.1121,5.0681,4.9303,4.8947,4.8461,4.7039,4.6845,4.6877,4.678,4.7758,4.8698,4.8954,0.0,5.1676,5.2292,5.2813,5.3757,5.5271,5.5119,5.5368,5.658,5.6335,5.6153,5.6248,5.6466,5.6591,5.6536,5.7699,5.7855,5.6656,5.6572,5.5938,5.4646,5.4547,5.5153,5.649,5.7001,5.7295,5.7426,5.8737,5.8978,5.8357,0.0,0.0,5.9099,5.834,5.8409,5.8995,5.8995,5.8995,5.8995,5.8995,5.8995,5.8823,5.7529,5.7012,5.6564,5.4287,5.3563,5.3563,5.3563,5.3065,5.2513,5.2513,5.203,5.141,5.0755,5.0597,5.0548,5.0459,5.0996,5.1686,5.2099,5.2203,5.2237,5.2341,5.2375,5.241,5.2479,5.2513,5.2754,5.346,5.3563,5.3563,5.3563,5.2927,5.2444,5.2237,5.2375,5.2479,5.2375,5.2444,5.2513,5.2513,5.3168,5.3598,5.3701,5.4322,5.4927,5.5582,5.4961,5.4892,5.5444,5.4892,5.4651,5.4651,5.4651,5.4685,5.083,5.1121,5.1218,5.1218,5.0746,5.0066,4.9206,4.8558,4.7749,4.6277,4.6488,4.6715,4.6083,4.7156,4.8309,4.89,4.9776,5.1002,5.287,5.3338,5.4069,0.0,5.5811,5.5971,5.6224,0.0,0.0,0.0,0.0,5.6978,5.6744,5.7397,5.7546,5.7162,5.7211,5.7266,5.7403,5.6797,5.7492,5.946,5.8892,5.9323,6.053,6.0771,6.084,6.0668,6.0082,0.0,5.9944,5.915,5.8892,5.8995,5.8995,5.8995,5.8995,5.8995,5.8995,5.8961,5.872,5.8219,5.7322,5.503,5.4306,5.4306,5.4306,5.4203,5.4099,5.4099,5.3996,5.3858,5.3754,5.3736,5.3563,5.2977,5.3375,5.3582,5.2444,5.2203,5.241,5.308,5.3184,5.3391,5.4011,5.4099,5.4134,5.4272,5.4306,5.4306,5.4306,5.4168,5.3616,5.2341,5.3341,5.3858,5.3253,5.3754,5.4099,5.4099,5.4237,5.4582,5.5203,5.534,5.5478,5.5582,5.5478,5.5168,5.4685,5.5168,5.5409,5.5409,5.5409,5.577,5.1121,5.1218,5.1218,5.1218,5.0467,4.9415,4.7967,4.7245,4.6461,4.4989,4.526,4.5772,4.5772,4.6667,4.7609,4.8262,4.9231,5.0515,5.2381,5.3233,5.428,5.5833,5.6172,5.6421,0.0,0.0,0.0,0.0,0.0,5.727,5.7026,5.726,5.7473,5.7693,5.7534,5.7576,5.7779,5.7658,5.8438,6.0146,5.986,6.0281,6.1323,6.1737,6.191,6.191,6.1457,0.0,6.1323,6.0407,6.0044,6.0044,6.0044,5.9751,5.9353,5.9731,5.9405,5.8856,5.9628,5.8891,5.7518,5.6797,5.5883,5.5118,5.545,5.528,5.5023,5.5304,5.5099,5.4722,5.431,5.4191,5.412,5.3873,5.445,5.4858,5.4134,5.4306,5.4582,5.4547,5.4874,5.515,5.5065,5.5409,5.5701,5.5701,5.534,5.5203,5.5632,5.5306,5.4651,5.3513,5.441,5.4927,5.4547,5.5253,5.5701,5.5701,5.5701,5.5874,5.6219,5.6219,5.6409,5.6789,5.6805,5.6616,5.6271,5.6616,5.6582,5.6219,5.6219,5.6426,5.0921,5.0921,5.0921,5.0921,5.0018,4.8653,4.6883,4.614,4.5448,4.4166,4.4464,4.5159,4.5873,4.6442,4.7087,4.7871,4.8846,5.0083,5.1763,5.2992,5.4274,0.0,5.63,0.0,5.7291,0.0,0.0,0.0,0.0,0.0,5.7407,5.7398,5.7639,5.8133,5.7666,5.7571,5.792,5.8084,5.8944,6.0484,6.0619,6.1037,6.168,6.2318,6.2628,6.261,6.2444,0.0,0.0,6.1567,6.1186,6.1152,6.1014,6.0478,5.9907,6.0487,5.9975,5.9139,6.0283,5.9463,5.7978,5.8558,5.7381,5.5831,5.6317,5.6043,5.5701,5.6098,5.5808,5.5244,5.4612,5.4611,5.4813,5.496,5.5313,5.5582,5.5582,5.5961,5.6184,5.5685,5.6099,5.6391,5.5927,5.6391,5.6805,5.6805,5.6253,5.6081,5.6736,5.6253,5.5651,5.503,5.5513,5.5858,5.5858,5.646,5.6805,5.6805,5.6805,5.6874,5.7012,5.6874,5.715,5.7909,5.7736,5.7736,5.7909,5.7909,5.7771,5.7529,5.7357,5.7288,5.003,5.003,5.003,5.003,4.8978,4.7757,4.6953,4.6257,4.5575,4.478,4.5177,4.5904,4.6582,4.6771,4.7214,4.849,4.8832,4.9611,5.1701,5.2763,5.3903,5.5295,0.0,0.0,5.6858,0.0,0.0,0.0,0.0,0.0,5.8047,5.8116,5.8139,5.8208,5.7544,5.7899,5.9288,5.8687,5.947,6.1627,6.1645,6.2077,6.2852,6.292,6.2954,6.2954,6.2935,0.0,0.0,6.2062,6.1736,6.1667,6.0984,6.0677,6.0624,6.0692,6.0624,6.0522,6.0658,6.0146,5.9429,5.9497,5.7995,5.6252,5.6303,5.6269,5.6235,5.6286,5.6336,5.6369,5.63,5.6898,5.7548,5.7565,5.6582,5.5582,5.5582,5.5134,5.4892,5.5478,5.5651,5.5927,5.6598,5.6736,5.6805,5.6805,5.6736,5.6736,5.6805,5.6736,5.6667,5.6598,5.6633,5.6702,5.6702,5.6771,5.6805,5.6805,5.6805,5.7116,5.7771,5.715,5.715,5.7909,5.7253,5.7219,5.7909,5.7909,5.8599,5.9875,5.915,5.8788,4.9785,4.9912,4.9912,4.9912,4.8694,4.7326,4.6605,4.5747,4.4986,4.4688,4.4874,4.5422,4.6473,4.6368,4.6524,4.7873,4.8091,4.8651,5.0383,5.1611,5.2843,5.4204,5.5401,0.0,0.0,0.0,0.0,0.0,0.0,0.0,5.8518,5.7789,5.7637,5.8188,5.8026,5.8713,6.0411,6.0351,6.0994,6.2332,6.2446,6.2692,6.3,6.3,6.3,6.3,6.2866,0.0,0.0,6.2525,6.2332,6.2312,6.2006,6.1575,6.1121,6.1562,6.1121,6.0476,6.1393,6.0646,5.9321,5.9763,5.8694,5.7371,5.792,5.8126,5.809,5.7983,5.8289,5.8445,5.7578,5.7719,5.8064,5.8064,5.7792,5.7534,5.7534,5.7377,5.7168,5.6996,5.734,5.7616,5.7495,5.784,5.8116,5.8116,5.7771,5.7633,5.8081,5.7736,5.784,5.8737,5.8012,5.7633,5.8081,5.8564,5.884,5.884,5.884,5.8771,5.8564,5.8271,5.8237,5.8547,5.8288,5.8288,5.8547,5.8547,5.8857,5.9461,5.9185,5.9047,4.9313,4.9501,4.9501,4.9501,4.8457,4.7212,4.6497,4.5603,4.4899,4.4899,4.4899,4.5299,4.6634,4.6511,4.6573,4.7711,4.7896,4.8389,4.9805,5.0974,5.2206,5.3537,0.0,0.0,0.0,0.0,0.0,0.0,0.0,0.0,0.0,5.7894,5.7618,5.806,5.8246,5.9058,6.0555,6.112,6.182,6.2596,6.2751,6.2828,6.2828,6.2828,6.2828,6.2828,0.0,0.0,0.0,6.2654,6.2596,6.2596,6.2596,6.2213,6.167,6.2212,6.1704,6.0926,6.2009,6.1332,6.008,6.0622,6.008,5.934,6.0012,5.9608,5.8859,5.873,5.9103,5.9362,5.8622,5.8493,5.8669,5.8907,5.9003,5.9026,5.9026,5.8926,5.8772,5.8462,5.8892,5.9168,5.8875,5.9306,5.9702,5.9702,5.9254,5.9081,5.9616,5.9254,5.9323,6.0427,5.9564,5.9116,5.9633,6.0185,6.053,6.053,6.053,6.0185,5.9392,5.934,5.9237,5.8995,5.8995,5.9099,5.934,5.934,5.9599,6.0047,6.0082,6.0082,4.8419,4.8604,4.8604,4.8604,4.8112,4.7404,4.6757,4.6069,4.5607,4.5607,4.5607,4.5988,4.7342,4.7588,4.7804,4.846,4.8583,4.9076,5.0482,5.1282,5.2206,0.0,0.0,0.0,0.0,0.0,0.0,0.0,0.0,0.0,0.0,5.8787,5.8479,5.7826,5.8044,5.866,5.9587,6.0534,6.1493,6.24,6.24,6.24,6.24,6.24,6.24,0.0,0.0,0.0,0.0,6.24,6.24,6.24,6.24,6.24,6.24,6.24,6.24,6.24,6.2381,6.24,6.2367,6.2347,6.2367,6.2367,6.2367,6.0268,5.79,5.7934,5.8043,5.8427,5.9357,5.9581,5.9752,6.0522,6.0112,5.9599,5.9599,5.9037,5.8695,5.9429,5.9727,6.011,6.0829,6.1146,6.1289,6.1289,6.1254,6.1254,6.1289,6.1254,6.1254,6.1289,6.1289,6.1254,6.1289,6.1289,6.1289,6.1289,6.1289,6.0944,6.022,6.0185,5.9806,5.903,5.8995,5.9375,6.0185,6.0185,6.0978,6.248,6.248,6.248,4.7188,4.7558,4.7804,4.7342,4.7065,4.685,4.6634,4.6419,4.6419,4.688,4.6603,4.6696,4.805,4.7927,4.8142,4.9774,5.0051,5.0359,5.1251,0.0,0.0,5.4276,5.6614,0.0,0.0,0.0,0.0,0.0,0.0,0.0,0.0,6.036,6.05,6.0482,6.0056,6.0619,6.2261,6.2045,6.209,6.24,6.24,6.2651,6.3159,6.3159,0.0,0.0,0.0,0.0,0.0,6.24,6.24,6.24,6.24,6.24,6.24,6.24,6.24,6.24,6.24,6.24,6.24,6.24,6.24,6.24,6.24,6.1724,6.0979,6.0979,6.0254,5.97,6.0536,6.0352,5.9979,6.0235,6.0226,6.0149,6.0149,6.0089,6.0114,6.048,6.0621,6.078,6.113,6.1235,6.1289,6.1289,6.1289,6.1289,6.1289,6.1289,6.1496,6.2048,6.2117,6.2117,6.2117,6.2117,6.2117,6.2117,6.2117,6.1772,6.0978,6.0944,6.084,6.0599,6.0565,6.0978,6.179,6.179,6.2273,6.3255,6.3255,6.3255,4.6542,4.6911,4.7188,4.7004,4.6973,4.6973,4.6973,4.6973,4.7096,4.7527,4.7281,4.7311,4.8399,4.8245,4.8512,5.0051,5.0328,5.0728,5.1929,0.0,0.0,5.5345,0.0,0.0,0.0,0.0,0.0,0.0,0.0,0.0,0.0,6.1902,6.2511,6.3048,6.2101,6.2156,6.336,6.2999,6.2821,6.2821,6.2516,6.2618,6.3091,6.3376,0.0,0.0,0.0,0.0,0.0,6.3009,6.2888,6.2468,6.299,6.3057,6.2821,6.2821,6.2821,6.2787,6.2502,6.24,6.24,6.24,6.24,6.24,6.24,6.24,6.24,6.24,6.1704,6.1061,6.1569,6.1332,6.096,6.096,6.0852,6.0725,6.0725,6.06,6.061,6.1028,6.1155,6.135,6.1753,6.1879,6.1952,6.2059,6.2059,6.2061,6.2151,6.2151,6.2358,6.2859,6.2928,6.2928,6.2928,6.2928,6.2928,6.2928,6.2928,6.2565,6.1772,6.2013,6.2048,6.1772,6.2013,6.2393,6.2928,6.2928,6.3032,6.3186,6.3462,6.36,0.0,4.648,4.6665,4.725,4.7465,4.7527,4.7527,4.7619,0.0,4.7681,4.7681,4.7896,4.8553,4.8645,4.8881,4.9764,4.9887,5.0513,0.0,5.3414,0.0,0.0,0.0,0.0,0.0,0.0,0.0,0.0,0.0,0.0,0.0,6.3348,6.4332,6.5271,6.4088,6.3434,6.3389,6.3463,6.3511,6.3579,6.2821,6.2516,6.2671,6.3362,0.0,0.0,0.0,0.0,0.0,6.4038,6.3802,6.2705,6.4072,6.4174,6.3579,6.3579,6.3545,6.3409,6.2719,6.2415,6.24,6.24,6.24,6.24,6.24,6.24,6.24,6.24,6.24,6.24,6.24,6.24,6.24,6.24,6.1873,6.1366,6.1366,6.0791,6.0486,6.125,6.1558,6.1896,6.261,6.2866,6.3076,6.3246,6.3265,6.334,6.3563,6.3581,6.3581,6.36,6.36,6.36,6.36,6.36,6.36,6.36,6.36,6.3289,6.2618,6.3239,6.3273,6.2583,6.3255,6.36,6.36,6.36,6.3255,6.2583,6.3289,6.36,4.5022,0.0,4.5761,4.5391,4.61,4.685,0.0,4.7619,4.8337,4.8337,4.8337,4.8604,4.9312,4.8974,4.9353,5.1621,5.1559,5.1744,5.326,0.0,0.0,0.0,0.0,0.0,0.0,0.0,0.0,0.0,0.0,0.0,0.0,6.4401,6.5069,6.5293,6.5727,6.5687,6.5135,6.4039,6.3781,6.4343,6.3579,6.3835,6.4938,6.5087,0.0,0.0,0.0,0.0,6.4106,6.4478,6.441,6.4106,6.4478,6.4478,6.4343,6.4343,6.4005,6.3477,6.3274,6.2854,6.24,6.24,6.24,6.24,6.24,6.24,6.24,6.24,6.24,6.24,6.24,6.24,6.24,6.24,6.2245,6.2144,6.2144,6.1975,6.1966,6.2305,6.2416,6.2546,6.287,6.2981,6.3019,6.3076,6.3076,6.3152,6.334,6.3358,6.3433,6.3581,6.36,6.36,6.36,6.36,6.36,6.36,6.36,6.3531,6.3342,6.3496,6.3531,6.3324,6.3496,6.36,6.36,6.36,6.3496,6.3342,6.3531,6.36,4.4591,4.533,4.6049,4.6007,4.6757,4.7619,4.7958,4.8327,4.8583,4.8583,4.8583,4.882,4.9558,4.9374,4.9897,5.2329,5.2421,0.0,0.0,0.0,0.0,0.0,0.0,0.0,0.0,0.0,0.0,0.0,0.0,0.0,0.0,6.4743,6.5526,6.5997,6.6084,6.6152,6.6203,6.5087,6.4715,6.5087,6.4377,6.441,6.5189,6.5547,6.5514,0.0,0.0,0.0,6.4647,6.5324,6.5222,6.4681,6.5358,6.5392,6.5087,6.5087,6.485,6.4478,6.414,6.3734,6.3362,6.3024,6.2888,6.2854,6.2482,6.2618,6.2821,6.2502,6.24,6.24,6.24,6.24,6.24,6.24,6.24,6.24,6.24,6.24,6.242,6.2537,6.2557,6.2596,6.2712,6.2731,6.2751,6.2847,6.2866,6.2962,6.3246,6.3283,6.3377,6.3581,6.36,6.36,6.36,6.36,6.36,6.36,6.36,6.36,6.36,6.36,6.36,6.36,6.36,6.3427,6.3082,6.3427,6.3427,6.3082,6.3427,6.36,4.4837,4.5865,4.6973,4.7219,4.7958,4.8758,4.9251,4.8974,4.8614,4.8737,4.8789,4.9035,4.9835,4.9897,5.0513,5.2544,0.0,0.0,5.7494,5.8448,0.0,0.0,0.0,0.0,0.0,0.0,0.0,0.0,0.0,6.4806,0.0,6.4607,6.5548,6.6525,6.5746,6.5767,6.6791,6.6068,6.5784,6.5886,6.5121,6.4816,6.4952,6.5561,6.5527,0.0,0.0,0.0,6.5019,6.6284,6.6068,6.5053,6.6284,6.644,6.5865,6.5865,6.5751,6.5446,6.4681,6.4512,6.4512,6.3849,6.3646,6.3545,6.2922,6.3159,6.3545,6.2888,6.2739,6.2705,6.2584,6.255,6.2516,6.2434,6.24,6.24,6.24,6.24,6.24,6.24,6.24,6.24,6.24,6.24,6.2459,6.2615,6.2635,6.277,6.3152,6.3189,6.3283,6.3489,6.3507,6.3507,6.3507,6.3507,6.3507,6.3507,6.3581,6.36,6.36,6.36,6.36,6.36,6.36,6.3289,6.2687,6.3308,6.3273,6.2687,6.3308,6.3669,4.5988,4.7281,4.7927,4.6296,4.725,4.846,4.8019,4.8266,4.8789,4.9404,4.9528,4.9897,5.1159,5.0913,5.119,0.0,0.0,5.6023,0.0,0.0,0.0,0.0,0.0,0.0,0.0,0.0,0.0,0.0,0.0,0.0,0.0,6.3961,6.4492,6.5504,6.5382,6.5767,6.6791,6.6068,6.6,6.6622,6.5865,6.5865,6.6474,6.6576,6.6555,0.0,0.0,6.6656,6.6487,6.669,6.6656,6.6487,6.669,6.6724,6.6643,6.6643,6.5831,6.4647,6.3917,6.4086,6.458,6.4478,6.4444,6.441,6.4309,6.4343,6.441,6.4275,6.4275,6.4106,6.3477,6.3308,6.3193,6.257,6.24,6.24,6.24,6.24,6.24,6.24,6.24,6.24,6.24,6.24,6.24,6.244,6.244,6.2518,6.2751,6.277,6.2866,6.3076,6.3095,6.3095,6.3095,6.3095,6.3095,6.3095,6.3414,6.36,6.36,6.36,6.36,6.36,6.36,6.3531,6.3427,6.3531,6.3531,6.3427,6.3531,6.391,4.5268,4.6757,4.7835,4.6911,4.8481,5.0205,4.9897,4.9774,4.9835,5.0174,5.0236,5.0543,5.1528,5.1436,5.2021,5.4391,0.0,0.0,0.0,0.0,0.0,0.0,0.0,0.0,0.0,0.0,0.0,0.0,0.0,0.0,6.3044,0.0,6.4262,6.5271,6.5293,6.5767,6.6791,6.6474,6.6474,6.6791,6.6474,6.6474,6.6791,6.6791,6.6791,6.6791,0.0,6.6791,6.6791,6.6791,6.6791,6.6791,6.6791,6.6791,6.6791,6.6791,6.6352,6.5743,6.5405,6.5506,6.573,6.5324,6.5189,6.5121,6.4715,6.4884,6.5189,6.5189,6.4918,6.4512,6.4174,6.4106,6.4005,6.3666,6.3599,6.3463,6.3091,6.299,6.2888,6.2502,6.24,6.24,6.24,6.24,6.24,6.24,6.24,6.2459,6.2654,6.2707,6.277,6.2981,6.3,6.3057,6.3152,6.3152,6.3152,6.3152,6.3246,6.3377,6.36,6.3489,6.3489,6.36,6.36,6.36,6.36,6.3489,6.3433,6.3433,6.3733,6.4054,4.4837,4.6296,4.7681,4.8019,4.9682,5.1313,5.1621,5.119,5.079,5.1097,5.1159,5.1313,5.1836,5.2306,0.0,5.5345,5.7586,0.0,0.0,0.0,0.0,0.0,0.0,0.0,0.0,0.0,0.0,0.0,0.0,0.0,6.2369,6.3252,6.4262,6.5271,6.5293,6.5767,6.6791,6.6791,6.6791,6.6791,6.6791,6.6791,6.6791,6.6791,6.6791,6.6791,6.6791,6.6791,6.6791,6.6791,6.6791,6.6791,6.6791,6.6791,6.6757,6.6609,6.6656,6.6757,6.6609,6.6677,6.669,6.6136,6.5967,6.5831,6.529,6.5493,6.5967,6.5967,6.5561,6.5087,6.4884,6.485,6.4816,6.4647,6.4613,6.4444,6.3883,6.3748,6.3545,6.2787,6.2651,6.2584,6.2434,6.24,6.24,6.24,6.24,6.244,6.2596,6.2615,6.2673,6.2847,6.2866,6.2923,6.3076,6.3076,6.3095,6.3152,6.3152,6.3283,6.36,6.3452,6.3433,6.36,6.36,6.36,6.36,6.3396,6.3386,6.3558,6.3931,6.4313,4.608,4.7004,4.7927,4.922,4.9703,5.0174,5.1405,5.119,5.1036,5.2298,5.2575,5.2553,5.2614,5.4153,5.5476,5.5653,5.7962,0.0,0.0,0.0,0.0,0.0,0.0,0.0,0.0,0.0,0.0,0.0,0.0,0.0,6.2369,6.3252,6.4262,6.5271,6.5293,6.5767,6.6791,6.6791,6.6791,6.6791,6.6791,6.6791,6.6791,6.6791,6.6791,6.6791,6.6791,6.6791,6.6791,6.6791,6.6791,6.6791,6.6791,6.6791,6.6724,6.6034,6.6203,6.669,6.6,6.6237,6.6791,6.6724,6.6724,6.669,6.6656,6.6656,6.6724,6.6724,6.6656,6.6487,6.5797,6.5615,6.5446,6.4749,6.4613,6.458,6.4546,6.4512,6.4309,6.3545,6.3409,6.3193,6.2516,6.24,6.24,6.24,6.24,6.24,6.242,6.242,6.242,6.244,6.244,6.244,6.2459,6.2459,6.2537,6.2712,6.3265,6.3581,6.36,6.36,6.36,6.36,6.36,6.36,6.36,6.3396,6.3661,6.4313,6.417,6.4825,4.5114,4.6449,4.7835,4.8789,4.9682,5.0667,5.2021,5.2452,5.2829,5.3753,5.3599,5.3322,5.3322,0.0,5.5352,5.6231,5.7956,0.0,0.0,0.0,0.0,0.0,0.0,0.0,0.0,0.0,0.0,0.0,0.0,0.0,0.0,6.4193,6.4912,6.5293,6.5932,6.6418,6.6791,6.6791,6.6791,6.6791,6.6791,6.6791,6.6791,6.6791,6.6791,6.6791,6.6791,6.6791,6.6791,6.6791,6.6791,6.6791,6.6791,6.6791,6.6757,6.6508,6.6576,6.6757,6.6474,6.6576,6.6791,6.6791,6.6791,6.6791,6.6791,6.6791,6.6791,6.6791,6.6791,6.6724,6.6474,6.6373,6.6305,6.6034,6.5967,6.5831,6.5392,6.5256,6.5053,6.4343,6.4174,6.4106,6.3802,6.3396,6.3091,6.3091,6.2685,6.24,6.24,6.24,6.24,6.24,6.2498,6.2576,6.2576,6.2693,6.2808,6.2885,6.2981,6.3152,6.3396,6.3302,6.3283,6.3414,6.3302,6.3246,6.3246,6.3019,6.3333,6.403,6.431,6.4958,4.5191,4.6779,4.8447,4.8851,5.0213,5.179,5.3135,5.3734,5.4276,5.5191,5.4645,5.4091,5.4276,5.4706,0.0,0.0,0.0,0.0,0.0,0.0,0.0,0.0,0.0,0.0,0.0,0.0,0.0,0.0,0.0,0.0,0.0,6.5226,6.5767,6.5767,6.644,6.6791,6.6791,6.6791,6.6791,6.6791,6.6791,6.6791,6.6791,6.6791,6.6927,6.7151,6.6893,6.7062,6.7523,6.7252,6.7151,6.7096,6.6893,6.6791,6.6791,6.6791,6.6791,6.6791,6.6791,6.6791,6.6791,6.6791,6.6791,6.6791,6.6791,6.6791,6.6791,6.6791,6.6791,6.6791,6.6791,6.6791,6.6791,6.6791,6.6791,6.6677,6.617,6.6034,6.5831,6.5087,6.4952,6.4884,6.4647,6.4174,6.3748,6.3545,6.326,6.299,6.2787,6.2956,6.299,6.2753,6.2653,6.263,6.263,6.2731,6.2808,6.2808,6.2731,6.2847,6.3189,6.3076,6.3076,6.3208,6.3296,6.3341,6.3341,6.3368,6.3781,6.4509,6.4817,6.5324,4.6829,4.8238,4.9939,4.9749,5.1424,5.3471,5.48,5.4915,5.513,5.6508,5.5684,5.4922,5.5592,5.5708,0.0,0.0,0.0,0.0,0.0,0.0,0.0,0.0,0.0,0.0,0.0,0.0,0.0,0.0,0.0,0.0,0.0,6.6256,6.6791,6.6791,6.6791,6.6791,6.6791,6.6791,6.6791,6.6791,6.6791,6.6791,6.6791,6.6791,6.7218,6.7861,6.7151,6.7671,6.9045,6.8233,6.7895,6.7827,6.7096,6.6791,6.6791,6.6791,6.6791,6.6791,6.6825,6.6825,6.6825,6.6825,6.6825,6.6825,6.6791,6.6791,6.6791,6.6791,6.6791,6.6791,6.6791,6.6791,6.6791,6.6791,6.6791,6.6791,6.6791,6.6791,6.6576,6.5831,6.5717,6.548,6.4749,6.4613,6.4377,6.3612,6.414,6.4343,6.3612,6.414,6.4343,6.3579,6.2854,6.2434,6.2434,6.2415,6.2415,6.2415,6.2576,6.2789,6.3,6.3,6.3,6.3,6.3732,6.4088,6.4123,6.4628,6.5277,6.5984,6.5799,6.6102,4.6097,4.7419,4.9273,5.0359,5.2587,5.4863,5.6135,5.6824,5.7215,5.7455,5.6816,5.6231,5.6447,5.621,0.0,0.0,0.0,0.0,0.0,0.0,0.0,0.0,0.0,0.0,0.0,0.0,0.0,0.0,0.0,0.0,0.0,6.6643,6.6791,6.6791,6.6791,6.6791,6.6791,6.6791,6.6791,6.6791,6.6791,6.6791,6.6791,6.6791,6.7218,6.7895,6.7658,6.8166,6.9045,6.8233,6.7895,6.7827,6.7096,6.6791,6.6859,6.7387,6.7557,6.7658,6.8233,6.8436,6.8436,6.8436,6.8436,6.8301,6.776,6.7557,6.7489,6.6927,6.6791,6.6791,6.6791,6.6791,6.6791,6.6791,6.6791,6.6791,6.6791,6.6791,6.6724,6.6542,6.6474,6.6406,6.6203,6.573,6.529,6.5087,6.4783,6.4512,6.4309,6.4478,6.4512,6.4309,6.4072,6.3937,6.3937,6.3463,6.3193,6.3193,6.2744,6.2576,6.277,6.33,6.3572,6.3572,6.4163,6.4457,6.4457,6.46,6.5088,6.5799,6.5737,6.6102,4.8627,4.9998,5.1654,5.2844,5.4398,5.609,5.7878,5.8554,5.9085,5.9985,5.8881,5.7963,5.8641,5.7838,0.0,0.0,0.0,0.0,0.0,0.0,0.0,0.0,0.0,0.0,0.0,0.0,0.0,0.0,0.0,0.0,0.0,6.6791,6.6791,6.6791,6.6791,6.6791,6.6791,6.6791,6.6791,6.6791,6.6791,6.6791,6.6791,6.7096,6.7658,6.8402,6.9011,6.935,6.9485,6.8707,6.8538,6.8707,6.7658,6.7455,6.7793,6.8199,6.8368,6.8436,6.8944,6.9113,6.9113,6.9113,6.8876,6.8538,6.8064,6.7692,6.7387,6.6927,6.6791,6.6791,6.6791,6.6791,6.6791,6.6791,6.6791,6.6791,6.6791,6.6791,6.6791,6.6791,6.6791,6.6791,6.6791,6.644,6.6034,6.5751,6.5324,6.5155,6.5459,6.5222,6.5019,6.5019,6.4783,6.4613,6.4613,6.4208,6.3917,6.3917,6.3531,6.332,6.3439,6.3608,6.3812,6.4103,6.4708,6.5019,6.5019,6.5324,6.5696,6.6136,6.6136,6.6373,5.2676,5.4232,5.5641,5.6263,5.6602,5.7463,6.0036,6.0299,6.0727,6.3171,6.1453,5.9969,6.1436,6.0215,0.0,0.0,0.0,0.0,0.0,0.0,0.0,0.0,0.0,0.0,0.0,0.0,0.0,0.0,0.0,0.0,0.0,6.6791,6.6791,6.6791,6.6791,6.6791,6.6791,6.6791,6.6791,6.6791,6.6791,6.6791,6.6825,6.7489,6.8267,6.918,7.0601,7.0872,7.0229,6.9485,6.9586,7.0026,6.8571,6.847,6.9113,6.918,6.9214,6.9214,6.9282,6.9316,6.9316,6.9316,6.8808,6.8199,6.8132,6.759,6.6994,6.6927,6.6859,6.6791,6.6791,6.6791,6.6791,6.6791,6.6791,6.6825,6.6893,6.6859,6.6825,6.6893,6.6859,6.6791,6.6791,6.6791,6.6555,6.5899,6.5818,6.6034,6.669,6.6203,6.5818,6.5818,6.5189,6.4816,6.4816,6.4749,6.4681,6.4681,6.4647,6.4647,6.4681,6.4072,6.4038,6.4681,6.5425,6.5818,6.5818,6.6474,6.6791,6.6791,6.6791,6.6791,5.0643,5.2649,5.4986,5.6289,5.8148,6.0337,6.3034,6.2663,6.1939,6.2478,6.2292,6.1948,6.1734,6.1982,0.0,0.0,0.0,0.0,0.0,0.0,0.0,0.0,0.0,0.0,0.0,0.0,0.0,0.0,0.0,0.0,6.6791,6.6791,6.6791,6.6791,6.6791,6.6791,6.6791,6.6791,6.6791,0.0,6.6791,6.6791,6.6791,6.696,6.7793,6.9147,7.006,7.0669,7.1007,7.0263,7.0082,7.0116,6.9214,6.8944,6.918,6.9755,6.9958,7.0026,7.0635,7.0816,7.0816,7.0816,7.0737,7.0466,6.9857,6.918,6.847,6.7827,6.7252,6.6791,6.6791,6.6791,6.6791,6.6791,6.6791,6.696,6.7557,6.7218,6.696,6.7557,6.7218,6.6791,6.6791,6.6791,6.6757,6.6609,6.6576,6.6622,6.6757,6.6677,6.6576,6.6576,6.644,6.6318,6.6318,6.5797,6.5459,6.5459,6.4918,6.485,6.5425,6.529,6.529,6.5459,6.6203,6.6576,6.6576,6.6724,6.6791,6.6791,6.6791,6.6791,5.17,5.324,5.4767,5.659,5.9762,6.259,6.3116,6.3869,6.422,6.3376,6.3342,6.3405,6.3142,0.0,0.0,0.0,0.0,0.0,0.0,0.0,0.0,0.0,0.0,0.0,0.0,0.0,0.0,0.0,0.0,6.6791,6.6791,6.6791,6.6791,6.6791,6.6791,6.6791,6.6791,6.6791,6.696,6.7354,6.7354,6.7523,6.7895,6.7523,6.8166,6.9654,7.0026,7.0635,7.1222,7.05,7.0398,7.0635,6.9925,6.9823,7.0195,7.0601,7.0737,7.077,7.1154,7.1289,7.1289,7.1289,7.1075,7.0703,7.0319,6.9688,6.9011,6.8605,6.7929,6.7421,6.7793,6.7624,6.7421,6.7827,6.7624,6.7421,6.7827,6.7895,6.803,6.8402,6.7861,6.7354,6.7354,6.7028,6.6791,6.6791,6.6791,6.6791,6.6791,6.6791,6.6791,6.6791,6.6791,6.6791,6.6791,6.644,6.6237,6.6237,6.5865,6.5831,6.6203,6.6237,6.6237,6.6237,6.6588,6.6791,6.6791,6.6791,6.6791,6.6791,6.6791,6.6791,5.2777,5.4074,5.5115,5.7465,6.1052,6.36,6.23,6.4275,6.5951,6.4559,6.4384,6.4455,6.4403,0.0,0.0,0.0,0.0,0.0,0.0,0.0,0.0,0.0,0.0,0.0,0.0,0.0,0.0,0.0,0.0,6.6724,6.6643,6.6609,6.6609,6.6609,6.6609,6.6656,6.6791,6.6791,6.7184,6.7895,6.7895,6.8233,6.8876,6.8199,6.8741,7.0217,7.0217,7.0635,7.1255,7.0635,7.0737,7.1222,7.0635,7.077,7.1289,7.1289,7.1289,7.1289,7.1289,7.1289,7.1289,7.1289,7.0906,7.0398,7.0398,6.9857,6.9282,6.9282,6.8707,6.8267,6.8944,6.8605,6.8267,6.8944,6.8707,6.8301,6.8301,6.8707,6.9113,6.9113,6.8335,6.7726,6.7726,6.7218,6.6791,6.6791,6.6791,6.6791,6.6791,6.6791,6.6791,6.6791,6.6791,6.6791,6.6791,6.6791,6.6791,6.6791,6.6791,6.6791,6.6791,6.6791,6.6791,6.6791,6.6791,6.6791,6.6791,6.6791,6.6791,6.6791,6.6791,6.6791,4.9496,5.2517,5.6369,5.989,6.1086,6.1721,6.2978,6.3927,6.4547,0.0,6.5037,6.5112,0.0,0.0,0.0,0.0,0.0,0.0,0.0,0.0,0.0,0.0,0.0,0.0,0.0,0.0,0.0,0.0,6.6791,6.6542,6.5865,6.5852,6.5852,6.5852,6.5852,6.6136,6.6791,6.6791,6.7184,6.7895,6.7895,6.7963,6.8064,6.7963,6.8741,7.0217,7.0217,7.0635,7.1289,7.1188,7.1188,7.1289,7.1188,7.1188,7.1289,7.1289,7.1289,7.1289,7.1289,7.1289,7.1289,7.1289,7.1222,7.1154,7.1154,7.0635,7.0026,7.0026,6.9519,6.8977,6.9079,6.9011,6.8977,6.9079,6.9519,6.9891,6.9891,6.9485,6.9113,6.9113,6.7929,6.6927,6.6927,6.6859,6.6791,6.6791,6.6791,6.6791,6.6791,6.6791,6.6791,6.6791,6.6791,6.6791,6.6791,6.6791,6.6791,6.6791,6.6791,6.6791,6.6791,6.6791,6.6791,6.6791,6.6791,6.6791,6.6791,6.6791,6.6791,6.6791,6.6791,6.6791,4.9513,5.3117,5.6758,5.8781,6.0504,6.1938,6.2707,6.37,6.422,6.3518,6.3652,6.3768,0.0,0.0,0.0,0.0,0.0,0.0,0.0,0.0,0.0,0.0,0.0,0.0,0.0,0.0,0.0,0.0,6.6791,6.6677,6.6339,6.5899,6.5865,6.6305,6.5899,6.6034,6.6791,6.6791,6.7421,6.8571,6.8571,6.9011,6.9789,6.9383,6.9553,7.0217,7.0217,7.0635,7.1289,7.1289,7.1289,7.1289,7.1289,7.1289,7.1289,7.1289,7.1289,7.1289,7.1289,7.1289,7.1289,7.1289,7.1289,7.1289,7.1289,7.1052,7.0804,7.0804,7.0297,6.9823,7.0229,7.0026,6.9823,7.0229,7.0601,7.0804,7.0804,7.0229,6.9451,6.8605,6.8233,6.7827,6.6927,6.7129,6.7421,6.7421,6.7083,6.6927,6.7354,6.7083,6.6791,6.6791,6.6791,6.6791,6.6791,6.6791,6.6791,6.6791,6.6791,6.6791,6.6791,6.6791,6.6791,6.6791,6.6791,6.6791,6.6791,6.6791,6.6791,6.6791,6.6791,6.6791,4.9761,5.283,5.5383,5.7039,5.9482,6.1604,6.2037,6.3125,6.3666,0.0,6.211,6.2212,0.0,0.0,0.0,0.0,0.0,0.0,0.0,0.0,0.0,0.0,0.0,0.0,0.0,0.0,0.0,0.0,6.6373,6.6216,6.6216,6.5527,6.5392,6.5946,6.5595,6.5764,6.6508,6.6914,6.7557,6.8538,6.8707,6.9383,7.0432,7.006,7.0014,7.0217,7.0398,7.0804,7.1289,7.1289,7.1289,7.1289,7.1289,7.1289,7.1289,7.1086,7.112,7.1255,7.1109,7.112,7.1289,7.1289,7.1289,7.1289,7.1289,7.1289,7.1289,7.1289,7.0906,7.0601,7.1176,7.0906,7.0635,7.1154,7.1289,7.1289,7.1289,7.0567,6.9586,6.8436,6.8368,6.8166,6.6994,6.7252,6.7692,6.7861,6.7286,6.7062,6.7793,6.7252,6.6791,6.6791,6.6791,6.6791,6.6791,6.6791,6.6791,6.6791,6.6791,6.6791,6.6791,6.6791,6.6791,6.6791,6.6791,6.6791,6.6791,6.6791,6.6791,6.6791,6.6791,6.6791,4.9056,5.0204,5.1376,5.5683,5.7871,5.9398,6.0989,6.1941,6.2279,6.1535,6.1366,6.1129,0.0,0.0,0.0,0.0,0.0,0.0,0.0,0.0,0.0,0.0,0.0,0.0,0.0,0.0,0.0,0.0,6.5121,6.4715,6.4715,6.4038,6.3612,6.368,6.4309,6.5019,6.5751,6.7151,6.7523,6.6927,6.7624,6.7996,6.8098,6.8842,6.9553,7.0251,7.0939,7.1255,7.1289,7.1289,7.1289,7.1289,7.1289,7.1289,7.1222,7.05,7.0703,7.1188,7.05,7.0703,7.1289,7.1289,7.1289,7.1289,7.1289,7.1289,7.1289,7.1289,7.1255,7.1255,7.1289,7.1255,7.1255,7.1289,7.1289,7.1289,7.1289,7.0161,6.9147,6.9045,6.7895,6.6893,6.6791,6.6825,6.7096,6.7793,6.7286,6.7062,6.7793,6.7252,6.6791,6.6791,6.6791,6.6791,6.6791,6.6791,6.6791,6.6791,6.6791,6.6791,6.6791,6.6791,6.6791,6.6791,6.6791,6.6791,6.6791,6.6791,6.6791,6.6791,6.6791,6.6791,4.9325,5.0376,5.1575,5.5165,5.64,5.7163,5.8762,5.9674,6.0013,5.9268,5.9505,5.9607,0.0,0.0,0.0,0.0,0.0,0.0,0.0,0.0,0.0,0.0,0.0,0.0,0.0,0.0,0.0,0.0,0.0,6.5797,6.5324,6.4613,6.4208,6.4208,6.4478,6.5189,6.6406,6.6948,6.7557,6.8267,6.7557,6.7963,6.935,6.8639,6.8741,6.9553,7.0263,7.0872,7.1289,7.1289,7.1289,7.1289,7.1289,7.1289,7.1188,7.0466,7.0669,7.1188,7.0466,7.0669,7.1289,7.1289,7.1289,7.1289,7.1289,7.1289,7.1289,7.1289,7.1289,7.1289,7.1289,7.1289,7.1289,7.1289,7.1289,7.1289,7.1289,7.05,6.9654,6.918,6.9045,6.8842,6.8368,6.8673,6.9079,6.9316,6.8741,6.8368,6.8639,6.7996,6.732,6.6859,6.6791,6.6791,6.6791,6.6791,6.6791,6.6791,6.7252,6.7523,6.7523,6.7996,6.8267,6.8267,6.776,6.7523,6.7523,6.7523,6.7523,6.7523,6.7523,6.7252,4.8875,4.9812,5.093,5.3524,5.4645,5.5586,5.7145,5.8088,5.8558,5.8321,5.8457,5.849,0.0,0.0,0.0,0.0,0.0,0.0,0.0,0.0,0.0,0.0,0.0,0.0,0.0,0.0,0.0,0.0,0.0,0.0,6.5717,6.4986,6.4715,6.4952,6.4952,6.5561,6.6791,6.6791,6.7299,6.8335,6.7299,6.759,6.9011,6.8233,6.8335,6.9147,6.9857,7.0466,7.0973,7.1188,7.1289,7.1289,7.1289,7.1289,7.1188,7.0466,7.0669,7.1188,7.0466,7.0669,7.1289,7.1289,7.1289,7.1289,7.1289,7.1289,7.1289,7.1289,7.1289,7.1289,7.1289,7.1289,7.1289,7.1289,7.1289,7.1289,7.1289,7.0737,7.0082,6.9553,6.9654,6.9688,6.918,6.9519,6.9891,7.0184,6.9553,6.918,6.9451,6.8774,6.7996,6.7252,6.7421,6.7455,6.7184,6.74,6.7569,6.7569,6.803,6.8301,6.8301,6.8808,6.9113,6.9113,6.8571,6.8402,6.8673,6.8132,6.803,6.8301,6.8301,6.7895,0.0,0.0,0.0,5.0712,5.2669,5.4639,5.6291,0.0,5.8017,5.8776,5.8355,5.79,0.0,0.0,0.0,0.0,0.0,0.0,0.0,0.0,0.0,0.0,0.0,0.0,0.0,0.0,0.0,0.0,6.4647,6.4952,6.5683,6.4986,6.4918,6.5683,6.5717,6.6068,6.6825,6.6825,6.6825,6.6859,6.6859,6.6859,6.6893,6.759,6.8335,6.9113,6.9857,7.0184,7.0251,7.1007,7.1289,7.1289,7.1289,7.1289,7.1188,7.0466,7.0669,7.1188,7.0466,7.0669,7.1289,7.1289,7.1289,7.1289,7.1289,7.1289,7.1289,7.1289,7.1289,7.1289,7.1289,7.1289,7.1289,7.1289,7.1289,7.1289,7.1289,7.0737,7.0251,7.0251,6.9654,6.918,6.918,6.918,6.9417,7.0094,6.962,6.9417,7.0116,6.9586,6.8842,6.803,6.8639,6.8774,6.7996,6.8639,6.9113,6.9113,6.9113,6.9147,6.9147,6.9147,6.918,6.918,6.9147,6.9485,7.0251,6.8707,6.8368,6.9147,6.9113,6.8673,4.8476,0.0,0.0,0.0,0.0,0.0,0.0,0.0,5.5852,5.7137,5.7239,5.7442,0.0,0.0,0.0,0.0,0.0,0.0,0.0,0.0,0.0,0.0,0.0,0.0,0.0,0.0,0.0,0.0,6.5899,6.6068,6.5717,6.4986,6.4918,6.5683,6.5717,6.6305,6.759,6.759,6.7895,6.847,6.847,6.847,6.847,6.8064,6.803,6.8267,6.9045,6.9417,6.9485,7.0804,7.1289,7.1289,7.1289,7.1289,7.1188,7.0466,7.0669,7.1188,7.0466,7.0669,7.1289,7.1289,7.1289,7.1289,7.1289,7.1289,7.1289,7.1289,7.1289,7.1289,7.1289,7.1289,7.1289,7.1289,7.1289,7.1289,7.1289,7.112,7.1007,7.1007,7.0816,7.068,7.068,7.068,7.0748,7.0973,7.0838,7.0567,7.0229,7.0014,6.9586,6.8842,6.8977,6.9011,6.8808,6.8977,6.9113,6.9113,6.9586,6.9913,6.9913,7.0398,7.068,7.068,7.0161,7.0263,7.1007,7.0026,6.9688,6.9857,6.935,6.8977,0.0,0.0,0.0,0.0,0.0,0.0,5.4104,5.4831,5.548,0.0,5.7273,5.7509,0.0,0.0,0.0,0.0,0.0,0.0,0.0,0.0,0.0,0.0,0.0,0.0,0.0,6.4174,6.5019,6.6068,6.6271,6.6305,6.617,6.5764,6.573,6.6136,6.644,6.7015,6.7895,6.7895,6.8301,6.9113,6.8774,6.8774,6.9079,6.8605,6.8571,6.8876,6.935,6.9722,7.0094,7.0951,7.1289,7.1289,7.1289,7.1289,7.1255,7.0804,7.0737,7.0838,7.0703,7.0737,7.0906,7.1188,7.1289,7.1289,7.1289,7.1289,7.1289,7.1289,7.1289,7.1289,7.1289,7.1289,7.1289,7.1289,7.1289,7.1289,7.1289,7.1289,7.1289,7.1289,7.1289,7.1289,7.1289,7.1289,7.1289,7.1289,7.1289,7.112,7.0703,7.0669,7.0364,6.962,6.9823,6.9891,6.9586,6.9857,7.0026,7.0026,7.0432,7.0669,7.0669,7.1075,7.1289,7.1289,7.0872,7.0737,7.0838,7.0398,7.0217,7.0184,6.9451,6.891,0.0,0.0,0.0,0.0,0.0,0.0,5.3962,5.4886,5.5868,0.0,5.7577,5.7595,5.7764,0.0,0.0,0.0,0.0,0.0,0.0,0.0,0.0,0.0,0.0,0.0,6.3612,6.4309,6.5256,6.6576,6.6136,6.6102,6.6757,6.6859,6.6927,6.6927,6.7658,6.8064,6.8132,6.8064,6.8402,6.9079,6.847,6.8504,6.9113,6.918,6.9586,7.0217,7.0217,7.0534,7.1052,7.1222,7.1289,7.1289,7.1289,7.1289,7.1289,7.1289,7.0906,7.0398,7.1052,7.0872,7.0432,7.1109,7.1289,7.1289,7.1289,7.1289,7.1289,7.1289,7.1289,7.1289,7.1289,7.1289,7.1289,7.1289,7.1289,7.1289,7.1289,7.1289,7.1289,7.1289,7.1289,7.1289,7.1289,7.1289,7.1289,7.1289,7.1289,7.1289,7.1289,7.1289,7.1075,7.0398,7.0906,7.1041,7.0364,7.0939,7.1289,7.1289,7.1289,7.1289,7.1289,7.1289,7.1289,7.1289,7.1222,7.0872,7.0217,7.0094,7.0082,7.0082,6.9417,6.8707,0.0,0.0,0.0,0.0,0.0,0.0,5.2673,5.3349,5.4346,0.0,5.5649,5.5615,5.6799,5.7137,0.0,0.0,0.0,0.0,0.0,0.0,0.0,0.0,0.0,0.0,6.4275,6.5053,6.5615,6.5865,6.6339,6.6643,6.6791,6.7354,6.7692,6.7692,6.847,6.9147,6.9744,6.9147,6.8944,6.9113,6.9553,6.9519,6.9113,6.9722,7.006,7.0217,7.0217,6.9925,6.962,7.0816,7.1289,7.1289,7.1289,7.1289,7.1289,7.1289,7.1188,7.1109,7.1255,7.1188,7.1109,7.1255,7.1289,7.1289,7.1289,7.1289,7.1289,7.1289,7.1289,7.1289,7.1289,7.1289,7.1289,7.1289,7.1289,7.1289,7.1289,7.1289,7.1289,7.1289,7.1289,7.1289,7.1289,7.1289,7.1289,7.1289,7.1289,7.1289,7.1289,7.1289,7.1222,7.1109,7.1188,7.1222,7.1109,7.1222,7.1289,7.1289,7.1289,7.1289,7.1289,7.1289,7.1289,7.1289,7.0737,7.0331,7.0217,6.9586,6.9316,6.9316,6.918,6.9011,0.0,0.0,0.0,5.0667,0.0,0.0,0.0,0.0,5.3348,5.4837,5.4871,5.4938,5.6055,0.0,0.0,0.0,0.0,0.0,0.0,0.0,0.0,0.0,0.0,0.0,6.3463,6.4174,6.4749,6.5121,6.617,6.6791,6.6791,6.7489,6.7895,6.7895,6.9045,6.9823,7.0217,6.9823,6.9823,7.0195,7.0195,7.0195,7.0195,7.0195,7.0398,7.0737,7.0364,6.9992,6.9722,7.0838,7.1075,7.0737,7.0737,7.0737,7.0703,7.0364,7.0195,7.0263,7.0635,7.0737,7.0804,7.1176,7.1289,7.1289,7.1289,7.1289,7.1289,7.1289,7.1289,7.1289,7.1289,7.1289,7.1289,7.1289,7.1289,7.1289,7.1289,7.1289,7.1289,7.1289,7.1289,7.1289,7.1289,7.1289,7.1289,7.1289,7.1289,7.1289,7.1289,7.1289,7.1289,7.1289,7.1289,7.1289,7.1289,7.1289,7.1289,7.1289,7.1289,7.1289,7.1289,7.1289,7.1289,7.1289,7.0567,7.0014,6.9654,6.8876,6.8504,6.8504,6.8504,6.8301,0.0,0.0,0.0,0.0,0.0,5.2604,0.0,0.0,0.0,0.0,0.0,0.0,0.0,0.0,0.0,0.0,0.0,0.0,0.0,0.0,0.0,0.0,0.0,0.0,6.2651,6.3024,6.3835,6.5155,6.5811,6.6419,6.696,6.7726,6.8199,6.8335,6.9688,7.0398,7.0398,7.0263,7.05,7.1075,7.0466,7.05,7.1052,7.0635,7.0669,7.1075,7.0466,7.0048,6.9823,7.0567,7.0432,6.9789,7.0082,7.0217,7.0116,6.9383,6.9113,6.918,6.9755,7.006,7.0319,7.0906,7.1188,7.1289,7.1289,7.1289,7.1289,7.1289,7.1289,7.1289,7.1289,7.1289,7.1289,7.1289,7.1289,7.1289,7.1289,7.1289,7.1289,7.1289,7.1289,7.1289,7.1289,7.1289,7.1289,7.1289,7.1289,7.1289,7.1289,7.1289,7.1289,7.1289,7.1289,7.1289,7.1289,7.1289,7.1289,7.1289,7.1289,7.1289,7.1289,7.1289,7.1289,7.1289,7.0567,6.9891,6.9316,6.8368,6.7827,6.7692,6.7692,6.7387,0.0,0.0,0.0,0.0,5.1748,0.0,0.0,0.0,0.0,0.0,0.0,0.0,0.0,0.0,0.0,0.0,0.0,0.0,0.0,0.0,0.0,0.0,0.0,0.0,0.0,6.2854,6.3903,6.7286,6.5256,6.5019,6.7624,6.8538,6.9248,6.9913,7.0737,7.1176,7.1176,7.0534,7.0229,7.0297,7.0229,7.0229,7.0331,7.0939,7.0872,7.0297,7.0251,6.9417,6.8233,6.9011,6.8876,6.8301,6.9654,7.0217,7.0116,6.9383,6.9113,6.9113,6.9214,6.9654,7.0217,7.0319,7.077,7.1289,7.1289,7.1289,7.1289,7.1289,7.1289,7.1289,7.1289,7.1289,7.1289,7.1289,7.1289,7.1289,7.1289,7.1289,7.1289,7.1289,7.1289,7.1289,7.1289,7.1289,7.1289,7.1289,7.1289,7.1289,7.1289,7.1289,7.1289,7.1289,7.1289,7.1289,7.1289,7.1289,7.1289,7.1289,7.1289,7.1289,7.1289,7.1289,7.1289,7.1289,7.0567,7.0184,7.006,6.8605,6.7557,6.6927,6.6927,6.6859,0.0,0.0,0.0,0.0,0.0,0.0,0.0,0.0,5.0035,0.0,0.0,0.0,0.0,0.0,0.0,0.0,0.0,0.0,0.0,0.0,0.0,0.0,0.0,0.0,0.0,0.0,0.0,0.0,6.3802,6.414,6.7117,6.8436,6.9451,7.0184,7.0939,7.1289,7.1289,7.1007,7.0838,7.0838,7.0838,7.0838,7.0838,7.0263,7.0331,7.077,6.9451,6.8741,6.8605,6.8977,6.8639,6.7963,6.8605,6.8876,6.8774,6.803,6.803,6.847,6.8944,6.9586,7.0285,7.0703,7.1075,7.1289,7.1289,7.1289,7.1289,7.1289,7.1289,7.1289,7.1289,7.1289,7.1289,7.1289,7.1289,7.1289,7.1289,7.1289,7.1289,7.1289,7.1289,7.1289,7.1289,7.1289,7.1289,7.1289,7.1289,7.1289,7.1289,7.1289,7.1289,7.1289,7.1289,7.1289,7.1289,7.1289,7.1289,7.1289,7.1289,7.1289,7.1289,7.1289,7.1289,7.1289,7.1007,7.0635,7.0217,6.9553,6.8842,6.8132,6.7197,6.7028,5.2724,0.0,0.0,0.0,0.0,0.0,0.0,0.0,0.0,0.0,0.0,0.0,0.0,0.0,0.0,0.0,0.0,0.0,0.0,0.0,0.0,0.0,0.0,0.0,0.0,0.0,0.0,0.0,0.0,6.3125,6.6893,6.8166,6.9316,7.0466,7.1041,7.1289,7.1289,7.1289,7.1289,7.1289,7.1289,7.1289,7.1255,7.0195,7.0195,7.0906,6.9045,6.8436,6.8774,6.8571,6.8132,6.7624,6.7827,6.7793,6.7523,6.6994,6.7286,6.7996,6.8571,6.9383,7.0297,7.1075,7.1289,7.1289,7.1289,7.1289,7.1289,7.1289,7.1289,7.1289,7.1289,7.1289,7.1289,7.1289,7.1289,7.1289,7.1289,7.1289,7.1289,7.1289,7.1289,7.1222,7.1041,7.1007,7.1075,7.1255,7.1142,7.1075,7.1255,7.1289,7.1289,7.1289,7.1289,7.1289,7.1289,7.1289,7.1289,7.1289,7.1289,7.1289,7.1289,7.1289,7.1289,7.1289,7.1289,7.1041,7.05,7.0319,7.0026,6.9688,6.8132,6.7726,0.0,0.0,0.0,5.1075,0.0,0.0,0.0,0.0,4.9749,0.0,0.0,0.0,0.0,0.0,0.0,0.0,0.0,0.0,0.0,0.0,0.0,0.0,0.0,0.0,0.0,0.0,0.0,0.0,6.0772,0.0,6.7557,6.7895,6.8977,7.1188,7.1289,7.1289,7.1289,7.1289,7.1289,7.1289,7.1289,7.1289,7.1289,7.1255,7.0872,7.0195,6.9417,6.8639,6.7895,6.7184,6.6859,6.6893,6.7624,6.7455,6.6825,6.6791,6.7286,6.7895,6.7929,6.891,7.0297,7.1075,7.1289,7.1289,7.1289,7.1289,7.1289,7.1289,7.1289,7.1289,7.1289,7.1289,7.1289,7.1289,7.1289,7.1289,7.1289,7.1289,7.1289,7.1289,7.1289,7.1052,7.0364,7.0251,7.0466,7.1188,7.0703,7.05,7.1188,7.1289,7.1289,7.1289,7.1289,7.1289,7.1289,7.1289,7.1289,7.1289,7.1289,7.1289,7.1289,7.1289,7.1289,7.1289,7.1289,7.1289,7.1255,7.0534,7.0534,7.1188,6.9722,6.9045,0.0,0.0,5.5765,5.3027,0.0,0.0,0.0,0.0,0.0,0.0,0.0,0.0,0.0,0.0,0.0,0.0,0.0,0.0,0.0,0.0,0.0,0.0,0.0,0.0,0.0,0.0,0.0,0.0,6.1095,0.0,0.0,6.7861,6.9282,7.0534,7.1075,7.1289,7.1289,7.1289,7.1289,7.1289,7.1289,7.1289,7.1289,7.0804,7.0432,7.015,6.8842,6.8166,6.7827,6.7096,6.6791,6.6825,6.7062,6.6994,6.6927,6.7963,6.8132,6.803,6.9079,7.0094,7.0973,7.1222,7.1289,7.1289,7.1289,7.1289,7.1289,7.1289,7.1289,7.1289,7.1289,7.1289,7.1289,7.1289,7.1289,7.1289,7.1289,7.1289,7.1289,7.1289,7.0906,7.05,7.0229,6.935,6.9113,7.0364,7.0364,7.0466,7.1188,7.1289,7.1289,7.1289,7.1289,7.1289,7.1289,7.1289,7.1289,7.1289,7.1289,7.1289,7.1289,7.1289,7.1289,7.1289,7.1289,7.1289,7.1289,7.1075,7.1075,7.1289,7.0782,7.0297,5.5834,5.6258,0.0,5.4036,5.3685,0.0,5.0827,0.0,0.0,0.0,0.0,0.0,0.0,0.0,0.0,0.0,0.0,0.0,0.0,5.7442,0.0,0.0,0.0,0.0,0.0,0.0,5.8423,6.0689,6.0858,0.0,0.0,0.0,6.9147,7.0184,7.0939,7.1289,7.1289,7.1289,7.1289,7.1289,7.1289,7.1289,7.1289,7.0804,7.0601,7.05,6.8977,6.8335,6.8233,6.7218,6.6791,6.6859,6.74,6.7455,6.732,6.8301,6.8707,6.891,7.0161,7.0906,7.1289,7.1289,7.112,7.0973,7.1222,7.1142,7.0973,7.1244,7.1289,7.1289,7.1289,7.1289,7.1289,7.1289,7.1289,7.1289,7.1289,7.1086,7.0906,7.0906,7.0297,6.9722,6.9417,6.8538,6.8335,6.962,6.9789,7.006,7.0804,7.112,7.1289,7.1289,7.1289,7.1289,7.1289,7.1289,7.1289,7.1289,7.1289,7.1289,7.1289,7.1289,7.1289,7.1289,7.1289,7.1289,7.1289,7.1289,7.1289,7.1289,7.1289,7.1075]}]]